<?xml version="1.0" encoding="UTF-8" standalone="no" ?>
<gpx xmlns="http://www.topografix.com/GPX/1/1" xmlns:xsi="http://www.w3.org/2001/XMLSchema-instance" xsi:schemaLocation="http://www.topografix.com/GPX/1/1 http://www.topografix.com/GPX/1/1/gpx.xsd" version="1.1" creator="VisuGPX - https://www.visugpx.com">
  <metadata>
    <name>Sillans la Cascade</name>
    <desc><![CDATA[Petite randonnée sur Sillans-la-Cascade]]></desc>
  </metadata>
  <wpt lat="43.5828" lon="6.16349">
    <ele>455.4</ele>
    <name><![CDATA[Four à chaux]]></name>
    <type><![CDATA[attraction]]></type>
  </wpt>
  <wpt lat="43.57755" lon="6.16545">
    <ele>435.538025</ele>
    <name><![CDATA[four à chaux]]></name>
    <type><![CDATA[attraction]]></type>
  </wpt>
  <wpt lat="43.57343" lon="6.16696">
    <ele>423.902679</ele>
    <name><![CDATA[Aven]]></name>
    <type><![CDATA[danger]]></type>
  </wpt>
  <wpt lat="43.56616" lon="6.17647">
    <ele>437</ele>
    <name><![CDATA[Point de vue]]></name>
    <type><![CDATA[vue]]></type>
  </wpt>
  <wpt lat="43.56525" lon="6.17575">
    <ele>445</ele>
    <name><![CDATA[Stèle résistant]]></name>
    <type><![CDATA[Waypoint]]></type>
  </wpt>
  <wpt lat="43.56498" lon="6.17592">
    <ele>441.8</ele>
    <name><![CDATA[Stèle résistant]]></name>
    <type><![CDATA[Waypoint]]></type>
  </wpt>
  <trk>
    <name><![CDATA[2025-02-16 15:42:18]]></name>
    <extensions>
      <line xmlns="http://www.topografix.com/GPX/gpx_style/0/2">
        <color>ff0000</color>
        <opacity>1</opacity>
        <width>5</width>
      </line>
    </extensions>
    <trkseg>
      <trkpt lat="43.56696" lon="6.17805">
        <ele>378.3</ele>
        <time>2025-02-16T10:37:11Z</time>
      </trkpt>
      <trkpt lat="43.56689" lon="6.17804">
        <ele>378.3</ele>
        <time>2025-02-16T10:37:31Z</time>
      </trkpt>
      <trkpt lat="43.56682" lon="6.17799">
        <ele>379.1</ele>
        <time>2025-02-16T10:37:37.999Z</time>
      </trkpt>
      <trkpt lat="43.56676" lon="6.17794">
        <ele>380</ele>
        <time>2025-02-16T10:37:45Z</time>
      </trkpt>
      <trkpt lat="43.5667" lon="6.17794">
        <ele>380.5</ele>
        <time>2025-02-16T10:37:52.000Z</time>
      </trkpt>
      <trkpt lat="43.56664" lon="6.17793">
        <ele>381.1</ele>
        <time>2025-02-16T10:37:59Z</time>
      </trkpt>
      <trkpt lat="43.56659" lon="6.17791">
        <ele>381.8</ele>
        <time>2025-02-16T10:38:05.500Z</time>
      </trkpt>
      <trkpt lat="43.56653" lon="6.1779">
        <ele>382.5</ele>
        <time>2025-02-16T10:38:12Z</time>
      </trkpt>
      <trkpt lat="43.56649" lon="6.17785">
        <ele>383.8</ele>
        <time>2025-02-16T10:38:18.999Z</time>
      </trkpt>
      <trkpt lat="43.56644" lon="6.1778">
        <ele>385.1</ele>
        <time>2025-02-16T10:38:26Z</time>
      </trkpt>
      <trkpt lat="43.56641" lon="6.1777">
        <ele>387.5</ele>
        <time>2025-02-16T10:38:43Z</time>
      </trkpt>
      <trkpt lat="43.56645" lon="6.17765">
        <ele>387.9</ele>
        <time>2025-02-16T10:38:50.000Z</time>
      </trkpt>
      <trkpt lat="43.56649" lon="6.1776">
        <ele>388.3</ele>
        <time>2025-02-16T10:38:57Z</time>
      </trkpt>
      <trkpt lat="43.56651" lon="6.17753">
        <ele>389.2</ele>
        <time>2025-02-16T10:39:08.000Z</time>
      </trkpt>
      <trkpt lat="43.56653" lon="6.17747">
        <ele>390.5</ele>
        <time>2025-02-16T10:39:19Z</time>
      </trkpt>
      <trkpt lat="43.56647" lon="6.17739">
        <ele>393.8</ele>
        <time>2025-02-16T10:39:38Z</time>
      </trkpt>
      <trkpt lat="43.56643" lon="6.17737">
        <ele>395.1</ele>
        <time>2025-02-16T10:39:48.499Z</time>
      </trkpt>
      <trkpt lat="43.56639" lon="6.17735">
        <ele>396.4</ele>
        <time>2025-02-16T10:39:59Z</time>
      </trkpt>
      <trkpt lat="43.56634" lon="6.17735">
        <ele>397.5</ele>
        <time>2025-02-16T10:40:09.000Z</time>
      </trkpt>
      <trkpt lat="43.56629" lon="6.17735">
        <ele>398.6</ele>
        <time>2025-02-16T10:40:19Z</time>
      </trkpt>
      <trkpt lat="43.56624" lon="6.17735">
        <ele>399.6</ele>
        <time>2025-02-16T10:40:27.500Z</time>
      </trkpt>
      <trkpt lat="43.56618" lon="6.17736">
        <ele>400.5</ele>
        <time>2025-02-16T10:40:36Z</time>
      </trkpt>
      <trkpt lat="43.56614" lon="6.17736">
        <ele>401.4</ele>
        <time>2025-02-16T10:40:45.000Z</time>
      </trkpt>
      <trkpt lat="43.56609" lon="6.17737">
        <ele>402.3</ele>
        <time>2025-02-16T10:40:54Z</time>
      </trkpt>
      <trkpt lat="43.56604" lon="6.17736">
        <ele>403.2</ele>
        <time>2025-02-16T10:41:02.500Z</time>
      </trkpt>
      <trkpt lat="43.56599" lon="6.17736">
        <ele>404.2</ele>
        <time>2025-02-16T10:41:11Z</time>
      </trkpt>
      <trkpt lat="43.56594" lon="6.17737">
        <ele>405</ele>
        <time>2025-02-16T10:41:18.500Z</time>
      </trkpt>
      <trkpt lat="43.56589" lon="6.17737">
        <ele>405.7</ele>
        <time>2025-02-16T10:41:26Z</time>
      </trkpt>
      <trkpt lat="43.5658" lon="6.17739">
        <ele>406.8</ele>
        <time>2025-02-16T10:41:41Z</time>
      </trkpt>
      <trkpt lat="43.56575" lon="6.1774">
        <ele>407.5</ele>
        <time>2025-02-16T10:41:49.000Z</time>
      </trkpt>
      <trkpt lat="43.5657" lon="6.1774">
        <ele>408.2</ele>
        <time>2025-02-16T10:41:57Z</time>
      </trkpt>
      <trkpt lat="43.56565" lon="6.17741">
        <ele>408.8</ele>
        <time>2025-02-16T10:42:04.000Z</time>
      </trkpt>
      <trkpt lat="43.5656" lon="6.17741">
        <ele>409.5</ele>
        <time>2025-02-16T10:42:11Z</time>
      </trkpt>
      <trkpt lat="43.56556" lon="6.17741">
        <ele>410.5</ele>
        <time>2025-02-16T10:42:19.500Z</time>
      </trkpt>
      <trkpt lat="43.56551" lon="6.17741">
        <ele>410.9</ele>
        <time>2025-02-16T10:42:28Z</time>
      </trkpt>
      <trkpt lat="43.56546" lon="6.17739">
        <ele>411.9</ele>
        <time>2025-02-16T10:42:35.999Z</time>
      </trkpt>
      <trkpt lat="43.56541" lon="6.17738">
        <ele>412.9</ele>
        <time>2025-02-16T10:42:44Z</time>
      </trkpt>
      <trkpt lat="43.56537" lon="6.17736">
        <ele>414</ele>
        <time>2025-02-16T10:42:52.999Z</time>
      </trkpt>
      <trkpt lat="43.56533" lon="6.17734">
        <ele>415.2</ele>
        <time>2025-02-16T10:43:02Z</time>
      </trkpt>
      <trkpt lat="43.56537" lon="6.17729">
        <ele>416.5</ele>
        <time>2025-02-16T10:43:11.500Z</time>
      </trkpt>
      <trkpt lat="43.56542" lon="6.17725">
        <ele>417.9</ele>
        <time>2025-02-16T10:43:21Z</time>
      </trkpt>
      <trkpt lat="43.56546" lon="6.17721">
        <ele>419.2</ele>
        <time>2025-02-16T10:43:29.500Z</time>
      </trkpt>
      <trkpt lat="43.5655" lon="6.17717">
        <ele>420.6</ele>
        <time>2025-02-16T10:43:38Z</time>
      </trkpt>
      <trkpt lat="43.56545" lon="6.17714">
        <ele>422.1</ele>
        <time>2025-02-16T10:43:47.999Z</time>
      </trkpt>
      <trkpt lat="43.56541" lon="6.17711">
        <ele>423.6</ele>
        <time>2025-02-16T10:43:58Z</time>
      </trkpt>
      <trkpt lat="43.56538" lon="6.17707">
        <ele>425.8</ele>
        <time>2025-02-16T10:44:18Z</time>
      </trkpt>
      <trkpt lat="43.56543" lon="6.17703">
        <ele>426.7</ele>
        <time>2025-02-16T10:44:28.000Z</time>
      </trkpt>
      <trkpt lat="43.56548" lon="6.177">
        <ele>427.6</ele>
        <time>2025-02-16T10:44:38Z</time>
      </trkpt>
      <trkpt lat="43.56553" lon="6.17696">
        <ele>428.7</ele>
        <time>2025-02-16T10:44:46.500Z</time>
      </trkpt>
      <trkpt lat="43.56559" lon="6.17692">
        <ele>429.8</ele>
        <time>2025-02-16T10:44:55Z</time>
      </trkpt>
      <trkpt lat="43.56563" lon="6.17687">
        <ele>431.5</ele>
        <time>2025-02-16T10:45:05.000Z</time>
      </trkpt>
      <trkpt lat="43.56567" lon="6.17682">
        <ele>433</ele>
        <time>2025-02-16T10:45:15Z</time>
      </trkpt>
      <trkpt lat="43.56571" lon="6.17678">
        <ele>433.9</ele>
        <time>2025-02-16T10:45:26.000Z</time>
      </trkpt>
      <trkpt lat="43.56575" lon="6.17675">
        <ele>434.6</ele>
        <time>2025-02-16T10:45:37Z</time>
      </trkpt>
      <trkpt lat="43.5658" lon="6.17668">
        <ele>436.3</ele>
        <time>2025-02-16T10:46:19Z</time>
      </trkpt>
      <trkpt lat="43.56582" lon="6.17661">
        <ele>438.1</ele>
        <time>2025-02-16T10:46:30.000Z</time>
      </trkpt>
      <trkpt lat="43.56585" lon="6.17654">
        <ele>439.9</ele>
        <time>2025-02-16T10:46:41Z</time>
      </trkpt>
      <trkpt lat="43.56589" lon="6.1765">
        <ele>440.9</ele>
        <time>2025-02-16T10:46:53.000Z</time>
      </trkpt>
      <trkpt lat="43.56593" lon="6.17645">
        <ele>442.1</ele>
        <time>2025-02-16T10:47:05Z</time>
      </trkpt>
      <trkpt lat="43.56596" lon="6.1764">
        <ele>444.1</ele>
        <time>2025-02-16T10:47:15.000Z</time>
      </trkpt>
      <trkpt lat="43.56599" lon="6.17635">
        <ele>444.9</ele>
        <time>2025-02-16T10:47:25Z</time>
      </trkpt>
      <trkpt lat="43.56604" lon="6.17633">
        <ele>444.8</ele>
        <time>2025-02-16T10:47:33.500Z</time>
      </trkpt>
      <trkpt lat="43.56608" lon="6.17632">
        <ele>444.6</ele>
        <time>2025-02-16T10:47:42Z</time>
      </trkpt>
      <trkpt lat="43.56611" lon="6.17638">
        <ele>443.8</ele>
        <time>2025-02-16T10:47:49.500Z</time>
      </trkpt>
      <trkpt lat="43.56614" lon="6.17644">
        <ele>439.1</ele>
        <time>2025-02-16T10:47:57Z</time>
      </trkpt>
      <trkpt lat="43.56618" lon="6.17641">
        <ele>438</ele>
        <time>2025-02-16T10:48:25Z</time>
      </trkpt>
      <trkpt lat="43.56616" lon="6.17635">
        <ele>440.4</ele>
        <time>2025-02-16T10:48:43Z</time>
      </trkpt>
      <trkpt lat="43.56613" lon="6.17628">
        <ele>443.5</ele>
        <time>2025-02-16T10:48:53.999Z</time>
      </trkpt>
      <trkpt lat="43.5661" lon="6.1762">
        <ele>445.5</ele>
        <time>2025-02-16T10:49:05Z</time>
      </trkpt>
      <trkpt lat="43.56604" lon="6.17619">
        <ele>446.1</ele>
        <time>2025-02-16T10:49:12.500Z</time>
      </trkpt>
      <trkpt lat="43.56599" lon="6.17617">
        <ele>446.7</ele>
        <time>2025-02-16T10:49:20Z</time>
      </trkpt>
      <trkpt lat="43.56593" lon="6.17618">
        <ele>447.2</ele>
        <time>2025-02-16T10:49:27.000Z</time>
      </trkpt>
      <trkpt lat="43.56586" lon="6.17618">
        <ele>447.8</ele>
        <time>2025-02-16T10:49:34Z</time>
      </trkpt>
      <trkpt lat="43.5658" lon="6.17619">
        <ele>448.2</ele>
        <time>2025-02-16T10:49:40.470Z</time>
      </trkpt>
      <trkpt lat="43.56577" lon="6.17612">
        <ele>449.1</ele>
        <time>2025-02-16T10:49:45.734Z</time>
      </trkpt>
      <trkpt lat="43.56574" lon="6.17606">
        <ele>449.2</ele>
        <time>2025-02-16T10:49:51Z</time>
      </trkpt>
      <trkpt lat="43.56572" lon="6.17599">
        <ele>449</ele>
        <time>2025-02-16T10:49:54.925Z</time>
      </trkpt>
      <trkpt lat="43.5657" lon="6.17592">
        <ele>448.8</ele>
        <time>2025-02-16T10:49:58.850Z</time>
      </trkpt>
      <trkpt lat="43.56565" lon="6.17592">
        <ele>448.8</ele>
        <time>2025-02-16T10:50:02.425Z</time>
      </trkpt>
      <trkpt lat="43.5656" lon="6.17593">
        <ele>448.7</ele>
        <time>2025-02-16T10:50:06Z</time>
      </trkpt>
      <trkpt lat="43.56557" lon="6.17588">
        <ele>448.4</ele>
        <time>2025-02-16T10:50:09.249Z</time>
      </trkpt>
      <trkpt lat="43.56554" lon="6.17584">
        <ele>447.9</ele>
        <time>2025-02-16T10:50:12.499Z</time>
      </trkpt>
      <trkpt lat="43.5655" lon="6.17579">
        <ele>447.4</ele>
        <time>2025-02-16T10:50:15.749Z</time>
      </trkpt>
      <trkpt lat="43.56547" lon="6.17575">
        <ele>447</ele>
        <time>2025-02-16T10:50:19Z</time>
      </trkpt>
      <trkpt lat="43.56542" lon="6.17572">
        <ele>446.4</ele>
        <time>2025-02-16T10:50:23.499Z</time>
      </trkpt>
      <trkpt lat="43.56537" lon="6.1757">
        <ele>445.9</ele>
        <time>2025-02-16T10:50:28Z</time>
      </trkpt>
      <trkpt lat="43.56532" lon="6.17571">
        <ele>445.4</ele>
        <time>2025-02-16T10:50:34.000Z</time>
      </trkpt>
      <trkpt lat="43.56526" lon="6.17572">
        <ele>445</ele>
        <time>2025-02-16T10:50:40Z</time>
      </trkpt>
      <trkpt lat="43.56522" lon="6.17578">
        <ele>444.8</ele>
        <time>2025-02-16T10:50:47.499Z</time>
      </trkpt>
      <trkpt lat="43.56517" lon="6.17585">
        <ele>444.5</ele>
        <time>2025-02-16T10:50:55Z</time>
      </trkpt>
      <trkpt lat="43.56512" lon="6.17589">
        <ele>443.9</ele>
        <time>2025-02-16T10:51:03.999Z</time>
      </trkpt>
      <trkpt lat="43.56508" lon="6.17593">
        <ele>443.3</ele>
        <time>2025-02-16T10:51:13Z</time>
      </trkpt>
      <trkpt lat="43.56503" lon="6.17589">
        <ele>442.5</ele>
        <time>2025-02-16T10:51:37Z</time>
      </trkpt>
      <trkpt lat="43.56501" lon="6.17589">
        <ele>442.2</ele>
        <time>2025-02-16T10:52:14Z</time>
      </trkpt>
      <trkpt lat="43.56493" lon="6.17591">
        <ele>441.3</ele>
        <time>2025-02-16T10:52:39Z</time>
      </trkpt>
      <trkpt lat="43.56491" lon="6.17581">
        <ele>440.8</ele>
        <time>2025-02-16T10:52:57Z</time>
      </trkpt>
      <trkpt lat="43.56494" lon="6.17573">
        <ele>440.6</ele>
        <time>2025-02-16T10:53:03.500Z</time>
      </trkpt>
      <trkpt lat="43.56497" lon="6.17565">
        <ele>440.4</ele>
        <time>2025-02-16T10:53:10Z</time>
      </trkpt>
      <trkpt lat="43.56495" lon="6.17555">
        <ele>439.6</ele>
        <time>2025-02-16T10:53:17.499Z</time>
      </trkpt>
      <trkpt lat="43.56493" lon="6.17546">
        <ele>438.8</ele>
        <time>2025-02-16T10:53:25Z</time>
      </trkpt>
      <trkpt lat="43.56494" lon="6.17537">
        <ele>438.2</ele>
        <time>2025-02-16T10:53:30.000Z</time>
      </trkpt>
      <trkpt lat="43.56496" lon="6.17527">
        <ele>437.7</ele>
        <time>2025-02-16T10:53:35Z</time>
      </trkpt>
      <trkpt lat="43.56495" lon="6.17521">
        <ele>437.3</ele>
        <time>2025-02-16T10:53:39.499Z</time>
      </trkpt>
      <trkpt lat="43.56494" lon="6.17514">
        <ele>436.9</ele>
        <time>2025-02-16T10:53:44Z</time>
      </trkpt>
      <trkpt lat="43.56493" lon="6.17507">
        <ele>436.5</ele>
        <time>2025-02-16T10:53:48.499Z</time>
      </trkpt>
      <trkpt lat="43.56492" lon="6.175">
        <ele>436.1</ele>
        <time>2025-02-16T10:53:53Z</time>
      </trkpt>
      <trkpt lat="43.56491" lon="6.17492">
        <ele>435.6</ele>
        <time>2025-02-16T10:53:57.999Z</time>
      </trkpt>
      <trkpt lat="43.56491" lon="6.17484">
        <ele>435</ele>
        <time>2025-02-16T10:54:03Z</time>
      </trkpt>
      <trkpt lat="43.56491" lon="6.17476">
        <ele>434.6</ele>
        <time>2025-02-16T10:54:09.000Z</time>
      </trkpt>
      <trkpt lat="43.56491" lon="6.17468">
        <ele>434.2</ele>
        <time>2025-02-16T10:54:15Z</time>
      </trkpt>
      <trkpt lat="43.5649" lon="6.1746">
        <ele>433.8</ele>
        <time>2025-02-16T10:54:20.999Z</time>
      </trkpt>
      <trkpt lat="43.56489" lon="6.17452">
        <ele>433.5</ele>
        <time>2025-02-16T10:54:27Z</time>
      </trkpt>
      <trkpt lat="43.56487" lon="6.17442">
        <ele>432.9</ele>
        <time>2025-02-16T10:54:33.999Z</time>
      </trkpt>
      <trkpt lat="43.56485" lon="6.17433">
        <ele>432.3</ele>
        <time>2025-02-16T10:54:41Z</time>
      </trkpt>
      <trkpt lat="43.56484" lon="6.17423">
        <ele>431.6</ele>
        <time>2025-02-16T10:54:46.999Z</time>
      </trkpt>
      <trkpt lat="43.56482" lon="6.17413">
        <ele>431</ele>
        <time>2025-02-16T10:54:53Z</time>
      </trkpt>
      <trkpt lat="43.5648" lon="6.17405">
        <ele>430.7</ele>
        <time>2025-02-16T10:54:59.999Z</time>
      </trkpt>
      <trkpt lat="43.56478" lon="6.17398">
        <ele>430.5</ele>
        <time>2025-02-16T10:55:07Z</time>
      </trkpt>
      <trkpt lat="43.56476" lon="6.17388">
        <ele>430.3</ele>
        <time>2025-02-16T10:55:12.999Z</time>
      </trkpt>
      <trkpt lat="43.56475" lon="6.17378">
        <ele>429.8</ele>
        <time>2025-02-16T10:55:19Z</time>
      </trkpt>
      <trkpt lat="43.56474" lon="6.17369">
        <ele>429.4</ele>
        <time>2025-02-16T10:55:24.999Z</time>
      </trkpt>
      <trkpt lat="43.56473" lon="6.1736">
        <ele>429.1</ele>
        <time>2025-02-16T10:55:31Z</time>
      </trkpt>
      <trkpt lat="43.56475" lon="6.17353">
        <ele>429.2</ele>
        <time>2025-02-16T10:55:36.500Z</time>
      </trkpt>
      <trkpt lat="43.56477" lon="6.17345">
        <ele>429.2</ele>
        <time>2025-02-16T10:55:42Z</time>
      </trkpt>
      <trkpt lat="43.56478" lon="6.17336">
        <ele>429.2</ele>
        <time>2025-02-16T10:55:48.500Z</time>
      </trkpt>
      <trkpt lat="43.5648" lon="6.17326">
        <ele>429.2</ele>
        <time>2025-02-16T10:55:55Z</time>
      </trkpt>
      <trkpt lat="43.5648" lon="6.17314">
        <ele>428.9</ele>
        <time>2025-02-16T10:56:00.999Z</time>
      </trkpt>
      <trkpt lat="43.56479" lon="6.17303">
        <ele>428.8</ele>
        <time>2025-02-16T10:56:07Z</time>
      </trkpt>
      <trkpt lat="43.5648" lon="6.17293">
        <ele>429.2</ele>
        <time>2025-02-16T10:56:13.000Z</time>
      </trkpt>
      <trkpt lat="43.56481" lon="6.17283">
        <ele>429.5</ele>
        <time>2025-02-16T10:56:19Z</time>
      </trkpt>
      <trkpt lat="43.56482" lon="6.17275">
        <ele>429.7</ele>
        <time>2025-02-16T10:56:23.500Z</time>
      </trkpt>
      <trkpt lat="43.56483" lon="6.17268">
        <ele>429.8</ele>
        <time>2025-02-16T10:56:28Z</time>
      </trkpt>
      <trkpt lat="43.56487" lon="6.17264">
        <ele>430.1</ele>
        <time>2025-02-16T10:56:32.000Z</time>
      </trkpt>
      <trkpt lat="43.56491" lon="6.17261">
        <ele>430.4</ele>
        <time>2025-02-16T10:56:36Z</time>
      </trkpt>
      <trkpt lat="43.56496" lon="6.17258">
        <ele>430.7</ele>
        <time>2025-02-16T10:56:42.000Z</time>
      </trkpt>
      <trkpt lat="43.565" lon="6.17254">
        <ele>431</ele>
        <time>2025-02-16T10:56:48Z</time>
      </trkpt>
      <trkpt lat="43.56507" lon="6.17247">
        <ele>431.5</ele>
        <time>2025-02-16T10:56:57Z</time>
      </trkpt>
      <trkpt lat="43.56511" lon="6.17243">
        <ele>431.8</ele>
        <time>2025-02-16T10:57:02.500Z</time>
      </trkpt>
      <trkpt lat="43.56514" lon="6.17238">
        <ele>432</ele>
        <time>2025-02-16T10:57:08Z</time>
      </trkpt>
      <trkpt lat="43.56517" lon="6.17233">
        <ele>432.3</ele>
        <time>2025-02-16T10:57:13.000Z</time>
      </trkpt>
      <trkpt lat="43.56521" lon="6.17227">
        <ele>432.5</ele>
        <time>2025-02-16T10:57:18Z</time>
      </trkpt>
      <trkpt lat="43.56526" lon="6.17226">
        <ele>432.9</ele>
        <time>2025-02-16T10:57:23.500Z</time>
      </trkpt>
      <trkpt lat="43.56532" lon="6.17224">
        <ele>433.3</ele>
        <time>2025-02-16T10:57:29Z</time>
      </trkpt>
      <trkpt lat="43.56537" lon="6.17225">
        <ele>433.7</ele>
        <time>2025-02-16T10:57:34.000Z</time>
      </trkpt>
      <trkpt lat="43.56543" lon="6.17226">
        <ele>434.1</ele>
        <time>2025-02-16T10:57:39Z</time>
      </trkpt>
      <trkpt lat="43.56547" lon="6.17223">
        <ele>434.4</ele>
        <time>2025-02-16T10:57:44.000Z</time>
      </trkpt>
      <trkpt lat="43.56551" lon="6.1722">
        <ele>434.8</ele>
        <time>2025-02-16T10:57:49Z</time>
      </trkpt>
      <trkpt lat="43.56556" lon="6.17217">
        <ele>435.2</ele>
        <time>2025-02-16T10:57:54.500Z</time>
      </trkpt>
      <trkpt lat="43.56561" lon="6.17215">
        <ele>435.6</ele>
        <time>2025-02-16T10:58:00Z</time>
      </trkpt>
      <trkpt lat="43.56565" lon="6.17211">
        <ele>436.1</ele>
        <time>2025-02-16T10:58:05.500Z</time>
      </trkpt>
      <trkpt lat="43.56569" lon="6.17208">
        <ele>436.5</ele>
        <time>2025-02-16T10:58:11Z</time>
      </trkpt>
      <trkpt lat="43.56574" lon="6.17204">
        <ele>436.9</ele>
        <time>2025-02-16T10:58:15.500Z</time>
      </trkpt>
      <trkpt lat="43.56578" lon="6.17201">
        <ele>437.4</ele>
        <time>2025-02-16T10:58:20Z</time>
      </trkpt>
      <trkpt lat="43.56583" lon="6.17199">
        <ele>437.8</ele>
        <time>2025-02-16T10:58:26.000Z</time>
      </trkpt>
      <trkpt lat="43.56587" lon="6.17197">
        <ele>438.2</ele>
        <time>2025-02-16T10:58:32Z</time>
      </trkpt>
      <trkpt lat="43.56592" lon="6.17195">
        <ele>438.6</ele>
        <time>2025-02-16T10:58:38.500Z</time>
      </trkpt>
      <trkpt lat="43.56597" lon="6.17194">
        <ele>439</ele>
        <time>2025-02-16T10:58:45Z</time>
      </trkpt>
      <trkpt lat="43.56601" lon="6.1719">
        <ele>439.5</ele>
        <time>2025-02-16T10:58:51.000Z</time>
      </trkpt>
      <trkpt lat="43.56605" lon="6.17185">
        <ele>439.9</ele>
        <time>2025-02-16T10:58:57Z</time>
      </trkpt>
      <trkpt lat="43.56609" lon="6.1718">
        <ele>440.4</ele>
        <time>2025-02-16T10:59:02.000Z</time>
      </trkpt>
      <trkpt lat="43.56613" lon="6.17175">
        <ele>440.8</ele>
        <time>2025-02-16T10:59:07Z</time>
      </trkpt>
      <trkpt lat="43.56618" lon="6.17172">
        <ele>441.1</ele>
        <time>2025-02-16T10:59:11.500Z</time>
      </trkpt>
      <trkpt lat="43.56623" lon="6.17169">
        <ele>441.4</ele>
        <time>2025-02-16T10:59:16Z</time>
      </trkpt>
      <trkpt lat="43.56627" lon="6.17166">
        <ele>441.6</ele>
        <time>2025-02-16T10:59:21.000Z</time>
      </trkpt>
      <trkpt lat="43.56631" lon="6.17163">
        <ele>441.8</ele>
        <time>2025-02-16T10:59:26Z</time>
      </trkpt>
      <trkpt lat="43.56636" lon="6.1716">
        <ele>441.9</ele>
        <time>2025-02-16T10:59:31.000Z</time>
      </trkpt>
      <trkpt lat="43.5664" lon="6.17156">
        <ele>441.8</ele>
        <time>2025-02-16T10:59:36Z</time>
      </trkpt>
      <trkpt lat="43.56644" lon="6.17154">
        <ele>441.2</ele>
        <time>2025-02-16T10:59:42.000Z</time>
      </trkpt>
      <trkpt lat="43.56649" lon="6.17152">
        <ele>440.5</ele>
        <time>2025-02-16T10:59:48Z</time>
      </trkpt>
      <trkpt lat="43.56654" lon="6.17151">
        <ele>439.7</ele>
        <time>2025-02-16T10:59:54.000Z</time>
      </trkpt>
      <trkpt lat="43.5666" lon="6.1715">
        <ele>438.8</ele>
        <time>2025-02-16T11:00:00Z</time>
      </trkpt>
      <trkpt lat="43.56665" lon="6.17153">
        <ele>438.3</ele>
        <time>2025-02-16T11:00:06.500Z</time>
      </trkpt>
      <trkpt lat="43.5667" lon="6.17156">
        <ele>437.4</ele>
        <time>2025-02-16T11:00:13Z</time>
      </trkpt>
      <trkpt lat="43.56676" lon="6.17164">
        <ele>436.3</ele>
        <time>2025-02-16T11:00:27Z</time>
      </trkpt>
      <trkpt lat="43.56679" lon="6.17161">
        <ele>435.2</ele>
        <time>2025-02-16T11:00:46Z</time>
      </trkpt>
      <trkpt lat="43.56675" lon="6.17151">
        <ele>435.4</ele>
        <time>2025-02-16T11:01:01Z</time>
      </trkpt>
      <trkpt lat="43.56672" lon="6.17143">
        <ele>435.8</ele>
        <time>2025-02-16T11:01:08.499Z</time>
      </trkpt>
      <trkpt lat="43.56668" lon="6.17136">
        <ele>436.2</ele>
        <time>2025-02-16T11:01:16Z</time>
      </trkpt>
      <trkpt lat="43.56663" lon="6.17126">
        <ele>436.5</ele>
        <time>2025-02-16T11:01:23.999Z</time>
      </trkpt>
      <trkpt lat="43.56658" lon="6.17116">
        <ele>437</ele>
        <time>2025-02-16T11:01:32Z</time>
      </trkpt>
      <trkpt lat="43.56653" lon="6.17107">
        <ele>437.7</ele>
        <time>2025-02-16T11:01:38.499Z</time>
      </trkpt>
      <trkpt lat="43.56648" lon="6.17098">
        <ele>438.4</ele>
        <time>2025-02-16T11:01:45Z</time>
      </trkpt>
      <trkpt lat="43.56644" lon="6.17092">
        <ele>439.1</ele>
        <time>2025-02-16T11:01:50.999Z</time>
      </trkpt>
      <trkpt lat="43.5664" lon="6.17086">
        <ele>439.8</ele>
        <time>2025-02-16T11:01:57Z</time>
      </trkpt>
      <trkpt lat="43.56636" lon="6.17079">
        <ele>439.9</ele>
        <time>2025-02-16T11:02:02.999Z</time>
      </trkpt>
      <trkpt lat="43.56632" lon="6.17073">
        <ele>440</ele>
        <time>2025-02-16T11:02:09Z</time>
      </trkpt>
      <trkpt lat="43.56628" lon="6.17066">
        <ele>440.2</ele>
        <time>2025-02-16T11:02:15.999Z</time>
      </trkpt>
      <trkpt lat="43.56624" lon="6.17059">
        <ele>440.8</ele>
        <time>2025-02-16T11:02:23Z</time>
      </trkpt>
      <trkpt lat="43.56618" lon="6.17053">
        <ele>442.1</ele>
        <time>2025-02-16T11:02:29.999Z</time>
      </trkpt>
      <trkpt lat="43.56612" lon="6.17047">
        <ele>443.8</ele>
        <time>2025-02-16T11:02:37Z</time>
      </trkpt>
      <trkpt lat="43.56607" lon="6.17041">
        <ele>444.1</ele>
        <time>2025-02-16T11:02:43.999Z</time>
      </trkpt>
      <trkpt lat="43.56602" lon="6.17035">
        <ele>444.2</ele>
        <time>2025-02-16T11:02:51Z</time>
      </trkpt>
      <trkpt lat="43.56597" lon="6.17027">
        <ele>444.5</ele>
        <time>2025-02-16T11:02:57.499Z</time>
      </trkpt>
      <trkpt lat="43.56593" lon="6.1702">
        <ele>444.8</ele>
        <time>2025-02-16T11:03:04Z</time>
      </trkpt>
      <trkpt lat="43.56589" lon="6.17013">
        <ele>445.1</ele>
        <time>2025-02-16T11:03:10.999Z</time>
      </trkpt>
      <trkpt lat="43.56585" lon="6.17006">
        <ele>445.6</ele>
        <time>2025-02-16T11:03:18Z</time>
      </trkpt>
      <trkpt lat="43.56578" lon="6.16998">
        <ele>445.8</ele>
        <time>2025-02-16T11:03:26.499Z</time>
      </trkpt>
      <trkpt lat="43.56572" lon="6.1699">
        <ele>445.9</ele>
        <time>2025-02-16T11:03:35Z</time>
      </trkpt>
      <trkpt lat="43.56565" lon="6.16982">
        <ele>446.2</ele>
        <time>2025-02-16T11:03:42.999Z</time>
      </trkpt>
      <trkpt lat="43.56558" lon="6.16974">
        <ele>446.8</ele>
        <time>2025-02-16T11:03:51Z</time>
      </trkpt>
      <trkpt lat="43.56553" lon="6.16967">
        <ele>447.1</ele>
        <time>2025-02-16T11:03:55.999Z</time>
      </trkpt>
      <trkpt lat="43.56547" lon="6.1696">
        <ele>447.1</ele>
        <time>2025-02-16T11:04:01Z</time>
      </trkpt>
      <trkpt lat="43.56542" lon="6.16953">
        <ele>447.2</ele>
        <time>2025-02-16T11:04:06.999Z</time>
      </trkpt>
      <trkpt lat="43.56537" lon="6.16945">
        <ele>447.3</ele>
        <time>2025-02-16T11:04:13Z</time>
      </trkpt>
      <trkpt lat="43.56533" lon="6.16937">
        <ele>447.4</ele>
        <time>2025-02-16T11:04:19.499Z</time>
      </trkpt>
      <trkpt lat="43.56528" lon="6.1693">
        <ele>447.5</ele>
        <time>2025-02-16T11:04:26Z</time>
      </trkpt>
      <trkpt lat="43.56524" lon="6.16922">
        <ele>447.5</ele>
        <time>2025-02-16T11:04:31.999Z</time>
      </trkpt>
      <trkpt lat="43.5652" lon="6.16915">
        <ele>447.4</ele>
        <time>2025-02-16T11:04:38Z</time>
      </trkpt>
      <trkpt lat="43.56515" lon="6.16907">
        <ele>447.2</ele>
        <time>2025-02-16T11:04:42.999Z</time>
      </trkpt>
      <trkpt lat="43.5651" lon="6.16899">
        <ele>447.1</ele>
        <time>2025-02-16T11:04:48Z</time>
      </trkpt>
      <trkpt lat="43.56506" lon="6.16892">
        <ele>447.1</ele>
        <time>2025-02-16T11:04:52.999Z</time>
      </trkpt>
      <trkpt lat="43.56502" lon="6.16885">
        <ele>447.1</ele>
        <time>2025-02-16T11:04:58Z</time>
      </trkpt>
      <trkpt lat="43.56499" lon="6.16878">
        <ele>447</ele>
        <time>2025-02-16T11:05:03.499Z</time>
      </trkpt>
      <trkpt lat="43.56497" lon="6.16871">
        <ele>446.9</ele>
        <time>2025-02-16T11:05:09Z</time>
      </trkpt>
      <trkpt lat="43.56494" lon="6.16862">
        <ele>446.8</ele>
        <time>2025-02-16T11:05:15.999Z</time>
      </trkpt>
      <trkpt lat="43.56492" lon="6.16853">
        <ele>446.5</ele>
        <time>2025-02-16T11:05:23Z</time>
      </trkpt>
      <trkpt lat="43.56488" lon="6.16845">
        <ele>446.2</ele>
        <time>2025-02-16T11:05:28.999Z</time>
      </trkpt>
      <trkpt lat="43.56484" lon="6.16836">
        <ele>446</ele>
        <time>2025-02-16T11:05:35Z</time>
      </trkpt>
      <trkpt lat="43.56479" lon="6.16828">
        <ele>445.9</ele>
        <time>2025-02-16T11:05:40.499Z</time>
      </trkpt>
      <trkpt lat="43.56475" lon="6.16819">
        <ele>445.9</ele>
        <time>2025-02-16T11:05:46Z</time>
      </trkpt>
      <trkpt lat="43.5647" lon="6.16811">
        <ele>445.9</ele>
        <time>2025-02-16T11:05:50.499Z</time>
      </trkpt>
      <trkpt lat="43.56466" lon="6.16803">
        <ele>445.6</ele>
        <time>2025-02-16T11:05:55Z</time>
      </trkpt>
      <trkpt lat="43.56462" lon="6.16795">
        <ele>445.2</ele>
        <time>2025-02-16T11:06:01.999Z</time>
      </trkpt>
      <trkpt lat="43.56459" lon="6.16788">
        <ele>444.9</ele>
        <time>2025-02-16T11:06:09Z</time>
      </trkpt>
      <trkpt lat="43.56454" lon="6.16779">
        <ele>444.7</ele>
        <time>2025-02-16T11:06:16.499Z</time>
      </trkpt>
      <trkpt lat="43.56448" lon="6.1677">
        <ele>444.6</ele>
        <time>2025-02-16T11:06:24Z</time>
      </trkpt>
      <trkpt lat="43.56445" lon="6.16765">
        <ele>444.5</ele>
        <time>2025-02-16T11:06:34.999Z</time>
      </trkpt>
      <trkpt lat="43.56442" lon="6.16759">
        <ele>444.2</ele>
        <time>2025-02-16T11:06:46Z</time>
      </trkpt>
      <trkpt lat="43.56439" lon="6.16754">
        <ele>443.9</ele>
        <time>2025-02-16T11:07:05.999Z</time>
      </trkpt>
      <trkpt lat="43.56435" lon="6.16749">
        <ele>443.6</ele>
        <time>2025-02-16T11:07:26Z</time>
      </trkpt>
      <trkpt lat="43.56432" lon="6.16744">
        <ele>443.2</ele>
        <time>2025-02-16T11:07:31.499Z</time>
      </trkpt>
      <trkpt lat="43.56428" lon="6.16738">
        <ele>442.8</ele>
        <time>2025-02-16T11:07:37Z</time>
      </trkpt>
      <trkpt lat="43.56425" lon="6.16731">
        <ele>442.4</ele>
        <time>2025-02-16T11:07:42.999Z</time>
      </trkpt>
      <trkpt lat="43.56422" lon="6.16725">
        <ele>442.1</ele>
        <time>2025-02-16T11:07:49Z</time>
      </trkpt>
      <trkpt lat="43.56416" lon="6.16716">
        <ele>441.5</ele>
        <time>2025-02-16T11:07:54.999Z</time>
      </trkpt>
      <trkpt lat="43.5641" lon="6.16707">
        <ele>440.8</ele>
        <time>2025-02-16T11:08:01Z</time>
      </trkpt>
      <trkpt lat="43.56406" lon="6.16698">
        <ele>440.2</ele>
        <time>2025-02-16T11:08:07.499Z</time>
      </trkpt>
      <trkpt lat="43.56401" lon="6.16689">
        <ele>439.7</ele>
        <time>2025-02-16T11:08:14Z</time>
      </trkpt>
      <trkpt lat="43.56396" lon="6.16681">
        <ele>439.4</ele>
        <time>2025-02-16T11:08:20.499Z</time>
      </trkpt>
      <trkpt lat="43.5639" lon="6.16674">
        <ele>439.2</ele>
        <time>2025-02-16T11:08:27Z</time>
      </trkpt>
      <trkpt lat="43.56387" lon="6.16666">
        <ele>438.8</ele>
        <time>2025-02-16T11:08:32.999Z</time>
      </trkpt>
      <trkpt lat="43.56383" lon="6.16657">
        <ele>438.1</ele>
        <time>2025-02-16T11:08:39Z</time>
      </trkpt>
      <trkpt lat="43.5638" lon="6.16653">
        <ele>437.7</ele>
        <time>2025-02-16T11:08:41.999Z</time>
      </trkpt>
      <trkpt lat="43.56376" lon="6.16648">
        <ele>437.4</ele>
        <time>2025-02-16T11:08:44.999Z</time>
      </trkpt>
      <trkpt lat="43.56373" lon="6.16644">
        <ele>437.1</ele>
        <time>2025-02-16T11:08:47.999Z</time>
      </trkpt>
      <trkpt lat="43.5637" lon="6.16639">
        <ele>437</ele>
        <time>2025-02-16T11:08:51Z</time>
      </trkpt>
      <trkpt lat="43.56366" lon="6.16631">
        <ele>437</ele>
        <time>2025-02-16T11:08:56.999Z</time>
      </trkpt>
      <trkpt lat="43.56363" lon="6.16624">
        <ele>437.3</ele>
        <time>2025-02-16T11:09:03Z</time>
      </trkpt>
      <trkpt lat="43.5636" lon="6.16618">
        <ele>437.8</ele>
        <time>2025-02-16T11:09:08.999Z</time>
      </trkpt>
      <trkpt lat="43.56356" lon="6.16612">
        <ele>438.2</ele>
        <time>2025-02-16T11:09:15Z</time>
      </trkpt>
      <trkpt lat="43.56351" lon="6.16605">
        <ele>438.2</ele>
        <time>2025-02-16T11:09:19.999Z</time>
      </trkpt>
      <trkpt lat="43.56347" lon="6.16599">
        <ele>438.3</ele>
        <time>2025-02-16T11:09:25Z</time>
      </trkpt>
      <trkpt lat="43.56343" lon="6.16593">
        <ele>438.7</ele>
        <time>2025-02-16T11:09:29.999Z</time>
      </trkpt>
      <trkpt lat="43.56339" lon="6.16587">
        <ele>439.2</ele>
        <time>2025-02-16T11:09:35Z</time>
      </trkpt>
      <trkpt lat="43.56336" lon="6.16581">
        <ele>439.5</ele>
        <time>2025-02-16T11:09:39.999Z</time>
      </trkpt>
      <trkpt lat="43.56334" lon="6.16574">
        <ele>439.6</ele>
        <time>2025-02-16T11:09:45Z</time>
      </trkpt>
      <trkpt lat="43.56332" lon="6.16566">
        <ele>439.5</ele>
        <time>2025-02-16T11:09:50.999Z</time>
      </trkpt>
      <trkpt lat="43.56329" lon="6.16559">
        <ele>439.5</ele>
        <time>2025-02-16T11:09:57Z</time>
      </trkpt>
      <trkpt lat="43.56326" lon="6.16551">
        <ele>439.7</ele>
        <time>2025-02-16T11:10:02.999Z</time>
      </trkpt>
      <trkpt lat="43.56322" lon="6.16543">
        <ele>439.9</ele>
        <time>2025-02-16T11:10:09Z</time>
      </trkpt>
      <trkpt lat="43.56321" lon="6.16535">
        <ele>440</ele>
        <time>2025-02-16T11:10:14.499Z</time>
      </trkpt>
      <trkpt lat="43.56319" lon="6.16527">
        <ele>440.1</ele>
        <time>2025-02-16T11:10:20Z</time>
      </trkpt>
      <trkpt lat="43.56317" lon="6.16519">
        <ele>440.6</ele>
        <time>2025-02-16T11:10:24.999Z</time>
      </trkpt>
      <trkpt lat="43.56315" lon="6.16511">
        <ele>441</ele>
        <time>2025-02-16T11:10:30Z</time>
      </trkpt>
      <trkpt lat="43.56315" lon="6.16502">
        <ele>441.2</ele>
        <time>2025-02-16T11:10:34.500Z</time>
      </trkpt>
      <trkpt lat="43.56315" lon="6.16494">
        <ele>441.3</ele>
        <time>2025-02-16T11:10:39Z</time>
      </trkpt>
      <trkpt lat="43.56316" lon="6.16487">
        <ele>441.1</ele>
        <time>2025-02-16T11:10:43.500Z</time>
      </trkpt>
      <trkpt lat="43.56316" lon="6.16479">
        <ele>440.9</ele>
        <time>2025-02-16T11:10:48Z</time>
      </trkpt>
      <trkpt lat="43.56317" lon="6.16473">
        <ele>440.8</ele>
        <time>2025-02-16T11:10:52.000Z</time>
      </trkpt>
      <trkpt lat="43.56318" lon="6.16466">
        <ele>440.8</ele>
        <time>2025-02-16T11:10:56Z</time>
      </trkpt>
      <trkpt lat="43.56318" lon="6.16459">
        <ele>440.8</ele>
        <time>2025-02-16T11:11:00.000Z</time>
      </trkpt>
      <trkpt lat="43.56319" lon="6.16453">
        <ele>440.9</ele>
        <time>2025-02-16T11:11:04Z</time>
      </trkpt>
      <trkpt lat="43.5632" lon="6.16446">
        <ele>440.9</ele>
        <time>2025-02-16T11:11:08.000Z</time>
      </trkpt>
      <trkpt lat="43.56321" lon="6.1644">
        <ele>441.2</ele>
        <time>2025-02-16T11:11:12Z</time>
      </trkpt>
      <trkpt lat="43.56322" lon="6.16433">
        <ele>441.5</ele>
        <time>2025-02-16T11:11:17.000Z</time>
      </trkpt>
      <trkpt lat="43.56323" lon="6.16426">
        <ele>441.8</ele>
        <time>2025-02-16T11:11:22Z</time>
      </trkpt>
      <trkpt lat="43.56325" lon="6.16419">
        <ele>442.2</ele>
        <time>2025-02-16T11:11:26.500Z</time>
      </trkpt>
      <trkpt lat="43.56326" lon="6.16412">
        <ele>442.5</ele>
        <time>2025-02-16T11:11:31Z</time>
      </trkpt>
      <trkpt lat="43.56328" lon="6.16405">
        <ele>442.9</ele>
        <time>2025-02-16T11:11:36.000Z</time>
      </trkpt>
      <trkpt lat="43.5633" lon="6.16398">
        <ele>443.3</ele>
        <time>2025-02-16T11:11:41Z</time>
      </trkpt>
      <trkpt lat="43.56332" lon="6.16391">
        <ele>443.8</ele>
        <time>2025-02-16T11:11:45.500Z</time>
      </trkpt>
      <trkpt lat="43.56333" lon="6.16384">
        <ele>444.2</ele>
        <time>2025-02-16T11:11:50Z</time>
      </trkpt>
      <trkpt lat="43.56334" lon="6.16377">
        <ele>444.4</ele>
        <time>2025-02-16T11:11:54.500Z</time>
      </trkpt>
      <trkpt lat="43.56334" lon="6.1637">
        <ele>444.5</ele>
        <time>2025-02-16T11:11:59Z</time>
      </trkpt>
      <trkpt lat="43.56335" lon="6.16364">
        <ele>444.7</ele>
        <time>2025-02-16T11:12:03.500Z</time>
      </trkpt>
      <trkpt lat="43.56335" lon="6.16357">
        <ele>444.9</ele>
        <time>2025-02-16T11:12:08Z</time>
      </trkpt>
      <trkpt lat="43.56337" lon="6.1635">
        <ele>444.9</ele>
        <time>2025-02-16T11:12:12.000Z</time>
      </trkpt>
      <trkpt lat="43.56338" lon="6.16344">
        <ele>444.9</ele>
        <time>2025-02-16T11:12:16Z</time>
      </trkpt>
      <trkpt lat="43.56338" lon="6.16332">
        <ele>445.4</ele>
        <time>2025-02-16T11:12:24Z</time>
      </trkpt>
      <trkpt lat="43.56337" lon="6.16321">
        <ele>445.9</ele>
        <time>2025-02-16T11:12:33Z</time>
      </trkpt>
      <trkpt lat="43.56336" lon="6.16315">
        <ele>446.2</ele>
        <time>2025-02-16T11:12:37.499Z</time>
      </trkpt>
      <trkpt lat="43.56336" lon="6.16308">
        <ele>446.5</ele>
        <time>2025-02-16T11:12:42Z</time>
      </trkpt>
      <trkpt lat="43.56334" lon="6.16298">
        <ele>447</ele>
        <time>2025-02-16T11:13:15Z</time>
      </trkpt>
      <trkpt lat="43.56334" lon="6.16292">
        <ele>446.8</ele>
        <time>2025-02-16T11:13:22.000Z</time>
      </trkpt>
      <trkpt lat="43.56335" lon="6.16286">
        <ele>446.7</ele>
        <time>2025-02-16T11:13:29Z</time>
      </trkpt>
      <trkpt lat="43.56335" lon="6.16278">
        <ele>446.6</ele>
        <time>2025-02-16T11:13:33.500Z</time>
      </trkpt>
      <trkpt lat="43.56336" lon="6.1627">
        <ele>446</ele>
        <time>2025-02-16T11:13:38Z</time>
      </trkpt>
      <trkpt lat="43.56335" lon="6.16264">
        <ele>445.6</ele>
        <time>2025-02-16T11:13:42.000Z</time>
      </trkpt>
      <trkpt lat="43.56335" lon="6.16257">
        <ele>445.2</ele>
        <time>2025-02-16T11:13:46Z</time>
      </trkpt>
      <trkpt lat="43.56336" lon="6.16251">
        <ele>444.5</ele>
        <time>2025-02-16T11:13:51.500Z</time>
      </trkpt>
      <trkpt lat="43.56337" lon="6.16244">
        <ele>444.6</ele>
        <time>2025-02-16T11:13:57Z</time>
      </trkpt>
      <trkpt lat="43.56338" lon="6.16236">
        <ele>444.7</ele>
        <time>2025-02-16T11:14:02.000Z</time>
      </trkpt>
      <trkpt lat="43.56339" lon="6.16229">
        <ele>444.9</ele>
        <time>2025-02-16T11:14:07Z</time>
      </trkpt>
      <trkpt lat="43.56342" lon="6.16222">
        <ele>444.9</ele>
        <time>2025-02-16T11:14:12.000Z</time>
      </trkpt>
      <trkpt lat="43.56344" lon="6.16214">
        <ele>445</ele>
        <time>2025-02-16T11:14:17Z</time>
      </trkpt>
      <trkpt lat="43.56344" lon="6.16205">
        <ele>445.7</ele>
        <time>2025-02-16T11:14:24.000Z</time>
      </trkpt>
      <trkpt lat="43.56345" lon="6.16196">
        <ele>446.3</ele>
        <time>2025-02-16T11:14:31Z</time>
      </trkpt>
      <trkpt lat="43.56344" lon="6.16189">
        <ele>447</ele>
        <time>2025-02-16T11:14:37.999Z</time>
      </trkpt>
      <trkpt lat="43.56344" lon="6.16183">
        <ele>447.7</ele>
        <time>2025-02-16T11:14:45Z</time>
      </trkpt>
      <trkpt lat="43.56344" lon="6.16174">
        <ele>448.5</ele>
        <time>2025-02-16T11:14:53.000Z</time>
      </trkpt>
      <trkpt lat="43.56344" lon="6.16165">
        <ele>449.3</ele>
        <time>2025-02-16T11:15:01Z</time>
      </trkpt>
      <trkpt lat="43.56345" lon="6.16156">
        <ele>449.9</ele>
        <time>2025-02-16T11:15:13.500Z</time>
      </trkpt>
      <trkpt lat="43.56346" lon="6.16147">
        <ele>450.5</ele>
        <time>2025-02-16T11:15:26Z</time>
      </trkpt>
      <trkpt lat="43.56345" lon="6.16139">
        <ele>451</ele>
        <time>2025-02-16T11:15:31.499Z</time>
      </trkpt>
      <trkpt lat="43.56344" lon="6.16131">
        <ele>451.4</ele>
        <time>2025-02-16T11:15:37Z</time>
      </trkpt>
      <trkpt lat="43.56342" lon="6.16124">
        <ele>451.7</ele>
        <time>2025-02-16T11:15:41.999Z</time>
      </trkpt>
      <trkpt lat="43.5634" lon="6.16117">
        <ele>452</ele>
        <time>2025-02-16T11:15:47Z</time>
      </trkpt>
      <trkpt lat="43.56338" lon="6.16106">
        <ele>452.2</ele>
        <time>2025-02-16T11:15:55Z</time>
      </trkpt>
      <trkpt lat="43.56337" lon="6.16099">
        <ele>452.2</ele>
        <time>2025-02-16T11:15:59.499Z</time>
      </trkpt>
      <trkpt lat="43.56336" lon="6.16091">
        <ele>452.1</ele>
        <time>2025-02-16T11:16:04Z</time>
      </trkpt>
      <trkpt lat="43.56336" lon="6.16085">
        <ele>452.2</ele>
        <time>2025-02-16T11:16:08.000Z</time>
      </trkpt>
      <trkpt lat="43.56337" lon="6.16079">
        <ele>452.3</ele>
        <time>2025-02-16T11:16:12Z</time>
      </trkpt>
      <trkpt lat="43.56337" lon="6.16072">
        <ele>452.3</ele>
        <time>2025-02-16T11:16:16.000Z</time>
      </trkpt>
      <trkpt lat="43.56338" lon="6.16065">
        <ele>452.4</ele>
        <time>2025-02-16T11:16:20Z</time>
      </trkpt>
      <trkpt lat="43.56338" lon="6.16058">
        <ele>452.5</ele>
        <time>2025-02-16T11:16:24.500Z</time>
      </trkpt>
      <trkpt lat="43.56338" lon="6.16051">
        <ele>452.5</ele>
        <time>2025-02-16T11:16:29Z</time>
      </trkpt>
      <trkpt lat="43.56338" lon="6.16044">
        <ele>452.5</ele>
        <time>2025-02-16T11:16:33.500Z</time>
      </trkpt>
      <trkpt lat="43.56337" lon="6.16037">
        <ele>452.4</ele>
        <time>2025-02-16T11:16:38Z</time>
      </trkpt>
      <trkpt lat="43.56337" lon="6.1603">
        <ele>452.4</ele>
        <time>2025-02-16T11:16:42.500Z</time>
      </trkpt>
      <trkpt lat="43.56337" lon="6.16024">
        <ele>452.4</ele>
        <time>2025-02-16T11:16:47Z</time>
      </trkpt>
      <trkpt lat="43.56338" lon="6.16017">
        <ele>452.5</ele>
        <time>2025-02-16T11:16:51.000Z</time>
      </trkpt>
      <trkpt lat="43.56339" lon="6.16011">
        <ele>452.6</ele>
        <time>2025-02-16T11:16:55Z</time>
      </trkpt>
      <trkpt lat="43.56342" lon="6.16">
        <ele>452.9</ele>
        <time>2025-02-16T11:55:58Z</time>
      </trkpt>
      <trkpt lat="43.56346" lon="6.15989">
        <ele>453.4</ele>
        <time>2025-02-16T11:56:08Z</time>
      </trkpt>
      <trkpt lat="43.56347" lon="6.15982">
        <ele>453.5</ele>
        <time>2025-02-16T11:56:13.000Z</time>
      </trkpt>
      <trkpt lat="43.56349" lon="6.15976">
        <ele>453.6</ele>
        <time>2025-02-16T11:56:18Z</time>
      </trkpt>
      <trkpt lat="43.56349" lon="6.15969">
        <ele>453.4</ele>
        <time>2025-02-16T11:56:22.500Z</time>
      </trkpt>
      <trkpt lat="43.56349" lon="6.15962">
        <ele>453.2</ele>
        <time>2025-02-16T11:56:27Z</time>
      </trkpt>
      <trkpt lat="43.56348" lon="6.15954">
        <ele>452.9</ele>
        <time>2025-02-16T11:56:30.999Z</time>
      </trkpt>
      <trkpt lat="43.56347" lon="6.15946">
        <ele>452.6</ele>
        <time>2025-02-16T11:56:35Z</time>
      </trkpt>
      <trkpt lat="43.56347" lon="6.15939">
        <ele>452.2</ele>
        <time>2025-02-16T11:56:39.000Z</time>
      </trkpt>
      <trkpt lat="43.56346" lon="6.15932">
        <ele>451.9</ele>
        <time>2025-02-16T11:56:43Z</time>
      </trkpt>
      <trkpt lat="43.56345" lon="6.15926">
        <ele>451.6</ele>
        <time>2025-02-16T11:56:47.499Z</time>
      </trkpt>
      <trkpt lat="43.56344" lon="6.15919">
        <ele>451.3</ele>
        <time>2025-02-16T11:56:52Z</time>
      </trkpt>
      <trkpt lat="43.56342" lon="6.15912">
        <ele>451.1</ele>
        <time>2025-02-16T11:56:55.999Z</time>
      </trkpt>
      <trkpt lat="43.5634" lon="6.15906">
        <ele>450.8</ele>
        <time>2025-02-16T11:57:00Z</time>
      </trkpt>
      <trkpt lat="43.56338" lon="6.15899">
        <ele>450.7</ele>
        <time>2025-02-16T11:57:03.999Z</time>
      </trkpt>
      <trkpt lat="43.56336" lon="6.15892">
        <ele>450.7</ele>
        <time>2025-02-16T11:57:08Z</time>
      </trkpt>
      <trkpt lat="43.56333" lon="6.1588">
        <ele>450.4</ele>
        <time>2025-02-16T11:57:16Z</time>
      </trkpt>
      <trkpt lat="43.56332" lon="6.15874">
        <ele>449.9</ele>
        <time>2025-02-16T11:57:19.999Z</time>
      </trkpt>
      <trkpt lat="43.56331" lon="6.15868">
        <ele>449.5</ele>
        <time>2025-02-16T11:57:24Z</time>
      </trkpt>
      <trkpt lat="43.5633" lon="6.15861">
        <ele>449.2</ele>
        <time>2025-02-16T11:57:27.999Z</time>
      </trkpt>
      <trkpt lat="43.56328" lon="6.15855">
        <ele>449</ele>
        <time>2025-02-16T11:57:32Z</time>
      </trkpt>
      <trkpt lat="43.56328" lon="6.15849">
        <ele>448.8</ele>
        <time>2025-02-16T11:57:35.999Z</time>
      </trkpt>
      <trkpt lat="43.56327" lon="6.15842">
        <ele>448.5</ele>
        <time>2025-02-16T11:57:40Z</time>
      </trkpt>
      <trkpt lat="43.56326" lon="6.15835">
        <ele>448.3</ele>
        <time>2025-02-16T11:57:43.999Z</time>
      </trkpt>
      <trkpt lat="43.56326" lon="6.15828">
        <ele>448.1</ele>
        <time>2025-02-16T11:57:48Z</time>
      </trkpt>
      <trkpt lat="43.56324" lon="6.15822">
        <ele>447.9</ele>
        <time>2025-02-16T11:57:51.999Z</time>
      </trkpt>
      <trkpt lat="43.56322" lon="6.15816">
        <ele>447.8</ele>
        <time>2025-02-16T11:57:56Z</time>
      </trkpt>
      <trkpt lat="43.5632" lon="6.15811">
        <ele>447.7</ele>
        <time>2025-02-16T11:57:59.999Z</time>
      </trkpt>
      <trkpt lat="43.56317" lon="6.15805">
        <ele>447.6</ele>
        <time>2025-02-16T11:58:04Z</time>
      </trkpt>
      <trkpt lat="43.56314" lon="6.15799">
        <ele>447.3</ele>
        <time>2025-02-16T11:58:07.999Z</time>
      </trkpt>
      <trkpt lat="43.56312" lon="6.15793">
        <ele>447.1</ele>
        <time>2025-02-16T11:58:12Z</time>
      </trkpt>
      <trkpt lat="43.56311" lon="6.15787">
        <ele>446.9</ele>
        <time>2025-02-16T11:58:15.999Z</time>
      </trkpt>
      <trkpt lat="43.56309" lon="6.15781">
        <ele>446.7</ele>
        <time>2025-02-16T11:58:20Z</time>
      </trkpt>
      <trkpt lat="43.56309" lon="6.15774">
        <ele>446.5</ele>
        <time>2025-02-16T11:58:24.000Z</time>
      </trkpt>
      <trkpt lat="43.56309" lon="6.15768">
        <ele>446.4</ele>
        <time>2025-02-16T11:58:28Z</time>
      </trkpt>
      <trkpt lat="43.56308" lon="6.15761">
        <ele>446.3</ele>
        <time>2025-02-16T11:58:32.499Z</time>
      </trkpt>
      <trkpt lat="43.56307" lon="6.15754">
        <ele>446.1</ele>
        <time>2025-02-16T11:58:37Z</time>
      </trkpt>
      <trkpt lat="43.56306" lon="6.15747">
        <ele>445.8</ele>
        <time>2025-02-16T11:58:41.999Z</time>
      </trkpt>
      <trkpt lat="43.56305" lon="6.1574">
        <ele>445.3</ele>
        <time>2025-02-16T11:58:47Z</time>
      </trkpt>
      <trkpt lat="43.56302" lon="6.15735">
        <ele>444.6</ele>
        <time>2025-02-16T11:58:51.999Z</time>
      </trkpt>
      <trkpt lat="43.56299" lon="6.15729">
        <ele>444.1</ele>
        <time>2025-02-16T11:58:57Z</time>
      </trkpt>
      <trkpt lat="43.56296" lon="6.15724">
        <ele>443.7</ele>
        <time>2025-02-16T11:59:01.499Z</time>
      </trkpt>
      <trkpt lat="43.56293" lon="6.15718">
        <ele>443.2</ele>
        <time>2025-02-16T11:59:06Z</time>
      </trkpt>
      <trkpt lat="43.5629" lon="6.15713">
        <ele>442.7</ele>
        <time>2025-02-16T11:59:10.499Z</time>
      </trkpt>
      <trkpt lat="43.56287" lon="6.15707">
        <ele>442.3</ele>
        <time>2025-02-16T11:59:15Z</time>
      </trkpt>
      <trkpt lat="43.56283" lon="6.15702">
        <ele>442.1</ele>
        <time>2025-02-16T11:59:19.999Z</time>
      </trkpt>
      <trkpt lat="43.5628" lon="6.15697">
        <ele>442</ele>
        <time>2025-02-16T11:59:25Z</time>
      </trkpt>
      <trkpt lat="43.56275" lon="6.15695">
        <ele>442</ele>
        <time>2025-02-16T11:59:28.999Z</time>
      </trkpt>
      <trkpt lat="43.56271" lon="6.15693">
        <ele>442.1</ele>
        <time>2025-02-16T11:59:33Z</time>
      </trkpt>
      <trkpt lat="43.56266" lon="6.15692">
        <ele>442.1</ele>
        <time>2025-02-16T11:59:37.000Z</time>
      </trkpt>
      <trkpt lat="43.56261" lon="6.15691">
        <ele>442.1</ele>
        <time>2025-02-16T11:59:41Z</time>
      </trkpt>
      <trkpt lat="43.56257" lon="6.15688">
        <ele>442.2</ele>
        <time>2025-02-16T11:59:44.999Z</time>
      </trkpt>
      <trkpt lat="43.56252" lon="6.15685">
        <ele>442.3</ele>
        <time>2025-02-16T11:59:49Z</time>
      </trkpt>
      <trkpt lat="43.56247" lon="6.15683">
        <ele>442.2</ele>
        <time>2025-02-16T11:59:52.999Z</time>
      </trkpt>
      <trkpt lat="43.56243" lon="6.1568">
        <ele>441.9</ele>
        <time>2025-02-16T11:59:57Z</time>
      </trkpt>
      <trkpt lat="43.56238" lon="6.15678">
        <ele>441.6</ele>
        <time>2025-02-16T12:00:00.999Z</time>
      </trkpt>
      <trkpt lat="43.56234" lon="6.15675">
        <ele>441.3</ele>
        <time>2025-02-16T12:00:05Z</time>
      </trkpt>
      <trkpt lat="43.56228" lon="6.15675">
        <ele>440.9</ele>
        <time>2025-02-16T12:00:09.500Z</time>
      </trkpt>
      <trkpt lat="43.56222" lon="6.15674">
        <ele>440.5</ele>
        <time>2025-02-16T12:00:14Z</time>
      </trkpt>
      <trkpt lat="43.56217" lon="6.15673">
        <ele>440.5</ele>
        <time>2025-02-16T12:00:18.500Z</time>
      </trkpt>
      <trkpt lat="43.56212" lon="6.15672">
        <ele>440.5</ele>
        <time>2025-02-16T12:00:23Z</time>
      </trkpt>
      <trkpt lat="43.56207" lon="6.1567">
        <ele>440.7</ele>
        <time>2025-02-16T12:00:27.499Z</time>
      </trkpt>
      <trkpt lat="43.56203" lon="6.15667">
        <ele>440.9</ele>
        <time>2025-02-16T12:00:32Z</time>
      </trkpt>
      <trkpt lat="43.56199" lon="6.15662">
        <ele>441</ele>
        <time>2025-02-16T12:00:36.499Z</time>
      </trkpt>
      <trkpt lat="43.56196" lon="6.15657">
        <ele>441</ele>
        <time>2025-02-16T12:00:41Z</time>
      </trkpt>
      <trkpt lat="43.56197" lon="6.15648">
        <ele>441</ele>
        <time>2025-02-16T12:00:48.500Z</time>
      </trkpt>
      <trkpt lat="43.56198" lon="6.15639">
        <ele>441</ele>
        <time>2025-02-16T12:00:56Z</time>
      </trkpt>
      <trkpt lat="43.56203" lon="6.15634">
        <ele>440.8</ele>
        <time>2025-02-16T12:01:03.000Z</time>
      </trkpt>
      <trkpt lat="43.56209" lon="6.15629">
        <ele>440.2</ele>
        <time>2025-02-16T12:01:10Z</time>
      </trkpt>
      <trkpt lat="43.56214" lon="6.15625">
        <ele>439.6</ele>
        <time>2025-02-16T12:01:16.000Z</time>
      </trkpt>
      <trkpt lat="43.56219" lon="6.15621">
        <ele>438.7</ele>
        <time>2025-02-16T12:01:22Z</time>
      </trkpt>
      <trkpt lat="43.56223" lon="6.15616">
        <ele>437.6</ele>
        <time>2025-02-16T12:01:28.500Z</time>
      </trkpt>
      <trkpt lat="43.56227" lon="6.15611">
        <ele>436.6</ele>
        <time>2025-02-16T12:01:35Z</time>
      </trkpt>
      <trkpt lat="43.5623" lon="6.15603">
        <ele>435.7</ele>
        <time>2025-02-16T12:01:41.000Z</time>
      </trkpt>
      <trkpt lat="43.56232" lon="6.15596">
        <ele>434.5</ele>
        <time>2025-02-16T12:01:47Z</time>
      </trkpt>
      <trkpt lat="43.56237" lon="6.15591">
        <ele>433.4</ele>
        <time>2025-02-16T12:01:52.500Z</time>
      </trkpt>
      <trkpt lat="43.56242" lon="6.15587">
        <ele>432.1</ele>
        <time>2025-02-16T12:01:58Z</time>
      </trkpt>
      <trkpt lat="43.56247" lon="6.15583">
        <ele>430.6</ele>
        <time>2025-02-16T12:02:04.500Z</time>
      </trkpt>
      <trkpt lat="43.56252" lon="6.1558">
        <ele>429.5</ele>
        <time>2025-02-16T12:02:11Z</time>
      </trkpt>
      <trkpt lat="43.56258" lon="6.15578">
        <ele>428.4</ele>
        <time>2025-02-16T12:02:17.500Z</time>
      </trkpt>
      <trkpt lat="43.56263" lon="6.15576">
        <ele>427</ele>
        <time>2025-02-16T12:02:24Z</time>
      </trkpt>
      <trkpt lat="43.56269" lon="6.15574">
        <ele>425.6</ele>
        <time>2025-02-16T12:02:31.000Z</time>
      </trkpt>
      <trkpt lat="43.56274" lon="6.15572">
        <ele>424</ele>
        <time>2025-02-16T12:02:38Z</time>
      </trkpt>
      <trkpt lat="43.56279" lon="6.1557">
        <ele>422.3</ele>
        <time>2025-02-16T12:02:46.500Z</time>
      </trkpt>
      <trkpt lat="43.56284" lon="6.15567">
        <ele>421</ele>
        <time>2025-02-16T12:02:55Z</time>
      </trkpt>
      <trkpt lat="43.56287" lon="6.15561">
        <ele>418.9</ele>
        <time>2025-02-16T12:03:04.500Z</time>
      </trkpt>
      <trkpt lat="43.5629" lon="6.15555">
        <ele>417.1</ele>
        <time>2025-02-16T12:03:14Z</time>
      </trkpt>
      <trkpt lat="43.56294" lon="6.15547">
        <ele>415.8</ele>
        <time>2025-02-16T12:03:22.500Z</time>
      </trkpt>
      <trkpt lat="43.56297" lon="6.1554">
        <ele>414.6</ele>
        <time>2025-02-16T12:03:31Z</time>
      </trkpt>
      <trkpt lat="43.563" lon="6.15529">
        <ele>413</ele>
        <time>2025-02-16T12:03:46Z</time>
      </trkpt>
      <trkpt lat="43.56303" lon="6.1552">
        <ele>411.8</ele>
        <time>2025-02-16T12:04:05Z</time>
      </trkpt>
      <trkpt lat="43.56305" lon="6.15515">
        <ele>411.2</ele>
        <time>2025-02-16T12:04:23Z</time>
      </trkpt>
      <trkpt lat="43.5631" lon="6.15508">
        <ele>410.2</ele>
        <time>2025-02-16T12:04:42Z</time>
      </trkpt>
      <trkpt lat="43.56315" lon="6.15505">
        <ele>409.3</ele>
        <time>2025-02-16T12:04:51.500Z</time>
      </trkpt>
      <trkpt lat="43.56321" lon="6.15502">
        <ele>408.5</ele>
        <time>2025-02-16T12:05:01Z</time>
      </trkpt>
      <trkpt lat="43.56324" lon="6.15496">
        <ele>407.8</ele>
        <time>2025-02-16T12:05:11.500Z</time>
      </trkpt>
      <trkpt lat="43.56327" lon="6.15491">
        <ele>407.1</ele>
        <time>2025-02-16T12:05:22Z</time>
      </trkpt>
      <trkpt lat="43.56332" lon="6.15487">
        <ele>406.2</ele>
        <time>2025-02-16T12:05:29.500Z</time>
      </trkpt>
      <trkpt lat="43.56337" lon="6.15483">
        <ele>405.4</ele>
        <time>2025-02-16T12:05:37Z</time>
      </trkpt>
      <trkpt lat="43.56341" lon="6.15476">
        <ele>404.5</ele>
        <time>2025-02-16T12:05:42.500Z</time>
      </trkpt>
      <trkpt lat="43.56345" lon="6.1547">
        <ele>403.7</ele>
        <time>2025-02-16T12:05:48Z</time>
      </trkpt>
      <trkpt lat="43.56347" lon="6.15464">
        <ele>403.1</ele>
        <time>2025-02-16T12:05:53.500Z</time>
      </trkpt>
      <trkpt lat="43.56349" lon="6.15458">
        <ele>402.5</ele>
        <time>2025-02-16T12:05:59Z</time>
      </trkpt>
      <trkpt lat="43.56353" lon="6.15447">
        <ele>401.3</ele>
        <time>2025-02-16T12:06:09Z</time>
      </trkpt>
      <trkpt lat="43.56355" lon="6.15441">
        <ele>400.7</ele>
        <time>2025-02-16T12:06:14.500Z</time>
      </trkpt>
      <trkpt lat="43.56357" lon="6.15436">
        <ele>400.2</ele>
        <time>2025-02-16T12:06:20Z</time>
      </trkpt>
      <trkpt lat="43.56356" lon="6.15429">
        <ele>400.1</ele>
        <time>2025-02-16T12:06:25.499Z</time>
      </trkpt>
      <trkpt lat="43.56354" lon="6.15423">
        <ele>400</ele>
        <time>2025-02-16T12:06:31Z</time>
      </trkpt>
      <trkpt lat="43.56354" lon="6.15416">
        <ele>399.8</ele>
        <time>2025-02-16T12:06:35.999Z</time>
      </trkpt>
      <trkpt lat="43.56353" lon="6.15409">
        <ele>399.6</ele>
        <time>2025-02-16T12:06:41Z</time>
      </trkpt>
      <trkpt lat="43.56352" lon="6.15402">
        <ele>399.4</ele>
        <time>2025-02-16T12:06:46.499Z</time>
      </trkpt>
      <trkpt lat="43.56352" lon="6.15395">
        <ele>399.2</ele>
        <time>2025-02-16T12:06:52Z</time>
      </trkpt>
      <trkpt lat="43.56352" lon="6.15388">
        <ele>399</ele>
        <time>2025-02-16T12:06:57.500Z</time>
      </trkpt>
      <trkpt lat="43.56351" lon="6.15382">
        <ele>399.1</ele>
        <time>2025-02-16T12:07:03Z</time>
      </trkpt>
      <trkpt lat="43.56352" lon="6.15374">
        <ele>399</ele>
        <time>2025-02-16T12:07:08.500Z</time>
      </trkpt>
      <trkpt lat="43.56353" lon="6.15365">
        <ele>398.9</ele>
        <time>2025-02-16T12:07:14Z</time>
      </trkpt>
      <trkpt lat="43.56353" lon="6.15357">
        <ele>398.6</ele>
        <time>2025-02-16T12:07:20.000Z</time>
      </trkpt>
      <trkpt lat="43.56354" lon="6.15348">
        <ele>398.2</ele>
        <time>2025-02-16T12:07:26Z</time>
      </trkpt>
      <trkpt lat="43.56356" lon="6.1534">
        <ele>397.6</ele>
        <time>2025-02-16T12:07:31.500Z</time>
      </trkpt>
      <trkpt lat="43.56359" lon="6.15333">
        <ele>397.2</ele>
        <time>2025-02-16T12:07:37Z</time>
      </trkpt>
      <trkpt lat="43.5636" lon="6.15326">
        <ele>396.6</ele>
        <time>2025-02-16T12:07:41.500Z</time>
      </trkpt>
      <trkpt lat="43.56362" lon="6.15319">
        <ele>396</ele>
        <time>2025-02-16T12:07:46Z</time>
      </trkpt>
      <trkpt lat="43.56363" lon="6.15313">
        <ele>395.4</ele>
        <time>2025-02-16T12:07:50.500Z</time>
      </trkpt>
      <trkpt lat="43.56364" lon="6.15306">
        <ele>395</ele>
        <time>2025-02-16T12:07:55Z</time>
      </trkpt>
      <trkpt lat="43.56364" lon="6.15299">
        <ele>394.4</ele>
        <time>2025-02-16T12:07:59.000Z</time>
      </trkpt>
      <trkpt lat="43.56364" lon="6.15292">
        <ele>393.9</ele>
        <time>2025-02-16T12:08:03Z</time>
      </trkpt>
      <trkpt lat="43.56366" lon="6.15285">
        <ele>393.5</ele>
        <time>2025-02-16T12:08:07.500Z</time>
      </trkpt>
      <trkpt lat="43.56367" lon="6.15278">
        <ele>393</ele>
        <time>2025-02-16T12:08:12Z</time>
      </trkpt>
      <trkpt lat="43.56367" lon="6.15272">
        <ele>392.8</ele>
        <time>2025-02-16T12:08:17.000Z</time>
      </trkpt>
      <trkpt lat="43.56367" lon="6.15266">
        <ele>392.7</ele>
        <time>2025-02-16T12:08:22Z</time>
      </trkpt>
      <trkpt lat="43.56366" lon="6.15254">
        <ele>392.3</ele>
        <time>2025-02-16T12:08:31Z</time>
      </trkpt>
      <trkpt lat="43.56365" lon="6.15247">
        <ele>392.2</ele>
        <time>2025-02-16T12:08:35.999Z</time>
      </trkpt>
      <trkpt lat="43.56364" lon="6.1524">
        <ele>392.4</ele>
        <time>2025-02-16T12:08:41Z</time>
      </trkpt>
      <trkpt lat="43.56363" lon="6.15233">
        <ele>392.6</ele>
        <time>2025-02-16T12:08:45.499Z</time>
      </trkpt>
      <trkpt lat="43.56362" lon="6.15227">
        <ele>392.8</ele>
        <time>2025-02-16T12:08:50Z</time>
      </trkpt>
      <trkpt lat="43.56362" lon="6.1522">
        <ele>392.8</ele>
        <time>2025-02-16T12:08:55.500Z</time>
      </trkpt>
      <trkpt lat="43.56363" lon="6.15213">
        <ele>392.3</ele>
        <time>2025-02-16T12:09:01Z</time>
      </trkpt>
      <trkpt lat="43.56369" lon="6.15204">
        <ele>391.6</ele>
        <time>2025-02-16T12:09:30Z</time>
      </trkpt>
      <trkpt lat="43.56373" lon="6.15205">
        <ele>391.6</ele>
        <time>2025-02-16T12:09:34.000Z</time>
      </trkpt>
      <trkpt lat="43.56378" lon="6.15206">
        <ele>391.6</ele>
        <time>2025-02-16T12:09:38Z</time>
      </trkpt>
      <trkpt lat="43.56383" lon="6.15206">
        <ele>391.5</ele>
        <time>2025-02-16T12:09:42.000Z</time>
      </trkpt>
      <trkpt lat="43.56388" lon="6.15207">
        <ele>391.5</ele>
        <time>2025-02-16T12:09:46Z</time>
      </trkpt>
      <trkpt lat="43.56393" lon="6.15207">
        <ele>391.1</ele>
        <time>2025-02-16T12:09:50.000Z</time>
      </trkpt>
      <trkpt lat="43.56398" lon="6.15207">
        <ele>390.8</ele>
        <time>2025-02-16T12:09:54Z</time>
      </trkpt>
      <trkpt lat="43.56404" lon="6.15208">
        <ele>390.4</ele>
        <time>2025-02-16T12:09:58.000Z</time>
      </trkpt>
      <trkpt lat="43.56409" lon="6.15208">
        <ele>390.1</ele>
        <time>2025-02-16T12:10:02Z</time>
      </trkpt>
      <trkpt lat="43.56413" lon="6.15209">
        <ele>389.8</ele>
        <time>2025-02-16T12:10:06.000Z</time>
      </trkpt>
      <trkpt lat="43.56418" lon="6.15209">
        <ele>389.4</ele>
        <time>2025-02-16T12:10:10Z</time>
      </trkpt>
      <trkpt lat="43.56423" lon="6.1521">
        <ele>389.2</ele>
        <time>2025-02-16T12:10:14.000Z</time>
      </trkpt>
      <trkpt lat="43.56428" lon="6.1521">
        <ele>388.9</ele>
        <time>2025-02-16T12:10:18Z</time>
      </trkpt>
      <trkpt lat="43.56434" lon="6.1521">
        <ele>388.6</ele>
        <time>2025-02-16T12:10:22.000Z</time>
      </trkpt>
      <trkpt lat="43.56439" lon="6.1521">
        <ele>388.3</ele>
        <time>2025-02-16T12:10:26Z</time>
      </trkpt>
      <trkpt lat="43.56444" lon="6.1521">
        <ele>388</ele>
        <time>2025-02-16T12:10:30.000Z</time>
      </trkpt>
      <trkpt lat="43.56448" lon="6.15211">
        <ele>388.1</ele>
        <time>2025-02-16T12:10:34Z</time>
      </trkpt>
      <trkpt lat="43.56453" lon="6.15211">
        <ele>388.2</ele>
        <time>2025-02-16T12:10:38.000Z</time>
      </trkpt>
      <trkpt lat="43.56457" lon="6.15212">
        <ele>388.3</ele>
        <time>2025-02-16T12:10:42Z</time>
      </trkpt>
      <trkpt lat="43.56463" lon="6.15213">
        <ele>388.4</ele>
        <time>2025-02-16T12:10:46.000Z</time>
      </trkpt>
      <trkpt lat="43.56468" lon="6.15214">
        <ele>388.6</ele>
        <time>2025-02-16T12:10:50Z</time>
      </trkpt>
      <trkpt lat="43.56472" lon="6.15215">
        <ele>388.7</ele>
        <time>2025-02-16T12:10:54.000Z</time>
      </trkpt>
      <trkpt lat="43.56477" lon="6.15217">
        <ele>389</ele>
        <time>2025-02-16T12:10:58Z</time>
      </trkpt>
      <trkpt lat="43.56481" lon="6.1522">
        <ele>389.3</ele>
        <time>2025-02-16T12:11:02.500Z</time>
      </trkpt>
      <trkpt lat="43.56485" lon="6.15223">
        <ele>389.5</ele>
        <time>2025-02-16T12:11:07Z</time>
      </trkpt>
      <trkpt lat="43.5649" lon="6.15227">
        <ele>389.6</ele>
        <time>2025-02-16T12:11:11.500Z</time>
      </trkpt>
      <trkpt lat="43.56494" lon="6.15231">
        <ele>389.6</ele>
        <time>2025-02-16T12:11:16Z</time>
      </trkpt>
      <trkpt lat="43.56498" lon="6.15235">
        <ele>389.5</ele>
        <time>2025-02-16T12:11:20.000Z</time>
      </trkpt>
      <trkpt lat="43.56501" lon="6.15239">
        <ele>389.4</ele>
        <time>2025-02-16T12:11:24Z</time>
      </trkpt>
      <trkpt lat="43.56504" lon="6.15244">
        <ele>389.3</ele>
        <time>2025-02-16T12:11:28.000Z</time>
      </trkpt>
      <trkpt lat="43.56508" lon="6.15249">
        <ele>389.3</ele>
        <time>2025-02-16T12:11:32Z</time>
      </trkpt>
      <trkpt lat="43.56513" lon="6.15258">
        <ele>389.6</ele>
        <time>2025-02-16T12:11:40Z</time>
      </trkpt>
      <trkpt lat="43.56516" lon="6.15264">
        <ele>389.9</ele>
        <time>2025-02-16T12:11:44.000Z</time>
      </trkpt>
      <trkpt lat="43.56519" lon="6.15269">
        <ele>390.2</ele>
        <time>2025-02-16T12:11:48Z</time>
      </trkpt>
      <trkpt lat="43.56522" lon="6.15275">
        <ele>390.5</ele>
        <time>2025-02-16T12:11:52.500Z</time>
      </trkpt>
      <trkpt lat="43.56525" lon="6.15281">
        <ele>390.7</ele>
        <time>2025-02-16T12:11:57Z</time>
      </trkpt>
      <trkpt lat="43.56528" lon="6.15286">
        <ele>390.7</ele>
        <time>2025-02-16T12:12:01.000Z</time>
      </trkpt>
      <trkpt lat="43.56531" lon="6.15292">
        <ele>390.6</ele>
        <time>2025-02-16T12:12:05Z</time>
      </trkpt>
      <trkpt lat="43.56533" lon="6.15298">
        <ele>390.5</ele>
        <time>2025-02-16T12:12:09.000Z</time>
      </trkpt>
      <trkpt lat="43.56535" lon="6.15304">
        <ele>390.6</ele>
        <time>2025-02-16T12:12:13Z</time>
      </trkpt>
      <trkpt lat="43.56538" lon="6.1531">
        <ele>390.9</ele>
        <time>2025-02-16T12:12:17.500Z</time>
      </trkpt>
      <trkpt lat="43.56541" lon="6.15316">
        <ele>391.3</ele>
        <time>2025-02-16T12:12:22Z</time>
      </trkpt>
      <trkpt lat="43.56544" lon="6.1532">
        <ele>391.6</ele>
        <time>2025-02-16T12:12:26.000Z</time>
      </trkpt>
      <trkpt lat="43.56548" lon="6.15325">
        <ele>391.8</ele>
        <time>2025-02-16T12:12:30Z</time>
      </trkpt>
      <trkpt lat="43.56551" lon="6.1533">
        <ele>392</ele>
        <time>2025-02-16T12:12:34.000Z</time>
      </trkpt>
      <trkpt lat="43.56554" lon="6.15335">
        <ele>392</ele>
        <time>2025-02-16T12:12:38Z</time>
      </trkpt>
      <trkpt lat="43.56558" lon="6.15339">
        <ele>392.2</ele>
        <time>2025-02-16T12:12:42.500Z</time>
      </trkpt>
      <trkpt lat="43.56563" lon="6.15343">
        <ele>392.4</ele>
        <time>2025-02-16T12:12:47Z</time>
      </trkpt>
      <trkpt lat="43.56567" lon="6.15349">
        <ele>392.6</ele>
        <time>2025-02-16T12:12:51.500Z</time>
      </trkpt>
      <trkpt lat="43.56571" lon="6.15355">
        <ele>392.8</ele>
        <time>2025-02-16T12:12:56Z</time>
      </trkpt>
      <trkpt lat="43.56575" lon="6.15364">
        <ele>393</ele>
        <time>2025-02-16T12:13:11Z</time>
      </trkpt>
      <trkpt lat="43.56579" lon="6.15367">
        <ele>393</ele>
        <time>2025-02-16T12:13:15.500Z</time>
      </trkpt>
      <trkpt lat="43.56583" lon="6.15371">
        <ele>393</ele>
        <time>2025-02-16T12:13:20Z</time>
      </trkpt>
      <trkpt lat="43.56588" lon="6.15374">
        <ele>393.1</ele>
        <time>2025-02-16T12:13:24.000Z</time>
      </trkpt>
      <trkpt lat="43.56592" lon="6.15377">
        <ele>393.2</ele>
        <time>2025-02-16T12:13:28Z</time>
      </trkpt>
      <trkpt lat="43.56596" lon="6.1538">
        <ele>393.3</ele>
        <time>2025-02-16T12:13:32.000Z</time>
      </trkpt>
      <trkpt lat="43.566" lon="6.15383">
        <ele>393.5</ele>
        <time>2025-02-16T12:13:36Z</time>
      </trkpt>
      <trkpt lat="43.56605" lon="6.15387">
        <ele>393.7</ele>
        <time>2025-02-16T12:13:40.000Z</time>
      </trkpt>
      <trkpt lat="43.56609" lon="6.15391">
        <ele>393.9</ele>
        <time>2025-02-16T12:13:44Z</time>
      </trkpt>
      <trkpt lat="43.56615" lon="6.15399">
        <ele>393.7</ele>
        <time>2025-02-16T12:13:52Z</time>
      </trkpt>
      <trkpt lat="43.5662" lon="6.15404">
        <ele>393.6</ele>
        <time>2025-02-16T12:13:56.500Z</time>
      </trkpt>
      <trkpt lat="43.56624" lon="6.15409">
        <ele>393.6</ele>
        <time>2025-02-16T12:14:01Z</time>
      </trkpt>
      <trkpt lat="43.56629" lon="6.15413">
        <ele>393.7</ele>
        <time>2025-02-16T12:14:05.000Z</time>
      </trkpt>
      <trkpt lat="43.56634" lon="6.15418">
        <ele>393.8</ele>
        <time>2025-02-16T12:14:09Z</time>
      </trkpt>
      <trkpt lat="43.56637" lon="6.15422">
        <ele>394</ele>
        <time>2025-02-16T12:14:13.000Z</time>
      </trkpt>
      <trkpt lat="43.5664" lon="6.15427">
        <ele>394</ele>
        <time>2025-02-16T12:14:17Z</time>
      </trkpt>
      <trkpt lat="43.56645" lon="6.15431">
        <ele>394.1</ele>
        <time>2025-02-16T12:14:21.000Z</time>
      </trkpt>
      <trkpt lat="43.56649" lon="6.15434">
        <ele>394.2</ele>
        <time>2025-02-16T12:14:25Z</time>
      </trkpt>
      <trkpt lat="43.56654" lon="6.15437">
        <ele>394.4</ele>
        <time>2025-02-16T12:14:29.500Z</time>
      </trkpt>
      <trkpt lat="43.5666" lon="6.1544">
        <ele>394.6</ele>
        <time>2025-02-16T12:14:34Z</time>
      </trkpt>
      <trkpt lat="43.56665" lon="6.15443">
        <ele>394.9</ele>
        <time>2025-02-16T12:14:39.000Z</time>
      </trkpt>
      <trkpt lat="43.56671" lon="6.15445">
        <ele>395</ele>
        <time>2025-02-16T12:14:44Z</time>
      </trkpt>
      <trkpt lat="43.56677" lon="6.15445">
        <ele>395</ele>
        <time>2025-02-16T12:14:50.000Z</time>
      </trkpt>
      <trkpt lat="43.56684" lon="6.15446">
        <ele>395</ele>
        <time>2025-02-16T12:14:56Z</time>
      </trkpt>
      <trkpt lat="43.56688" lon="6.15446">
        <ele>395</ele>
        <time>2025-02-16T12:15:00.000Z</time>
      </trkpt>
      <trkpt lat="43.56693" lon="6.15446">
        <ele>395</ele>
        <time>2025-02-16T12:15:04Z</time>
      </trkpt>
      <trkpt lat="43.56697" lon="6.15445">
        <ele>395.1</ele>
        <time>2025-02-16T12:15:08.000Z</time>
      </trkpt>
      <trkpt lat="43.56702" lon="6.15445">
        <ele>395.3</ele>
        <time>2025-02-16T12:15:12Z</time>
      </trkpt>
      <trkpt lat="43.56708" lon="6.15443">
        <ele>395.5</ele>
        <time>2025-02-16T12:15:16.500Z</time>
      </trkpt>
      <trkpt lat="43.56713" lon="6.15442">
        <ele>395.7</ele>
        <time>2025-02-16T12:15:21Z</time>
      </trkpt>
      <trkpt lat="43.56718" lon="6.15441">
        <ele>395.9</ele>
        <time>2025-02-16T12:15:25.000Z</time>
      </trkpt>
      <trkpt lat="43.56723" lon="6.15441">
        <ele>396</ele>
        <time>2025-02-16T12:15:29Z</time>
      </trkpt>
      <trkpt lat="43.56727" lon="6.15438">
        <ele>396.2</ele>
        <time>2025-02-16T12:15:33.000Z</time>
      </trkpt>
      <trkpt lat="43.56732" lon="6.15435">
        <ele>396.3</ele>
        <time>2025-02-16T12:15:37Z</time>
      </trkpt>
      <trkpt lat="43.56736" lon="6.15432">
        <ele>396.5</ele>
        <time>2025-02-16T12:15:42.500Z</time>
      </trkpt>
      <trkpt lat="43.56741" lon="6.15429">
        <ele>396.7</ele>
        <time>2025-02-16T12:15:48Z</time>
      </trkpt>
      <trkpt lat="43.56744" lon="6.15423">
        <ele>396.8</ele>
        <time>2025-02-16T12:15:55.000Z</time>
      </trkpt>
      <trkpt lat="43.56747" lon="6.15418">
        <ele>396.9</ele>
        <time>2025-02-16T12:16:02Z</time>
      </trkpt>
      <trkpt lat="43.56755" lon="6.15415">
        <ele>397.4</ele>
        <time>2025-02-16T12:16:12Z</time>
      </trkpt>
      <trkpt lat="43.5676" lon="6.15419">
        <ele>397.7</ele>
        <time>2025-02-16T12:16:16.500Z</time>
      </trkpt>
      <trkpt lat="43.56764" lon="6.15424">
        <ele>398</ele>
        <time>2025-02-16T12:16:21Z</time>
      </trkpt>
      <trkpt lat="43.56766" lon="6.1543">
        <ele>398.2</ele>
        <time>2025-02-16T12:16:26.000Z</time>
      </trkpt>
      <trkpt lat="43.56769" lon="6.15437">
        <ele>398.3</ele>
        <time>2025-02-16T12:16:31Z</time>
      </trkpt>
      <trkpt lat="43.56773" lon="6.15443">
        <ele>398.7</ele>
        <time>2025-02-16T12:16:35.500Z</time>
      </trkpt>
      <trkpt lat="43.56777" lon="6.15449">
        <ele>399</ele>
        <time>2025-02-16T12:16:40Z</time>
      </trkpt>
      <trkpt lat="43.56781" lon="6.15454">
        <ele>399.3</ele>
        <time>2025-02-16T12:16:45.500Z</time>
      </trkpt>
      <trkpt lat="43.56784" lon="6.15459">
        <ele>399.7</ele>
        <time>2025-02-16T12:16:51Z</time>
      </trkpt>
      <trkpt lat="43.56788" lon="6.15463">
        <ele>400.1</ele>
        <time>2025-02-16T12:16:55.000Z</time>
      </trkpt>
      <trkpt lat="43.56792" lon="6.15468">
        <ele>400.5</ele>
        <time>2025-02-16T12:16:59Z</time>
      </trkpt>
      <trkpt lat="43.56799" lon="6.15473">
        <ele>401.3</ele>
        <time>2025-02-16T12:17:11Z</time>
      </trkpt>
      <trkpt lat="43.56803" lon="6.15476">
        <ele>401.5</ele>
        <time>2025-02-16T12:17:15.500Z</time>
      </trkpt>
      <trkpt lat="43.56807" lon="6.1548">
        <ele>401.7</ele>
        <time>2025-02-16T12:17:20Z</time>
      </trkpt>
      <trkpt lat="43.56811" lon="6.15482">
        <ele>401.9</ele>
        <time>2025-02-16T12:17:25.500Z</time>
      </trkpt>
      <trkpt lat="43.56816" lon="6.15485">
        <ele>402.2</ele>
        <time>2025-02-16T12:17:31Z</time>
      </trkpt>
      <trkpt lat="43.56819" lon="6.15491">
        <ele>402.1</ele>
        <time>2025-02-16T12:17:37.000Z</time>
      </trkpt>
      <trkpt lat="43.56823" lon="6.15496">
        <ele>402.1</ele>
        <time>2025-02-16T12:17:43Z</time>
      </trkpt>
      <trkpt lat="43.56827" lon="6.15503">
        <ele>402.3</ele>
        <time>2025-02-16T12:17:50.500Z</time>
      </trkpt>
      <trkpt lat="43.56831" lon="6.1551">
        <ele>402.8</ele>
        <time>2025-02-16T12:17:58Z</time>
      </trkpt>
      <trkpt lat="43.56833" lon="6.15518">
        <ele>403</ele>
        <time>2025-02-16T12:19:17Z</time>
      </trkpt>
      <trkpt lat="43.56839" lon="6.15522">
        <ele>403.3</ele>
        <time>2025-02-16T12:19:31Z</time>
      </trkpt>
      <trkpt lat="43.56844" lon="6.15525">
        <ele>403.4</ele>
        <time>2025-02-16T12:19:37.000Z</time>
      </trkpt>
      <trkpt lat="43.56848" lon="6.15529">
        <ele>403.5</ele>
        <time>2025-02-16T12:19:43Z</time>
      </trkpt>
      <trkpt lat="43.56853" lon="6.15531">
        <ele>403.7</ele>
        <time>2025-02-16T12:19:49.500Z</time>
      </trkpt>
      <trkpt lat="43.56859" lon="6.15533">
        <ele>403.9</ele>
        <time>2025-02-16T12:19:56Z</time>
      </trkpt>
      <trkpt lat="43.56865" lon="6.15535">
        <ele>404.2</ele>
        <time>2025-02-16T12:20:04.000Z</time>
      </trkpt>
      <trkpt lat="43.56871" lon="6.15538">
        <ele>404.6</ele>
        <time>2025-02-16T12:20:12Z</time>
      </trkpt>
      <trkpt lat="43.56879" lon="6.15542">
        <ele>405</ele>
        <time>2025-02-16T12:20:18.500Z</time>
      </trkpt>
      <trkpt lat="43.56887" lon="6.15547">
        <ele>405.2</ele>
        <time>2025-02-16T12:20:25Z</time>
      </trkpt>
      <trkpt lat="43.56893" lon="6.15551">
        <ele>405.5</ele>
        <time>2025-02-16T12:20:30.500Z</time>
      </trkpt>
      <trkpt lat="43.569" lon="6.15554">
        <ele>405.8</ele>
        <time>2025-02-16T12:20:36Z</time>
      </trkpt>
      <trkpt lat="43.56904" lon="6.15556">
        <ele>406.1</ele>
        <time>2025-02-16T12:20:42.000Z</time>
      </trkpt>
      <trkpt lat="43.56909" lon="6.15558">
        <ele>406.4</ele>
        <time>2025-02-16T12:20:48Z</time>
      </trkpt>
      <trkpt lat="43.56916" lon="6.1556">
        <ele>406.8</ele>
        <time>2025-02-16T12:20:54.000Z</time>
      </trkpt>
      <trkpt lat="43.56922" lon="6.15562">
        <ele>407</ele>
        <time>2025-02-16T12:21:00Z</time>
      </trkpt>
      <trkpt lat="43.56929" lon="6.15566">
        <ele>407.2</ele>
        <time>2025-02-16T12:21:05.500Z</time>
      </trkpt>
      <trkpt lat="43.56935" lon="6.1557">
        <ele>407.5</ele>
        <time>2025-02-16T12:21:11Z</time>
      </trkpt>
      <trkpt lat="43.5694" lon="6.15572">
        <ele>407.8</ele>
        <time>2025-02-16T12:21:46Z</time>
      </trkpt>
      <trkpt lat="43.56946" lon="6.15574">
        <ele>408</ele>
        <time>2025-02-16T12:21:55.000Z</time>
      </trkpt>
      <trkpt lat="43.56951" lon="6.15577">
        <ele>407.9</ele>
        <time>2025-02-16T12:22:04Z</time>
      </trkpt>
      <trkpt lat="43.56959" lon="6.15572">
        <ele>407.9</ele>
        <time>2025-02-16T12:22:10.000Z</time>
      </trkpt>
      <trkpt lat="43.56967" lon="6.15568">
        <ele>408.1</ele>
        <time>2025-02-16T12:22:16Z</time>
      </trkpt>
      <trkpt lat="43.5697" lon="6.15562">
        <ele>408.5</ele>
        <time>2025-02-16T12:22:22.500Z</time>
      </trkpt>
      <trkpt lat="43.56974" lon="6.15555">
        <ele>409.1</ele>
        <time>2025-02-16T12:22:29Z</time>
      </trkpt>
      <trkpt lat="43.56978" lon="6.15548">
        <ele>409.7</ele>
        <time>2025-02-16T12:22:36.500Z</time>
      </trkpt>
      <trkpt lat="43.56981" lon="6.15541">
        <ele>410.4</ele>
        <time>2025-02-16T12:22:44Z</time>
      </trkpt>
      <trkpt lat="43.56986" lon="6.15533">
        <ele>411.1</ele>
        <time>2025-02-16T12:22:52.500Z</time>
      </trkpt>
      <trkpt lat="43.5699" lon="6.15526">
        <ele>411.8</ele>
        <time>2025-02-16T12:23:01Z</time>
      </trkpt>
      <trkpt lat="43.56995" lon="6.15519">
        <ele>412.7</ele>
        <time>2025-02-16T12:23:10.500Z</time>
      </trkpt>
      <trkpt lat="43.56999" lon="6.15513">
        <ele>413.6</ele>
        <time>2025-02-16T12:23:20Z</time>
      </trkpt>
      <trkpt lat="43.57003" lon="6.15505">
        <ele>414.7</ele>
        <time>2025-02-16T12:23:26.005Z</time>
      </trkpt>
      <trkpt lat="43.57007" lon="6.15497">
        <ele>415.6</ele>
        <time>2025-02-16T12:23:32.010Z</time>
      </trkpt>
      <trkpt lat="43.57012" lon="6.15499">
        <ele>415.9</ele>
        <time>2025-02-16T12:23:37Z</time>
      </trkpt>
      <trkpt lat="43.57018" lon="6.15501">
        <ele>416.2</ele>
        <time>2025-02-16T12:23:45.000Z</time>
      </trkpt>
      <trkpt lat="43.57024" lon="6.15503">
        <ele>416.4</ele>
        <time>2025-02-16T12:23:53Z</time>
      </trkpt>
      <trkpt lat="43.57031" lon="6.15507">
        <ele>416.5</ele>
        <time>2025-02-16T12:24:00.000Z</time>
      </trkpt>
      <trkpt lat="43.57037" lon="6.15511">
        <ele>416.9</ele>
        <time>2025-02-16T12:24:07Z</time>
      </trkpt>
      <trkpt lat="43.57044" lon="6.15514">
        <ele>417.3</ele>
        <time>2025-02-16T12:24:13.000Z</time>
      </trkpt>
      <trkpt lat="43.57051" lon="6.15517">
        <ele>417.7</ele>
        <time>2025-02-16T12:24:19Z</time>
      </trkpt>
      <trkpt lat="43.57058" lon="6.15519">
        <ele>417.8</ele>
        <time>2025-02-16T12:24:24.500Z</time>
      </trkpt>
      <trkpt lat="43.57065" lon="6.15522">
        <ele>417.2</ele>
        <time>2025-02-16T12:24:30Z</time>
      </trkpt>
      <trkpt lat="43.57071" lon="6.15522">
        <ele>416.9</ele>
        <time>2025-02-16T12:24:35.500Z</time>
      </trkpt>
      <trkpt lat="43.57077" lon="6.15523">
        <ele>416.5</ele>
        <time>2025-02-16T12:24:41Z</time>
      </trkpt>
      <trkpt lat="43.57083" lon="6.15521">
        <ele>416.7</ele>
        <time>2025-02-16T12:24:45.500Z</time>
      </trkpt>
      <trkpt lat="43.57088" lon="6.15519">
        <ele>417.1</ele>
        <time>2025-02-16T12:24:50Z</time>
      </trkpt>
      <trkpt lat="43.57093" lon="6.15518">
        <ele>417.3</ele>
        <time>2025-02-16T12:24:55.000Z</time>
      </trkpt>
      <trkpt lat="43.57098" lon="6.15517">
        <ele>417.4</ele>
        <time>2025-02-16T12:25:00Z</time>
      </trkpt>
      <trkpt lat="43.57104" lon="6.15518">
        <ele>417.3</ele>
        <time>2025-02-16T12:25:05.500Z</time>
      </trkpt>
      <trkpt lat="43.57109" lon="6.15518">
        <ele>417.1</ele>
        <time>2025-02-16T12:25:11Z</time>
      </trkpt>
      <trkpt lat="43.57116" lon="6.15521">
        <ele>416.8</ele>
        <time>2025-02-16T12:25:16.500Z</time>
      </trkpt>
      <trkpt lat="43.57122" lon="6.15523">
        <ele>416.7</ele>
        <time>2025-02-16T12:25:22Z</time>
      </trkpt>
      <trkpt lat="43.57128" lon="6.15527">
        <ele>416.4</ele>
        <time>2025-02-16T12:25:28.500Z</time>
      </trkpt>
      <trkpt lat="43.57135" lon="6.15531">
        <ele>416</ele>
        <time>2025-02-16T12:25:35Z</time>
      </trkpt>
      <trkpt lat="43.57142" lon="6.15532">
        <ele>415.7</ele>
        <time>2025-02-16T12:25:40.500Z</time>
      </trkpt>
      <trkpt lat="43.5715" lon="6.15533">
        <ele>414.7</ele>
        <time>2025-02-16T12:25:46Z</time>
      </trkpt>
      <trkpt lat="43.57156" lon="6.1553">
        <ele>414.3</ele>
        <time>2025-02-16T12:25:51.000Z</time>
      </trkpt>
      <trkpt lat="43.57163" lon="6.15526">
        <ele>413.7</ele>
        <time>2025-02-16T12:25:56Z</time>
      </trkpt>
      <trkpt lat="43.57167" lon="6.15522">
        <ele>413.4</ele>
        <time>2025-02-16T12:26:00.500Z</time>
      </trkpt>
      <trkpt lat="43.57172" lon="6.15517">
        <ele>413.5</ele>
        <time>2025-02-16T12:26:05Z</time>
      </trkpt>
      <trkpt lat="43.57176" lon="6.15513">
        <ele>413.5</ele>
        <time>2025-02-16T12:26:09.000Z</time>
      </trkpt>
      <trkpt lat="43.57181" lon="6.1551">
        <ele>413.5</ele>
        <time>2025-02-16T12:26:13Z</time>
      </trkpt>
      <trkpt lat="43.57185" lon="6.15507">
        <ele>413.3</ele>
        <time>2025-02-16T12:26:17.000Z</time>
      </trkpt>
      <trkpt lat="43.57189" lon="6.15505">
        <ele>413.2</ele>
        <time>2025-02-16T12:26:21Z</time>
      </trkpt>
      <trkpt lat="43.57194" lon="6.15503">
        <ele>412.9</ele>
        <time>2025-02-16T12:26:26.000Z</time>
      </trkpt>
      <trkpt lat="43.57199" lon="6.15501">
        <ele>413</ele>
        <time>2025-02-16T12:26:31Z</time>
      </trkpt>
      <trkpt lat="43.57205" lon="6.15501">
        <ele>413</ele>
        <time>2025-02-16T12:26:36.000Z</time>
      </trkpt>
      <trkpt lat="43.57211" lon="6.15501">
        <ele>413</ele>
        <time>2025-02-16T12:26:41Z</time>
      </trkpt>
      <trkpt lat="43.57217" lon="6.15501">
        <ele>412.9</ele>
        <time>2025-02-16T12:26:46.000Z</time>
      </trkpt>
      <trkpt lat="43.57222" lon="6.15502">
        <ele>412.9</ele>
        <time>2025-02-16T12:26:51Z</time>
      </trkpt>
      <trkpt lat="43.57229" lon="6.15503">
        <ele>412.9</ele>
        <time>2025-02-16T12:26:56.500Z</time>
      </trkpt>
      <trkpt lat="43.57235" lon="6.15504">
        <ele>412.9</ele>
        <time>2025-02-16T12:27:02Z</time>
      </trkpt>
      <trkpt lat="43.57244" lon="6.15506">
        <ele>412.8</ele>
        <time>2025-02-16T12:27:14Z</time>
      </trkpt>
      <trkpt lat="43.57251" lon="6.15509">
        <ele>412.7</ele>
        <time>2025-02-16T12:27:22.000Z</time>
      </trkpt>
      <trkpt lat="43.57258" lon="6.15513">
        <ele>412.7</ele>
        <time>2025-02-16T12:27:30Z</time>
      </trkpt>
      <trkpt lat="43.57262" lon="6.15516">
        <ele>412.7</ele>
        <time>2025-02-16T12:27:33.250Z</time>
      </trkpt>
      <trkpt lat="43.57266" lon="6.15519">
        <ele>412.7</ele>
        <time>2025-02-16T12:27:36.500Z</time>
      </trkpt>
      <trkpt lat="43.5727" lon="6.15522">
        <ele>412.8</ele>
        <time>2025-02-16T12:27:39.750Z</time>
      </trkpt>
      <trkpt lat="43.57274" lon="6.15525">
        <ele>412.9</ele>
        <time>2025-02-16T12:27:43Z</time>
      </trkpt>
      <trkpt lat="43.57281" lon="6.15531">
        <ele>413</ele>
        <time>2025-02-16T12:27:50.000Z</time>
      </trkpt>
      <trkpt lat="43.57289" lon="6.15538">
        <ele>413.1</ele>
        <time>2025-02-16T12:27:57Z</time>
      </trkpt>
      <trkpt lat="43.57292" lon="6.15541">
        <ele>413.3</ele>
        <time>2025-02-16T12:28:00.000Z</time>
      </trkpt>
      <trkpt lat="43.57296" lon="6.15545">
        <ele>413.4</ele>
        <time>2025-02-16T12:28:03.000Z</time>
      </trkpt>
      <trkpt lat="43.573" lon="6.15548">
        <ele>413.6</ele>
        <time>2025-02-16T12:28:06.000Z</time>
      </trkpt>
      <trkpt lat="43.57304" lon="6.15552">
        <ele>413.8</ele>
        <time>2025-02-16T12:28:09Z</time>
      </trkpt>
      <trkpt lat="43.5731" lon="6.15556">
        <ele>414</ele>
        <time>2025-02-16T12:28:15.500Z</time>
      </trkpt>
      <trkpt lat="43.57316" lon="6.15561">
        <ele>414.2</ele>
        <time>2025-02-16T12:28:22Z</time>
      </trkpt>
      <trkpt lat="43.57322" lon="6.15566">
        <ele>414.4</ele>
        <time>2025-02-16T12:28:28.000Z</time>
      </trkpt>
      <trkpt lat="43.57327" lon="6.15571">
        <ele>414.6</ele>
        <time>2025-02-16T12:28:34Z</time>
      </trkpt>
      <trkpt lat="43.57333" lon="6.15575">
        <ele>414.7</ele>
        <time>2025-02-16T12:28:40.500Z</time>
      </trkpt>
      <trkpt lat="43.57339" lon="6.1558">
        <ele>414.9</ele>
        <time>2025-02-16T12:28:47Z</time>
      </trkpt>
      <trkpt lat="43.57346" lon="6.15585">
        <ele>415</ele>
        <time>2025-02-16T12:28:54.000Z</time>
      </trkpt>
      <trkpt lat="43.57353" lon="6.15591">
        <ele>415.1</ele>
        <time>2025-02-16T12:29:01Z</time>
      </trkpt>
      <trkpt lat="43.5736" lon="6.15597">
        <ele>415</ele>
        <time>2025-02-16T12:29:07.500Z</time>
      </trkpt>
      <trkpt lat="43.57366" lon="6.15602">
        <ele>415.1</ele>
        <time>2025-02-16T12:29:14Z</time>
      </trkpt>
      <trkpt lat="43.57372" lon="6.15609">
        <ele>415.4</ele>
        <time>2025-02-16T12:29:21.500Z</time>
      </trkpt>
      <trkpt lat="43.57378" lon="6.15616">
        <ele>415.7</ele>
        <time>2025-02-16T12:29:29Z</time>
      </trkpt>
      <trkpt lat="43.57385" lon="6.15621">
        <ele>415.9</ele>
        <time>2025-02-16T12:29:37.000Z</time>
      </trkpt>
      <trkpt lat="43.57392" lon="6.15626">
        <ele>416</ele>
        <time>2025-02-16T12:29:45Z</time>
      </trkpt>
      <trkpt lat="43.574" lon="6.1563">
        <ele>416</ele>
        <time>2025-02-16T12:29:51.000Z</time>
      </trkpt>
      <trkpt lat="43.57408" lon="6.15634">
        <ele>416</ele>
        <time>2025-02-16T12:29:57Z</time>
      </trkpt>
      <trkpt lat="43.57413" lon="6.15635">
        <ele>416</ele>
        <time>2025-02-16T12:30:00.000Z</time>
      </trkpt>
      <trkpt lat="43.57417" lon="6.15637">
        <ele>416</ele>
        <time>2025-02-16T12:30:03.000Z</time>
      </trkpt>
      <trkpt lat="43.57421" lon="6.15639">
        <ele>416.2</ele>
        <time>2025-02-16T12:30:06.000Z</time>
      </trkpt>
      <trkpt lat="43.57426" lon="6.15641">
        <ele>416.4</ele>
        <time>2025-02-16T12:30:09Z</time>
      </trkpt>
      <trkpt lat="43.5743" lon="6.15644">
        <ele>416.6</ele>
        <time>2025-02-16T12:30:14.000Z</time>
      </trkpt>
      <trkpt lat="43.57434" lon="6.15648">
        <ele>416.7</ele>
        <time>2025-02-16T12:30:19Z</time>
      </trkpt>
      <trkpt lat="43.5744" lon="6.15652">
        <ele>416.9</ele>
        <time>2025-02-16T12:30:26.000Z</time>
      </trkpt>
      <trkpt lat="43.57445" lon="6.15657">
        <ele>417</ele>
        <time>2025-02-16T12:30:33Z</time>
      </trkpt>
      <trkpt lat="43.57451" lon="6.15662">
        <ele>417.3</ele>
        <time>2025-02-16T12:30:40.500Z</time>
      </trkpt>
      <trkpt lat="43.57458" lon="6.15667">
        <ele>417.5</ele>
        <time>2025-02-16T12:30:48Z</time>
      </trkpt>
      <trkpt lat="43.57465" lon="6.15673">
        <ele>417.9</ele>
        <time>2025-02-16T12:30:53.000Z</time>
      </trkpt>
      <trkpt lat="43.57472" lon="6.15679">
        <ele>418</ele>
        <time>2025-02-16T12:30:58Z</time>
      </trkpt>
      <trkpt lat="43.57477" lon="6.15682">
        <ele>418.1</ele>
        <time>2025-02-16T12:31:02.500Z</time>
      </trkpt>
      <trkpt lat="43.57481" lon="6.15685">
        <ele>418.2</ele>
        <time>2025-02-16T12:31:07Z</time>
      </trkpt>
      <trkpt lat="43.57487" lon="6.15689">
        <ele>418.2</ele>
        <time>2025-02-16T12:31:12.000Z</time>
      </trkpt>
      <trkpt lat="43.57493" lon="6.15693">
        <ele>418.1</ele>
        <time>2025-02-16T12:31:17Z</time>
      </trkpt>
      <trkpt lat="43.575" lon="6.15698">
        <ele>417.9</ele>
        <time>2025-02-16T12:31:27Z</time>
      </trkpt>
      <trkpt lat="43.57508" lon="6.15704">
        <ele>418.1</ele>
        <time>2025-02-16T12:31:34.000Z</time>
      </trkpt>
      <trkpt lat="43.57515" lon="6.15709">
        <ele>418.3</ele>
        <time>2025-02-16T12:31:41Z</time>
      </trkpt>
      <trkpt lat="43.57522" lon="6.15714">
        <ele>418.3</ele>
        <time>2025-02-16T12:31:48.000Z</time>
      </trkpt>
      <trkpt lat="43.57528" lon="6.15719">
        <ele>418.3</ele>
        <time>2025-02-16T12:31:55Z</time>
      </trkpt>
      <trkpt lat="43.57534" lon="6.15725">
        <ele>418.5</ele>
        <time>2025-02-16T12:32:03.000Z</time>
      </trkpt>
      <trkpt lat="43.57539" lon="6.15731">
        <ele>418.7</ele>
        <time>2025-02-16T12:32:11Z</time>
      </trkpt>
      <trkpt lat="43.57548" lon="6.15736">
        <ele>419</ele>
        <time>2025-02-16T12:32:20.000Z</time>
      </trkpt>
      <trkpt lat="43.57556" lon="6.15741">
        <ele>419</ele>
        <time>2025-02-16T12:32:29Z</time>
      </trkpt>
      <trkpt lat="43.57561" lon="6.15744">
        <ele>419.2</ele>
        <time>2025-02-16T12:32:36.500Z</time>
      </trkpt>
      <trkpt lat="43.57566" lon="6.15747">
        <ele>419.2</ele>
        <time>2025-02-16T12:32:44Z</time>
      </trkpt>
      <trkpt lat="43.57573" lon="6.15746">
        <ele>419.9</ele>
        <time>2025-02-16T12:32:51.000Z</time>
      </trkpt>
      <trkpt lat="43.57581" lon="6.15746">
        <ele>420.6</ele>
        <time>2025-02-16T12:32:58Z</time>
      </trkpt>
      <trkpt lat="43.57589" lon="6.15749">
        <ele>420.2</ele>
        <time>2025-02-16T12:33:02.528Z</time>
      </trkpt>
      <trkpt lat="43.57596" lon="6.1575">
        <ele>420</ele>
        <time>2025-02-16T12:33:06.264Z</time>
      </trkpt>
      <trkpt lat="43.57603" lon="6.15751">
        <ele>420</ele>
        <time>2025-02-16T12:33:10Z</time>
      </trkpt>
      <trkpt lat="43.57609" lon="6.15749">
        <ele>420.1</ele>
        <time>2025-02-16T12:33:15.500Z</time>
      </trkpt>
      <trkpt lat="43.57615" lon="6.15748">
        <ele>420.6</ele>
        <time>2025-02-16T12:33:21Z</time>
      </trkpt>
      <trkpt lat="43.57619" lon="6.15749">
        <ele>421</ele>
        <time>2025-02-16T12:34:55Z</time>
      </trkpt>
      <trkpt lat="43.57625" lon="6.15744">
        <ele>422</ele>
        <time>2025-02-16T12:35:02.000Z</time>
      </trkpt>
      <trkpt lat="43.5763" lon="6.15739">
        <ele>422.9</ele>
        <time>2025-02-16T12:35:09Z</time>
      </trkpt>
      <trkpt lat="43.57636" lon="6.15733">
        <ele>423.5</ele>
        <time>2025-02-16T12:35:16.500Z</time>
      </trkpt>
      <trkpt lat="43.57641" lon="6.15728">
        <ele>424</ele>
        <time>2025-02-16T12:35:24Z</time>
      </trkpt>
      <trkpt lat="43.57646" lon="6.15723">
        <ele>424.7</ele>
        <time>2025-02-16T12:35:32.000Z</time>
      </trkpt>
      <trkpt lat="43.57651" lon="6.15718">
        <ele>425.8</ele>
        <time>2025-02-16T12:35:40Z</time>
      </trkpt>
      <trkpt lat="43.57657" lon="6.15714">
        <ele>426.6</ele>
        <time>2025-02-16T12:35:46.000Z</time>
      </trkpt>
      <trkpt lat="43.57663" lon="6.1571">
        <ele>427.2</ele>
        <time>2025-02-16T12:35:52Z</time>
      </trkpt>
      <trkpt lat="43.57668" lon="6.15706">
        <ele>427.8</ele>
        <time>2025-02-16T12:35:59.000Z</time>
      </trkpt>
      <trkpt lat="43.57673" lon="6.15703">
        <ele>428.5</ele>
        <time>2025-02-16T12:36:06Z</time>
      </trkpt>
      <trkpt lat="43.57679" lon="6.15701">
        <ele>429.3</ele>
        <time>2025-02-16T12:36:14.500Z</time>
      </trkpt>
      <trkpt lat="43.57685" lon="6.15699">
        <ele>430</ele>
        <time>2025-02-16T12:36:23Z</time>
      </trkpt>
      <trkpt lat="43.57691" lon="6.15696">
        <ele>430.6</ele>
        <time>2025-02-16T12:36:30.500Z</time>
      </trkpt>
      <trkpt lat="43.57696" lon="6.15693">
        <ele>431.7</ele>
        <time>2025-02-16T12:36:38Z</time>
      </trkpt>
      <trkpt lat="43.57702" lon="6.15693">
        <ele>432.8</ele>
        <time>2025-02-16T12:36:59Z</time>
      </trkpt>
      <trkpt lat="43.57706" lon="6.15688">
        <ele>434.2</ele>
        <time>2025-02-16T12:37:24Z</time>
      </trkpt>
      <trkpt lat="43.5771" lon="6.15686">
        <ele>434.9</ele>
        <time>2025-02-16T12:38:07Z</time>
      </trkpt>
      <trkpt lat="43.57713" lon="6.15678">
        <ele>435.6</ele>
        <time>2025-02-16T12:38:15.500Z</time>
      </trkpt>
      <trkpt lat="43.57715" lon="6.15671">
        <ele>435.9</ele>
        <time>2025-02-16T12:38:24Z</time>
      </trkpt>
      <trkpt lat="43.57721" lon="6.15667">
        <ele>436</ele>
        <time>2025-02-16T12:38:31.500Z</time>
      </trkpt>
      <trkpt lat="43.57727" lon="6.15663">
        <ele>437</ele>
        <time>2025-02-16T12:38:39Z</time>
      </trkpt>
      <trkpt lat="43.57733" lon="6.15661">
        <ele>438</ele>
        <time>2025-02-16T12:38:47.000Z</time>
      </trkpt>
      <trkpt lat="43.57738" lon="6.1566">
        <ele>439</ele>
        <time>2025-02-16T12:38:55Z</time>
      </trkpt>
      <trkpt lat="43.57743" lon="6.15659">
        <ele>439.8</ele>
        <time>2025-02-16T12:39:01.500Z</time>
      </trkpt>
      <trkpt lat="43.57748" lon="6.15659">
        <ele>440.6</ele>
        <time>2025-02-16T12:39:08Z</time>
      </trkpt>
      <trkpt lat="43.57754" lon="6.15657">
        <ele>441.7</ele>
        <time>2025-02-16T12:39:15.500Z</time>
      </trkpt>
      <trkpt lat="43.5776" lon="6.15655">
        <ele>442.8</ele>
        <time>2025-02-16T12:39:23Z</time>
      </trkpt>
      <trkpt lat="43.57764" lon="6.15651">
        <ele>443.6</ele>
        <time>2025-02-16T12:39:30.000Z</time>
      </trkpt>
      <trkpt lat="43.57769" lon="6.15646">
        <ele>444.3</ele>
        <time>2025-02-16T12:39:37Z</time>
      </trkpt>
      <trkpt lat="43.57776" lon="6.15639">
        <ele>444.8</ele>
        <time>2025-02-16T12:39:50Z</time>
      </trkpt>
      <trkpt lat="43.5778" lon="6.15634">
        <ele>445.9</ele>
        <time>2025-02-16T12:39:57.000Z</time>
      </trkpt>
      <trkpt lat="43.57784" lon="6.15628">
        <ele>447.1</ele>
        <time>2025-02-16T12:40:04Z</time>
      </trkpt>
      <trkpt lat="43.57785" lon="6.1562">
        <ele>447.9</ele>
        <time>2025-02-16T12:40:11.500Z</time>
      </trkpt>
      <trkpt lat="43.57787" lon="6.15612">
        <ele>448.6</ele>
        <time>2025-02-16T12:40:19Z</time>
      </trkpt>
      <trkpt lat="43.57788" lon="6.15604">
        <ele>449.4</ele>
        <time>2025-02-16T12:40:28.500Z</time>
      </trkpt>
      <trkpt lat="43.57789" lon="6.15595">
        <ele>450.1</ele>
        <time>2025-02-16T12:40:38Z</time>
      </trkpt>
      <trkpt lat="43.57791" lon="6.15587">
        <ele>450.7</ele>
        <time>2025-02-16T12:40:46.500Z</time>
      </trkpt>
      <trkpt lat="43.57793" lon="6.15579">
        <ele>451.4</ele>
        <time>2025-02-16T12:40:55Z</time>
      </trkpt>
      <trkpt lat="43.57793" lon="6.15571">
        <ele>452.2</ele>
        <time>2025-02-16T12:41:04.000Z</time>
      </trkpt>
      <trkpt lat="43.57794" lon="6.15562">
        <ele>453</ele>
        <time>2025-02-16T12:41:13Z</time>
      </trkpt>
      <trkpt lat="43.57794" lon="6.15553">
        <ele>453.8</ele>
        <time>2025-02-16T12:41:20.500Z</time>
      </trkpt>
      <trkpt lat="43.57795" lon="6.15543">
        <ele>454.5</ele>
        <time>2025-02-16T12:41:28Z</time>
      </trkpt>
      <trkpt lat="43.57797" lon="6.15535">
        <ele>455.2</ele>
        <time>2025-02-16T12:41:36.000Z</time>
      </trkpt>
      <trkpt lat="43.57799" lon="6.15526">
        <ele>455.8</ele>
        <time>2025-02-16T12:41:44Z</time>
      </trkpt>
      <trkpt lat="43.578" lon="6.15515">
        <ele>456.7</ele>
        <time>2025-02-16T12:41:50.000Z</time>
      </trkpt>
      <trkpt lat="43.57802" lon="6.15503">
        <ele>457.5</ele>
        <time>2025-02-16T12:41:56Z</time>
      </trkpt>
      <trkpt lat="43.57807" lon="6.15493">
        <ele>458</ele>
        <time>2025-02-16T12:42:06Z</time>
      </trkpt>
      <trkpt lat="43.5781" lon="6.15488">
        <ele>458.1</ele>
        <time>2025-02-16T12:42:12.000Z</time>
      </trkpt>
      <trkpt lat="43.57813" lon="6.15484">
        <ele>458.2</ele>
        <time>2025-02-16T12:42:18Z</time>
      </trkpt>
      <trkpt lat="43.57817" lon="6.15475">
        <ele>458.4</ele>
        <time>2025-02-16T12:42:26.000Z</time>
      </trkpt>
      <trkpt lat="43.57822" lon="6.15467">
        <ele>458.7</ele>
        <time>2025-02-16T12:42:34Z</time>
      </trkpt>
      <trkpt lat="43.57826" lon="6.15457">
        <ele>458.9</ele>
        <time>2025-02-16T12:42:41.000Z</time>
      </trkpt>
      <trkpt lat="43.5783" lon="6.15447">
        <ele>459</ele>
        <time>2025-02-16T12:42:48Z</time>
      </trkpt>
      <trkpt lat="43.57834" lon="6.15439">
        <ele>459</ele>
        <time>2025-02-16T12:42:54.000Z</time>
      </trkpt>
      <trkpt lat="43.57838" lon="6.15431">
        <ele>458.8</ele>
        <time>2025-02-16T12:43:00Z</time>
      </trkpt>
      <trkpt lat="43.5784" lon="6.15423">
        <ele>458.8</ele>
        <time>2025-02-16T12:43:07.000Z</time>
      </trkpt>
      <trkpt lat="43.57841" lon="6.15415">
        <ele>458.8</ele>
        <time>2025-02-16T12:43:14Z</time>
      </trkpt>
      <trkpt lat="43.57843" lon="6.15403">
        <ele>459</ele>
        <time>2025-02-16T12:43:21.500Z</time>
      </trkpt>
      <trkpt lat="43.57845" lon="6.15392">
        <ele>459.1</ele>
        <time>2025-02-16T12:43:29Z</time>
      </trkpt>
      <trkpt lat="43.57846" lon="6.15383">
        <ele>459.2</ele>
        <time>2025-02-16T12:43:35.500Z</time>
      </trkpt>
      <trkpt lat="43.57846" lon="6.15375">
        <ele>459.3</ele>
        <time>2025-02-16T12:43:42Z</time>
      </trkpt>
      <trkpt lat="43.57845" lon="6.15364">
        <ele>459.6</ele>
        <time>2025-02-16T12:43:48.999Z</time>
      </trkpt>
      <trkpt lat="43.57844" lon="6.15353">
        <ele>459.5</ele>
        <time>2025-02-16T12:43:56Z</time>
      </trkpt>
      <trkpt lat="43.57845" lon="6.15341">
        <ele>459.3</ele>
        <time>2025-02-16T12:44:01.500Z</time>
      </trkpt>
      <trkpt lat="43.57846" lon="6.1533">
        <ele>459</ele>
        <time>2025-02-16T12:44:07Z</time>
      </trkpt>
      <trkpt lat="43.57849" lon="6.15323">
        <ele>458.7</ele>
        <time>2025-02-16T12:44:12.000Z</time>
      </trkpt>
      <trkpt lat="43.57852" lon="6.15316">
        <ele>458.5</ele>
        <time>2025-02-16T12:44:17Z</time>
      </trkpt>
      <trkpt lat="43.57854" lon="6.15309">
        <ele>458.3</ele>
        <time>2025-02-16T12:44:22.500Z</time>
      </trkpt>
      <trkpt lat="43.57855" lon="6.15302">
        <ele>458.2</ele>
        <time>2025-02-16T12:44:28Z</time>
      </trkpt>
      <trkpt lat="43.57858" lon="6.15292">
        <ele>458.1</ele>
        <time>2025-02-16T12:44:34.500Z</time>
      </trkpt>
      <trkpt lat="43.5786" lon="6.15283">
        <ele>458</ele>
        <time>2025-02-16T12:44:41Z</time>
      </trkpt>
      <trkpt lat="43.57862" lon="6.15277">
        <ele>457.9</ele>
        <time>2025-02-16T12:44:43.694Z</time>
      </trkpt>
      <trkpt lat="43.57863" lon="6.15271">
        <ele>457.8</ele>
        <time>2025-02-16T12:44:46.389Z</time>
      </trkpt>
      <trkpt lat="43.57867" lon="6.15266">
        <ele>457.3</ele>
        <time>2025-02-16T12:44:49.694Z</time>
      </trkpt>
      <trkpt lat="43.57872" lon="6.15262">
        <ele>456.8</ele>
        <time>2025-02-16T12:44:53Z</time>
      </trkpt>
      <trkpt lat="43.57878" lon="6.15261">
        <ele>456.1</ele>
        <time>2025-02-16T12:45:11Z</time>
      </trkpt>
      <trkpt lat="43.57879" lon="6.15267">
        <ele>456</ele>
        <time>2025-02-16T12:45:15.500Z</time>
      </trkpt>
      <trkpt lat="43.5788" lon="6.15274">
        <ele>455.9</ele>
        <time>2025-02-16T12:45:20Z</time>
      </trkpt>
      <trkpt lat="43.57882" lon="6.15284">
        <ele>456</ele>
        <time>2025-02-16T12:45:25.000Z</time>
      </trkpt>
      <trkpt lat="43.57883" lon="6.15294">
        <ele>456.1</ele>
        <time>2025-02-16T12:45:30Z</time>
      </trkpt>
      <trkpt lat="43.57884" lon="6.15306">
        <ele>456.3</ele>
        <time>2025-02-16T12:45:40Z</time>
      </trkpt>
      <trkpt lat="43.57885" lon="6.15315">
        <ele>456.3</ele>
        <time>2025-02-16T12:45:46.500Z</time>
      </trkpt>
      <trkpt lat="43.57886" lon="6.15324">
        <ele>456.2</ele>
        <time>2025-02-16T12:45:53Z</time>
      </trkpt>
      <trkpt lat="43.57887" lon="6.15334">
        <ele>456.1</ele>
        <time>2025-02-16T12:46:00.000Z</time>
      </trkpt>
      <trkpt lat="43.57888" lon="6.15344">
        <ele>456.1</ele>
        <time>2025-02-16T12:46:07Z</time>
      </trkpt>
      <trkpt lat="43.57887" lon="6.15355">
        <ele>456.2</ele>
        <time>2025-02-16T12:46:13.499Z</time>
      </trkpt>
      <trkpt lat="43.57886" lon="6.15365">
        <ele>456.2</ele>
        <time>2025-02-16T12:46:20Z</time>
      </trkpt>
      <trkpt lat="43.57886" lon="6.15374">
        <ele>455.9</ele>
        <time>2025-02-16T12:46:26.500Z</time>
      </trkpt>
      <trkpt lat="43.57886" lon="6.15383">
        <ele>455.6</ele>
        <time>2025-02-16T12:46:33Z</time>
      </trkpt>
      <trkpt lat="43.57884" lon="6.15393">
        <ele>455.4</ele>
        <time>2025-02-16T12:46:38.999Z</time>
      </trkpt>
      <trkpt lat="43.57883" lon="6.15402">
        <ele>455.3</ele>
        <time>2025-02-16T12:46:45Z</time>
      </trkpt>
      <trkpt lat="43.57883" lon="6.15412">
        <ele>455.1</ele>
        <time>2025-02-16T12:46:50.000Z</time>
      </trkpt>
      <trkpt lat="43.57882" lon="6.15421">
        <ele>455.1</ele>
        <time>2025-02-16T12:46:55Z</time>
      </trkpt>
      <trkpt lat="43.57883" lon="6.1543">
        <ele>455.3</ele>
        <time>2025-02-16T12:46:59.500Z</time>
      </trkpt>
      <trkpt lat="43.57883" lon="6.1544">
        <ele>455.5</ele>
        <time>2025-02-16T12:47:04Z</time>
      </trkpt>
      <trkpt lat="43.57884" lon="6.1545">
        <ele>455.7</ele>
        <time>2025-02-16T12:47:13Z</time>
      </trkpt>
      <trkpt lat="43.57884" lon="6.15458">
        <ele>455.9</ele>
        <time>2025-02-16T12:47:18.000Z</time>
      </trkpt>
      <trkpt lat="43.57884" lon="6.15465">
        <ele>456.1</ele>
        <time>2025-02-16T12:47:23Z</time>
      </trkpt>
      <trkpt lat="43.57883" lon="6.15472">
        <ele>456.4</ele>
        <time>2025-02-16T12:47:27.499Z</time>
      </trkpt>
      <trkpt lat="43.57883" lon="6.15479">
        <ele>456.2</ele>
        <time>2025-02-16T12:47:32Z</time>
      </trkpt>
      <trkpt lat="43.57884" lon="6.15485">
        <ele>455.9</ele>
        <time>2025-02-16T12:47:37.500Z</time>
      </trkpt>
      <trkpt lat="43.57885" lon="6.15492">
        <ele>455.6</ele>
        <time>2025-02-16T12:47:43Z</time>
      </trkpt>
      <trkpt lat="43.57887" lon="6.155">
        <ele>455.1</ele>
        <time>2025-02-16T12:47:49.000Z</time>
      </trkpt>
      <trkpt lat="43.57889" lon="6.15509">
        <ele>454.7</ele>
        <time>2025-02-16T12:47:55Z</time>
      </trkpt>
      <trkpt lat="43.5789" lon="6.15517">
        <ele>454.1</ele>
        <time>2025-02-16T12:48:01.000Z</time>
      </trkpt>
      <trkpt lat="43.57892" lon="6.15526">
        <ele>453.5</ele>
        <time>2025-02-16T12:48:07Z</time>
      </trkpt>
      <trkpt lat="43.57893" lon="6.15535">
        <ele>453.4</ele>
        <time>2025-02-16T12:48:13.000Z</time>
      </trkpt>
      <trkpt lat="43.57894" lon="6.15544">
        <ele>453.5</ele>
        <time>2025-02-16T12:48:19Z</time>
      </trkpt>
      <trkpt lat="43.57895" lon="6.15552">
        <ele>453.7</ele>
        <time>2025-02-16T12:48:25.000Z</time>
      </trkpt>
      <trkpt lat="43.57897" lon="6.1556">
        <ele>453.9</ele>
        <time>2025-02-16T12:48:31Z</time>
      </trkpt>
      <trkpt lat="43.57899" lon="6.15567">
        <ele>454.1</ele>
        <time>2025-02-16T12:48:37.000Z</time>
      </trkpt>
      <trkpt lat="43.57902" lon="6.15575">
        <ele>454.2</ele>
        <time>2025-02-16T12:48:43Z</time>
      </trkpt>
      <trkpt lat="43.57904" lon="6.15584">
        <ele>454.4</ele>
        <time>2025-02-16T12:48:48.500Z</time>
      </trkpt>
      <trkpt lat="43.57907" lon="6.15592">
        <ele>454.3</ele>
        <time>2025-02-16T12:48:54Z</time>
      </trkpt>
      <trkpt lat="43.57909" lon="6.15601">
        <ele>454.3</ele>
        <time>2025-02-16T12:48:59.500Z</time>
      </trkpt>
      <trkpt lat="43.57911" lon="6.15609">
        <ele>454.2</ele>
        <time>2025-02-16T12:49:05Z</time>
      </trkpt>
      <trkpt lat="43.57913" lon="6.15615">
        <ele>454</ele>
        <time>2025-02-16T12:49:10.000Z</time>
      </trkpt>
      <trkpt lat="43.57915" lon="6.15622">
        <ele>453.7</ele>
        <time>2025-02-16T12:49:15Z</time>
      </trkpt>
      <trkpt lat="43.57916" lon="6.15631">
        <ele>453.3</ele>
        <time>2025-02-16T12:49:20.000Z</time>
      </trkpt>
      <trkpt lat="43.57918" lon="6.15641">
        <ele>452.8</ele>
        <time>2025-02-16T12:49:25Z</time>
      </trkpt>
      <trkpt lat="43.5792" lon="6.15649">
        <ele>452.3</ele>
        <time>2025-02-16T12:49:30.500Z</time>
      </trkpt>
      <trkpt lat="43.57922" lon="6.15657">
        <ele>452</ele>
        <time>2025-02-16T12:49:36Z</time>
      </trkpt>
      <trkpt lat="43.57923" lon="6.15665">
        <ele>451.8</ele>
        <time>2025-02-16T12:49:40.500Z</time>
      </trkpt>
      <trkpt lat="43.57925" lon="6.15672">
        <ele>451.5</ele>
        <time>2025-02-16T12:49:45Z</time>
      </trkpt>
      <trkpt lat="43.57927" lon="6.1568">
        <ele>451.2</ele>
        <time>2025-02-16T12:49:49.500Z</time>
      </trkpt>
      <trkpt lat="43.57928" lon="6.15689">
        <ele>450.9</ele>
        <time>2025-02-16T12:49:54Z</time>
      </trkpt>
      <trkpt lat="43.57929" lon="6.15696">
        <ele>450.9</ele>
        <time>2025-02-16T12:49:58.500Z</time>
      </trkpt>
      <trkpt lat="43.5793" lon="6.15703">
        <ele>451</ele>
        <time>2025-02-16T12:50:03Z</time>
      </trkpt>
      <trkpt lat="43.57931" lon="6.15711">
        <ele>451</ele>
        <time>2025-02-16T12:50:08.500Z</time>
      </trkpt>
      <trkpt lat="43.57933" lon="6.15719">
        <ele>451.1</ele>
        <time>2025-02-16T12:50:14Z</time>
      </trkpt>
      <trkpt lat="43.57936" lon="6.15727">
        <ele>450.9</ele>
        <time>2025-02-16T12:50:18.000Z</time>
      </trkpt>
      <trkpt lat="43.57939" lon="6.15735">
        <ele>450.6</ele>
        <time>2025-02-16T12:50:22Z</time>
      </trkpt>
      <trkpt lat="43.57941" lon="6.15745">
        <ele>450.4</ele>
        <time>2025-02-16T12:50:31Z</time>
      </trkpt>
      <trkpt lat="43.57942" lon="6.15752">
        <ele>450.2</ele>
        <time>2025-02-16T12:50:35.000Z</time>
      </trkpt>
      <trkpt lat="43.57944" lon="6.15759">
        <ele>450.1</ele>
        <time>2025-02-16T12:50:39Z</time>
      </trkpt>
      <trkpt lat="43.57945" lon="6.15766">
        <ele>449.8</ele>
        <time>2025-02-16T12:50:43.500Z</time>
      </trkpt>
      <trkpt lat="43.57947" lon="6.15772">
        <ele>449.5</ele>
        <time>2025-02-16T12:50:48Z</time>
      </trkpt>
      <trkpt lat="43.57948" lon="6.15781">
        <ele>449.2</ele>
        <time>2025-02-16T12:50:53.000Z</time>
      </trkpt>
      <trkpt lat="43.5795" lon="6.15789">
        <ele>449.2</ele>
        <time>2025-02-16T12:50:58Z</time>
      </trkpt>
      <trkpt lat="43.57952" lon="6.15796">
        <ele>449.1</ele>
        <time>2025-02-16T12:51:03.000Z</time>
      </trkpt>
      <trkpt lat="43.57955" lon="6.15802">
        <ele>449.1</ele>
        <time>2025-02-16T12:51:08Z</time>
      </trkpt>
      <trkpt lat="43.57958" lon="6.15807">
        <ele>449.1</ele>
        <time>2025-02-16T12:51:12.500Z</time>
      </trkpt>
      <trkpt lat="43.57961" lon="6.15813">
        <ele>449.3</ele>
        <time>2025-02-16T12:51:17Z</time>
      </trkpt>
      <trkpt lat="43.57964" lon="6.15819">
        <ele>449.6</ele>
        <time>2025-02-16T12:51:21.500Z</time>
      </trkpt>
      <trkpt lat="43.57968" lon="6.15825">
        <ele>450.1</ele>
        <time>2025-02-16T12:51:26Z</time>
      </trkpt>
      <trkpt lat="43.57971" lon="6.1583">
        <ele>450.6</ele>
        <time>2025-02-16T12:51:31.000Z</time>
      </trkpt>
      <trkpt lat="43.57974" lon="6.15835">
        <ele>450.9</ele>
        <time>2025-02-16T12:51:36Z</time>
      </trkpt>
      <trkpt lat="43.57979" lon="6.15839">
        <ele>450.6</ele>
        <time>2025-02-16T12:51:41.500Z</time>
      </trkpt>
      <trkpt lat="43.57984" lon="6.15843">
        <ele>450.4</ele>
        <time>2025-02-16T12:51:47Z</time>
      </trkpt>
      <trkpt lat="43.57989" lon="6.15846">
        <ele>450.2</ele>
        <time>2025-02-16T12:51:52.500Z</time>
      </trkpt>
      <trkpt lat="43.57994" lon="6.1585">
        <ele>450.1</ele>
        <time>2025-02-16T12:51:58Z</time>
      </trkpt>
      <trkpt lat="43.58001" lon="6.15851">
        <ele>449.8</ele>
        <time>2025-02-16T12:52:03.000Z</time>
      </trkpt>
      <trkpt lat="43.58008" lon="6.15852">
        <ele>448.5</ele>
        <time>2025-02-16T12:52:08Z</time>
      </trkpt>
      <trkpt lat="43.58013" lon="6.15857">
        <ele>448.3</ele>
        <time>2025-02-16T12:52:12.500Z</time>
      </trkpt>
      <trkpt lat="43.58017" lon="6.15862">
        <ele>448.2</ele>
        <time>2025-02-16T12:52:17Z</time>
      </trkpt>
      <trkpt lat="43.5802" lon="6.15868">
        <ele>447.7</ele>
        <time>2025-02-16T12:52:21.500Z</time>
      </trkpt>
      <trkpt lat="43.58024" lon="6.15874">
        <ele>447.3</ele>
        <time>2025-02-16T12:52:26Z</time>
      </trkpt>
      <trkpt lat="43.58028" lon="6.1588">
        <ele>447</ele>
        <time>2025-02-16T12:52:31.500Z</time>
      </trkpt>
      <trkpt lat="43.58031" lon="6.15885">
        <ele>446.8</ele>
        <time>2025-02-16T12:52:37Z</time>
      </trkpt>
      <trkpt lat="43.58036" lon="6.15891">
        <ele>446.7</ele>
        <time>2025-02-16T12:52:43.500Z</time>
      </trkpt>
      <trkpt lat="43.5804" lon="6.15897">
        <ele>446.5</ele>
        <time>2025-02-16T12:52:50Z</time>
      </trkpt>
      <trkpt lat="43.58044" lon="6.15907">
        <ele>446.4</ele>
        <time>2025-02-16T12:52:57.000Z</time>
      </trkpt>
      <trkpt lat="43.58048" lon="6.15918">
        <ele>446.3</ele>
        <time>2025-02-16T12:53:04Z</time>
      </trkpt>
      <trkpt lat="43.5805" lon="6.15929">
        <ele>446.1</ele>
        <time>2025-02-16T12:53:12.000Z</time>
      </trkpt>
      <trkpt lat="43.58053" lon="6.1594">
        <ele>446</ele>
        <time>2025-02-16T12:53:20Z</time>
      </trkpt>
      <trkpt lat="43.58054" lon="6.15946">
        <ele>445.9</ele>
        <time>2025-02-16T12:53:24.000Z</time>
      </trkpt>
      <trkpt lat="43.58056" lon="6.15953">
        <ele>445.7</ele>
        <time>2025-02-16T12:53:28.000Z</time>
      </trkpt>
      <trkpt lat="43.58057" lon="6.15959">
        <ele>445.5</ele>
        <time>2025-02-16T12:53:32.000Z</time>
      </trkpt>
      <trkpt lat="43.58059" lon="6.15965">
        <ele>445.3</ele>
        <time>2025-02-16T12:53:36Z</time>
      </trkpt>
      <trkpt lat="43.58059" lon="6.15972">
        <ele>445</ele>
        <time>2025-02-16T12:55:29.499Z</time>
      </trkpt>
      <trkpt lat="43.58059" lon="6.15978">
        <ele>444.8</ele>
        <time>2025-02-16T12:57:23Z</time>
      </trkpt>
      <trkpt lat="43.58056" lon="6.15983">
        <ele>444.6</ele>
        <time>2025-02-16T12:57:41Z</time>
      </trkpt>
      <trkpt lat="43.58051" lon="6.1599">
        <ele>444.2</ele>
        <time>2025-02-16T12:57:46.999Z</time>
      </trkpt>
      <trkpt lat="43.58046" lon="6.15998">
        <ele>443.7</ele>
        <time>2025-02-16T12:57:53Z</time>
      </trkpt>
      <trkpt lat="43.58041" lon="6.16003">
        <ele>443.5</ele>
        <time>2025-02-16T12:57:57.999Z</time>
      </trkpt>
      <trkpt lat="43.58037" lon="6.16007">
        <ele>443.3</ele>
        <time>2025-02-16T12:58:03Z</time>
      </trkpt>
      <trkpt lat="43.58035" lon="6.16014">
        <ele>443.3</ele>
        <time>2025-02-16T12:58:07.999Z</time>
      </trkpt>
      <trkpt lat="43.58034" lon="6.16021">
        <ele>443.2</ele>
        <time>2025-02-16T12:58:13Z</time>
      </trkpt>
      <trkpt lat="43.58038" lon="6.16026">
        <ele>443.4</ele>
        <time>2025-02-16T12:58:19.500Z</time>
      </trkpt>
      <trkpt lat="43.58043" lon="6.16032">
        <ele>443.7</ele>
        <time>2025-02-16T12:58:26Z</time>
      </trkpt>
      <trkpt lat="43.58046" lon="6.16039">
        <ele>443.9</ele>
        <time>2025-02-16T12:58:32.000Z</time>
      </trkpt>
      <trkpt lat="43.5805" lon="6.16046">
        <ele>444.1</ele>
        <time>2025-02-16T12:58:38Z</time>
      </trkpt>
      <trkpt lat="43.58052" lon="6.16052">
        <ele>444.1</ele>
        <time>2025-02-16T12:58:43.500Z</time>
      </trkpt>
      <trkpt lat="43.58054" lon="6.16058">
        <ele>444.1</ele>
        <time>2025-02-16T12:58:49Z</time>
      </trkpt>
      <trkpt lat="43.58056" lon="6.16066">
        <ele>444.4</ele>
        <time>2025-02-16T12:58:54.500Z</time>
      </trkpt>
      <trkpt lat="43.58059" lon="6.16075">
        <ele>444.9</ele>
        <time>2025-02-16T12:59:00Z</time>
      </trkpt>
      <trkpt lat="43.58056" lon="6.16083">
        <ele>445</ele>
        <time>2025-02-16T12:59:06.999Z</time>
      </trkpt>
      <trkpt lat="43.58054" lon="6.16092">
        <ele>445.3</ele>
        <time>2025-02-16T12:59:14Z</time>
      </trkpt>
      <trkpt lat="43.58054" lon="6.16103">
        <ele>445.7</ele>
        <time>2025-02-16T12:59:20.500Z</time>
      </trkpt>
      <trkpt lat="43.58055" lon="6.16114">
        <ele>446</ele>
        <time>2025-02-16T12:59:27Z</time>
      </trkpt>
      <trkpt lat="43.58057" lon="6.16124">
        <ele>446.1</ele>
        <time>2025-02-16T12:59:35.000Z</time>
      </trkpt>
      <trkpt lat="43.5806" lon="6.16134">
        <ele>446.3</ele>
        <time>2025-02-16T12:59:43Z</time>
      </trkpt>
      <trkpt lat="43.58065" lon="6.16141">
        <ele>446.7</ele>
        <time>2025-02-16T12:59:50.000Z</time>
      </trkpt>
      <trkpt lat="43.5807" lon="6.16147">
        <ele>447.2</ele>
        <time>2025-02-16T12:59:57Z</time>
      </trkpt>
      <trkpt lat="43.58076" lon="6.16155">
        <ele>447.6</ele>
        <time>2025-02-16T13:00:05.000Z</time>
      </trkpt>
      <trkpt lat="43.58081" lon="6.16163">
        <ele>447.9</ele>
        <time>2025-02-16T13:00:13Z</time>
      </trkpt>
      <trkpt lat="43.58088" lon="6.16168">
        <ele>448.4</ele>
        <time>2025-02-16T13:00:20.000Z</time>
      </trkpt>
      <trkpt lat="43.58095" lon="6.16173">
        <ele>449.2</ele>
        <time>2025-02-16T13:00:27Z</time>
      </trkpt>
      <trkpt lat="43.581" lon="6.16172">
        <ele>449.5</ele>
        <time>2025-02-16T13:00:34.000Z</time>
      </trkpt>
      <trkpt lat="43.58105" lon="6.16171">
        <ele>449.8</ele>
        <time>2025-02-16T13:00:41Z</time>
      </trkpt>
      <trkpt lat="43.58111" lon="6.16175">
        <ele>450.3</ele>
        <time>2025-02-16T13:00:49.000Z</time>
      </trkpt>
      <trkpt lat="43.58116" lon="6.16178">
        <ele>450.7</ele>
        <time>2025-02-16T13:00:57Z</time>
      </trkpt>
      <trkpt lat="43.58122" lon="6.16184">
        <ele>451.2</ele>
        <time>2025-02-16T13:01:04.000Z</time>
      </trkpt>
      <trkpt lat="43.58129" lon="6.16189">
        <ele>451.6</ele>
        <time>2025-02-16T13:01:11Z</time>
      </trkpt>
      <trkpt lat="43.58133" lon="6.16198">
        <ele>451.9</ele>
        <time>2025-02-16T13:01:18.500Z</time>
      </trkpt>
      <trkpt lat="43.58138" lon="6.16208">
        <ele>452.4</ele>
        <time>2025-02-16T13:01:26Z</time>
      </trkpt>
      <trkpt lat="43.58142" lon="6.16215">
        <ele>452.8</ele>
        <time>2025-02-16T13:01:32.500Z</time>
      </trkpt>
      <trkpt lat="43.58146" lon="6.16223">
        <ele>453.3</ele>
        <time>2025-02-16T13:01:39Z</time>
      </trkpt>
      <trkpt lat="43.58149" lon="6.16231">
        <ele>454</ele>
        <time>2025-02-16T13:01:46.500Z</time>
      </trkpt>
      <trkpt lat="43.58152" lon="6.16238">
        <ele>454.6</ele>
        <time>2025-02-16T13:01:54Z</time>
      </trkpt>
      <trkpt lat="43.58154" lon="6.16244">
        <ele>455</ele>
        <time>2025-02-16T13:01:57.500Z</time>
      </trkpt>
      <trkpt lat="43.58156" lon="6.1625">
        <ele>455.4</ele>
        <time>2025-02-16T13:02:01.000Z</time>
      </trkpt>
      <trkpt lat="43.58158" lon="6.16256">
        <ele>455.5</ele>
        <time>2025-02-16T13:02:04.500Z</time>
      </trkpt>
      <trkpt lat="43.58159" lon="6.16262">
        <ele>455.6</ele>
        <time>2025-02-16T13:02:08Z</time>
      </trkpt>
      <trkpt lat="43.58161" lon="6.16271">
        <ele>455.8</ele>
        <time>2025-02-16T13:02:14.500Z</time>
      </trkpt>
      <trkpt lat="43.58162" lon="6.16281">
        <ele>456</ele>
        <time>2025-02-16T13:02:21Z</time>
      </trkpt>
      <trkpt lat="43.58163" lon="6.1629">
        <ele>456</ele>
        <time>2025-02-16T13:02:29.000Z</time>
      </trkpt>
      <trkpt lat="43.58163" lon="6.163">
        <ele>456</ele>
        <time>2025-02-16T13:02:37Z</time>
      </trkpt>
      <trkpt lat="43.58168" lon="6.16304">
        <ele>456</ele>
        <time>2025-02-16T13:02:45.000Z</time>
      </trkpt>
      <trkpt lat="43.58173" lon="6.16308">
        <ele>456.2</ele>
        <time>2025-02-16T13:02:53Z</time>
      </trkpt>
      <trkpt lat="43.58179" lon="6.16308">
        <ele>456.4</ele>
        <time>2025-02-16T13:02:59.500Z</time>
      </trkpt>
      <trkpt lat="43.58184" lon="6.16309">
        <ele>456.6</ele>
        <time>2025-02-16T13:03:06Z</time>
      </trkpt>
      <trkpt lat="43.58191" lon="6.16306">
        <ele>456.9</ele>
        <time>2025-02-16T13:03:13.000Z</time>
      </trkpt>
      <trkpt lat="43.58198" lon="6.16304">
        <ele>457.1</ele>
        <time>2025-02-16T13:03:20Z</time>
      </trkpt>
      <trkpt lat="43.58204" lon="6.16302">
        <ele>457.3</ele>
        <time>2025-02-16T13:03:27.000Z</time>
      </trkpt>
      <trkpt lat="43.5821" lon="6.16301">
        <ele>457.4</ele>
        <time>2025-02-16T13:03:34Z</time>
      </trkpt>
      <trkpt lat="43.58218" lon="6.163">
        <ele>457.5</ele>
        <time>2025-02-16T13:03:39.500Z</time>
      </trkpt>
      <trkpt lat="43.58226" lon="6.16298">
        <ele>457.2</ele>
        <time>2025-02-16T13:03:45Z</time>
      </trkpt>
      <trkpt lat="43.58232" lon="6.16299">
        <ele>456.9</ele>
        <time>2025-02-16T13:03:51.000Z</time>
      </trkpt>
      <trkpt lat="43.58239" lon="6.163">
        <ele>456.5</ele>
        <time>2025-02-16T13:03:57Z</time>
      </trkpt>
      <trkpt lat="43.58244" lon="6.16305">
        <ele>456.4</ele>
        <time>2025-02-16T13:04:03.000Z</time>
      </trkpt>
      <trkpt lat="43.58249" lon="6.1631">
        <ele>456.2</ele>
        <time>2025-02-16T13:04:09Z</time>
      </trkpt>
      <trkpt lat="43.58254" lon="6.16317">
        <ele>456.3</ele>
        <time>2025-02-16T13:04:14.500Z</time>
      </trkpt>
      <trkpt lat="43.58258" lon="6.16324">
        <ele>456.5</ele>
        <time>2025-02-16T13:04:20Z</time>
      </trkpt>
      <trkpt lat="43.58262" lon="6.16329">
        <ele>456.5</ele>
        <time>2025-02-16T13:04:28.000Z</time>
      </trkpt>
      <trkpt lat="43.58266" lon="6.16335">
        <ele>456.4</ele>
        <time>2025-02-16T13:04:36Z</time>
      </trkpt>
      <trkpt lat="43.5827" lon="6.1634">
        <ele>456</ele>
        <time>2025-02-16T13:04:49.500Z</time>
      </trkpt>
      <trkpt lat="43.58273" lon="6.16346">
        <ele>455.7</ele>
        <time>2025-02-16T13:05:03Z</time>
      </trkpt>
      <trkpt lat="43.58275" lon="6.16351">
        <ele>455.5</ele>
        <time>2025-02-16T13:05:33.573Z</time>
      </trkpt>
      <trkpt lat="43.58278" lon="6.16349">
        <ele>455.4</ele>
        <time>2025-02-16T13:06:07.308Z</time>
      </trkpt>
      <trkpt lat="43.58282" lon="6.16347">
        <ele>455.4</ele>
        <time>2025-02-16T13:06:41.907Z</time>
      </trkpt>
      <trkpt lat="43.58282" lon="6.16351">
        <ele>455.3</ele>
        <time>2025-02-16T13:07:07.392Z</time>
      </trkpt>
      <trkpt lat="43.58277" lon="6.16352">
        <ele>455.4</ele>
        <time>2025-02-16T13:07:46.424Z</time>
      </trkpt>
      <trkpt lat="43.58276" lon="6.16356">
        <ele>455.2</ele>
        <time>2025-02-16T13:08:12.101Z</time>
      </trkpt>
      <trkpt lat="43.58277" lon="6.16361">
        <ele>455</ele>
        <time>2025-02-16T13:08:41Z</time>
      </trkpt>
      <trkpt lat="43.58281" lon="6.16368">
        <ele>455</ele>
        <time>2025-02-16T13:08:50.500Z</time>
      </trkpt>
      <trkpt lat="43.58285" lon="6.16374">
        <ele>454.9</ele>
        <time>2025-02-16T13:09:00Z</time>
      </trkpt>
      <trkpt lat="43.58288" lon="6.16382">
        <ele>454.7</ele>
        <time>2025-02-16T13:09:07.000Z</time>
      </trkpt>
      <trkpt lat="43.58291" lon="6.1639">
        <ele>454.5</ele>
        <time>2025-02-16T13:09:14Z</time>
      </trkpt>
      <trkpt lat="43.58296" lon="6.16396">
        <ele>454.4</ele>
        <time>2025-02-16T13:09:21.500Z</time>
      </trkpt>
      <trkpt lat="43.58302" lon="6.16402">
        <ele>454.2</ele>
        <time>2025-02-16T13:09:29Z</time>
      </trkpt>
      <trkpt lat="43.58306" lon="6.16411">
        <ele>454</ele>
        <time>2025-02-16T13:09:36.500Z</time>
      </trkpt>
      <trkpt lat="43.5831" lon="6.1642">
        <ele>453.6</ele>
        <time>2025-02-16T13:09:44Z</time>
      </trkpt>
      <trkpt lat="43.58314" lon="6.16431">
        <ele>453.2</ele>
        <time>2025-02-16T13:09:52.500Z</time>
      </trkpt>
      <trkpt lat="43.58319" lon="6.16442">
        <ele>452.6</ele>
        <time>2025-02-16T13:10:01Z</time>
      </trkpt>
      <trkpt lat="43.58322" lon="6.16451">
        <ele>452</ele>
        <time>2025-02-16T13:10:08.000Z</time>
      </trkpt>
      <trkpt lat="43.58326" lon="6.1646">
        <ele>451.2</ele>
        <time>2025-02-16T13:10:15Z</time>
      </trkpt>
      <trkpt lat="43.58329" lon="6.16469">
        <ele>450.6</ele>
        <time>2025-02-16T13:10:21.500Z</time>
      </trkpt>
      <trkpt lat="43.58332" lon="6.16478">
        <ele>450.1</ele>
        <time>2025-02-16T13:10:28Z</time>
      </trkpt>
      <trkpt lat="43.58335" lon="6.16485">
        <ele>449.9</ele>
        <time>2025-02-16T13:10:34.500Z</time>
      </trkpt>
      <trkpt lat="43.58338" lon="6.16492">
        <ele>449.6</ele>
        <time>2025-02-16T13:10:41Z</time>
      </trkpt>
      <trkpt lat="43.5834" lon="6.165">
        <ele>449.5</ele>
        <time>2025-02-16T13:10:47.500Z</time>
      </trkpt>
      <trkpt lat="43.58341" lon="6.16509">
        <ele>449.4</ele>
        <time>2025-02-16T13:10:54Z</time>
      </trkpt>
      <trkpt lat="43.58346" lon="6.16518">
        <ele>449.1</ele>
        <time>2025-02-16T13:11:00.500Z</time>
      </trkpt>
      <trkpt lat="43.58351" lon="6.16526">
        <ele>448.7</ele>
        <time>2025-02-16T13:11:07Z</time>
      </trkpt>
      <trkpt lat="43.58354" lon="6.16535">
        <ele>448.5</ele>
        <time>2025-02-16T13:11:14.000Z</time>
      </trkpt>
      <trkpt lat="43.58356" lon="6.16544">
        <ele>448.2</ele>
        <time>2025-02-16T13:11:21Z</time>
      </trkpt>
      <trkpt lat="43.58355" lon="6.16554">
        <ele>448.2</ele>
        <time>2025-02-16T13:11:28.999Z</time>
      </trkpt>
      <trkpt lat="43.58353" lon="6.16564">
        <ele>448.1</ele>
        <time>2025-02-16T13:11:37Z</time>
      </trkpt>
      <trkpt lat="43.58347" lon="6.16572">
        <ele>448.2</ele>
        <time>2025-02-16T13:11:45.499Z</time>
      </trkpt>
      <trkpt lat="43.58342" lon="6.16581">
        <ele>448.4</ele>
        <time>2025-02-16T13:11:54Z</time>
      </trkpt>
      <trkpt lat="43.58339" lon="6.16585">
        <ele>448.5</ele>
        <time>2025-02-16T13:11:56.749Z</time>
      </trkpt>
      <trkpt lat="43.58335" lon="6.1659">
        <ele>448.4</ele>
        <time>2025-02-16T13:11:59.499Z</time>
      </trkpt>
      <trkpt lat="43.58332" lon="6.16594">
        <ele>448.3</ele>
        <time>2025-02-16T13:12:02.249Z</time>
      </trkpt>
      <trkpt lat="43.58329" lon="6.16598">
        <ele>448.1</ele>
        <time>2025-02-16T13:12:05Z</time>
      </trkpt>
      <trkpt lat="43.58324" lon="6.16605">
        <ele>447.8</ele>
        <time>2025-02-16T13:12:11.499Z</time>
      </trkpt>
      <trkpt lat="43.58319" lon="6.16612">
        <ele>447.5</ele>
        <time>2025-02-16T13:12:18Z</time>
      </trkpt>
      <trkpt lat="43.58314" lon="6.16617">
        <ele>447.3</ele>
        <time>2025-02-16T13:12:24.999Z</time>
      </trkpt>
      <trkpt lat="43.58309" lon="6.16623">
        <ele>447.1</ele>
        <time>2025-02-16T13:12:32Z</time>
      </trkpt>
      <trkpt lat="43.58305" lon="6.16626">
        <ele>446.9</ele>
        <time>2025-02-16T13:12:35.249Z</time>
      </trkpt>
      <trkpt lat="43.58301" lon="6.16629">
        <ele>446.9</ele>
        <time>2025-02-16T13:12:38.499Z</time>
      </trkpt>
      <trkpt lat="43.58297" lon="6.16633">
        <ele>446.9</ele>
        <time>2025-02-16T13:12:41.749Z</time>
      </trkpt>
      <trkpt lat="43.58293" lon="6.16636">
        <ele>446.8</ele>
        <time>2025-02-16T13:12:45Z</time>
      </trkpt>
      <trkpt lat="43.58286" lon="6.16643">
        <ele>446.5</ele>
        <time>2025-02-16T13:12:50.999Z</time>
      </trkpt>
      <trkpt lat="43.5828" lon="6.1665">
        <ele>446.2</ele>
        <time>2025-02-16T13:12:57Z</time>
      </trkpt>
      <trkpt lat="43.58274" lon="6.16655">
        <ele>446.1</ele>
        <time>2025-02-16T13:13:02.499Z</time>
      </trkpt>
      <trkpt lat="43.58269" lon="6.1666">
        <ele>446</ele>
        <time>2025-02-16T13:13:08Z</time>
      </trkpt>
      <trkpt lat="43.58264" lon="6.16666">
        <ele>445.5</ele>
        <time>2025-02-16T13:13:12.999Z</time>
      </trkpt>
      <trkpt lat="43.58259" lon="6.16673">
        <ele>445.1</ele>
        <time>2025-02-16T13:13:18Z</time>
      </trkpt>
      <trkpt lat="43.58254" lon="6.16678">
        <ele>444.7</ele>
        <time>2025-02-16T13:13:22.499Z</time>
      </trkpt>
      <trkpt lat="43.58249" lon="6.16683">
        <ele>444.3</ele>
        <time>2025-02-16T13:13:27Z</time>
      </trkpt>
      <trkpt lat="43.58248" lon="6.1669">
        <ele>443.6</ele>
        <time>2025-02-16T13:13:31.499Z</time>
      </trkpt>
      <trkpt lat="43.58246" lon="6.16696">
        <ele>443</ele>
        <time>2025-02-16T13:13:36Z</time>
      </trkpt>
      <trkpt lat="43.58243" lon="6.16701">
        <ele>442.7</ele>
        <time>2025-02-16T13:13:40.499Z</time>
      </trkpt>
      <trkpt lat="43.58239" lon="6.16705">
        <ele>442.6</ele>
        <time>2025-02-16T13:13:45Z</time>
      </trkpt>
      <trkpt lat="43.58235" lon="6.16711">
        <ele>442.4</ele>
        <time>2025-02-16T13:13:50.999Z</time>
      </trkpt>
      <trkpt lat="43.58232" lon="6.16716">
        <ele>442.3</ele>
        <time>2025-02-16T13:13:57Z</time>
      </trkpt>
      <trkpt lat="43.58229" lon="6.16724">
        <ele>442.2</ele>
        <time>2025-02-16T13:14:02.499Z</time>
      </trkpt>
      <trkpt lat="43.58226" lon="6.16732">
        <ele>442.3</ele>
        <time>2025-02-16T13:14:08Z</time>
      </trkpt>
      <trkpt lat="43.58219" lon="6.16738">
        <ele>442.7</ele>
        <time>2025-02-16T13:14:13.999Z</time>
      </trkpt>
      <trkpt lat="43.58213" lon="6.16744">
        <ele>442.9</ele>
        <time>2025-02-16T13:14:20Z</time>
      </trkpt>
      <trkpt lat="43.58208" lon="6.16748">
        <ele>443.1</ele>
        <time>2025-02-16T13:14:25.999Z</time>
      </trkpt>
      <trkpt lat="43.58203" lon="6.16753">
        <ele>443.3</ele>
        <time>2025-02-16T13:14:32Z</time>
      </trkpt>
      <trkpt lat="43.58196" lon="6.16757">
        <ele>443.6</ele>
        <time>2025-02-16T13:14:38.499Z</time>
      </trkpt>
      <trkpt lat="43.5819" lon="6.16762">
        <ele>443.7</ele>
        <time>2025-02-16T13:14:45Z</time>
      </trkpt>
      <trkpt lat="43.58185" lon="6.16769">
        <ele>443.7</ele>
        <time>2025-02-16T13:14:50.499Z</time>
      </trkpt>
      <trkpt lat="43.58179" lon="6.16775">
        <ele>443.6</ele>
        <time>2025-02-16T13:14:56Z</time>
      </trkpt>
      <trkpt lat="43.58174" lon="6.16782">
        <ele>443.6</ele>
        <time>2025-02-16T13:15:01.499Z</time>
      </trkpt>
      <trkpt lat="43.58168" lon="6.16788">
        <ele>443.6</ele>
        <time>2025-02-16T13:15:07Z</time>
      </trkpt>
      <trkpt lat="43.58164" lon="6.16796">
        <ele>443.4</ele>
        <time>2025-02-16T13:15:13.499Z</time>
      </trkpt>
      <trkpt lat="43.58159" lon="6.16803">
        <ele>443.3</ele>
        <time>2025-02-16T13:15:20Z</time>
      </trkpt>
      <trkpt lat="43.58154" lon="6.16809">
        <ele>443.5</ele>
        <time>2025-02-16T13:15:26.499Z</time>
      </trkpt>
      <trkpt lat="43.58148" lon="6.16815">
        <ele>443.7</ele>
        <time>2025-02-16T13:15:33Z</time>
      </trkpt>
      <trkpt lat="43.58142" lon="6.1682">
        <ele>443.9</ele>
        <time>2025-02-16T13:15:39.999Z</time>
      </trkpt>
      <trkpt lat="43.58135" lon="6.16825">
        <ele>444</ele>
        <time>2025-02-16T13:15:47Z</time>
      </trkpt>
      <trkpt lat="43.58131" lon="6.16828">
        <ele>444</ele>
        <time>2025-02-16T13:15:50.499Z</time>
      </trkpt>
      <trkpt lat="43.58127" lon="6.16831">
        <ele>444</ele>
        <time>2025-02-16T13:15:53.999Z</time>
      </trkpt>
      <trkpt lat="43.58123" lon="6.16834">
        <ele>444</ele>
        <time>2025-02-16T13:15:57.499Z</time>
      </trkpt>
      <trkpt lat="43.58119" lon="6.16837">
        <ele>443.9</ele>
        <time>2025-02-16T13:16:01Z</time>
      </trkpt>
      <trkpt lat="43.58114" lon="6.16844">
        <ele>443.7</ele>
        <time>2025-02-16T13:16:14Z</time>
      </trkpt>
      <trkpt lat="43.5811" lon="6.16852">
        <ele>443.4</ele>
        <time>2025-02-16T13:16:17.536Z</time>
      </trkpt>
      <trkpt lat="43.58107" lon="6.16862">
        <ele>443.1</ele>
        <time>2025-02-16T13:16:21.767Z</time>
      </trkpt>
      <trkpt lat="43.58105" lon="6.16872">
        <ele>443.1</ele>
        <time>2025-02-16T13:16:26Z</time>
      </trkpt>
      <trkpt lat="43.58103" lon="6.1688">
        <ele>442.9</ele>
        <time>2025-02-16T13:16:32.999Z</time>
      </trkpt>
      <trkpt lat="43.58102" lon="6.16889">
        <ele>442.7</ele>
        <time>2025-02-16T13:16:40Z</time>
      </trkpt>
      <trkpt lat="43.58099" lon="6.16897">
        <ele>442.6</ele>
        <time>2025-02-16T13:16:46.499Z</time>
      </trkpt>
      <trkpt lat="43.58097" lon="6.16906">
        <ele>442.5</ele>
        <time>2025-02-16T13:16:53Z</time>
      </trkpt>
      <trkpt lat="43.5809" lon="6.1691">
        <ele>442.2</ele>
        <time>2025-02-16T13:16:58.499Z</time>
      </trkpt>
      <trkpt lat="43.58082" lon="6.16915">
        <ele>442</ele>
        <time>2025-02-16T13:17:04Z</time>
      </trkpt>
      <trkpt lat="43.58076" lon="6.1692">
        <ele>441.8</ele>
        <time>2025-02-16T13:17:09.999Z</time>
      </trkpt>
      <trkpt lat="43.5807" lon="6.16926">
        <ele>441.7</ele>
        <time>2025-02-16T13:17:16Z</time>
      </trkpt>
      <trkpt lat="43.58064" lon="6.16929">
        <ele>441.6</ele>
        <time>2025-02-16T13:17:22.499Z</time>
      </trkpt>
      <trkpt lat="43.58057" lon="6.16931">
        <ele>441.6</ele>
        <time>2025-02-16T13:17:29Z</time>
      </trkpt>
      <trkpt lat="43.58051" lon="6.16933">
        <ele>441.4</ele>
        <time>2025-02-16T13:17:34.500Z</time>
      </trkpt>
      <trkpt lat="43.58044" lon="6.16934">
        <ele>441.1</ele>
        <time>2025-02-16T13:17:40Z</time>
      </trkpt>
      <trkpt lat="43.58037" lon="6.16935">
        <ele>440.8</ele>
        <time>2025-02-16T13:17:45.500Z</time>
      </trkpt>
      <trkpt lat="43.5803" lon="6.16937">
        <ele>440.4</ele>
        <time>2025-02-16T13:17:51Z</time>
      </trkpt>
      <trkpt lat="43.58026" lon="6.16935">
        <ele>440.2</ele>
        <time>2025-02-16T13:17:55.999Z</time>
      </trkpt>
      <trkpt lat="43.58021" lon="6.16932">
        <ele>440.1</ele>
        <time>2025-02-16T13:18:01Z</time>
      </trkpt>
      <trkpt lat="43.58016" lon="6.16931">
        <ele>439.8</ele>
        <time>2025-02-16T13:18:04.863Z</time>
      </trkpt>
      <trkpt lat="43.5801" lon="6.16927">
        <ele>439.6</ele>
        <time>2025-02-16T13:18:09.931Z</time>
      </trkpt>
      <trkpt lat="43.58004" lon="6.16923">
        <ele>439.3</ele>
        <time>2025-02-16T13:18:15Z</time>
      </trkpt>
      <trkpt lat="43.57998" lon="6.1692">
        <ele>438.9</ele>
        <time>2025-02-16T13:18:21.999Z</time>
      </trkpt>
      <trkpt lat="43.57992" lon="6.16917">
        <ele>438.4</ele>
        <time>2025-02-16T13:18:29Z</time>
      </trkpt>
      <trkpt lat="43.57986" lon="6.16916">
        <ele>438</ele>
        <time>2025-02-16T13:18:36.500Z</time>
      </trkpt>
      <trkpt lat="43.57981" lon="6.16916">
        <ele>437.6</ele>
        <time>2025-02-16T13:18:44Z</time>
      </trkpt>
      <trkpt lat="43.57974" lon="6.16917">
        <ele>437.2</ele>
        <time>2025-02-16T13:18:53.000Z</time>
      </trkpt>
      <trkpt lat="43.57968" lon="6.16918">
        <ele>436.2</ele>
        <time>2025-02-16T13:19:02Z</time>
      </trkpt>
      <trkpt lat="43.5796" lon="6.16918">
        <ele>434.8</ele>
        <time>2025-02-16T13:19:11.000Z</time>
      </trkpt>
      <trkpt lat="43.57952" lon="6.16919">
        <ele>433.4</ele>
        <time>2025-02-16T13:19:20Z</time>
      </trkpt>
      <trkpt lat="43.57948" lon="6.16924">
        <ele>432.3</ele>
        <time>2025-02-16T13:19:23.282Z</time>
      </trkpt>
      <trkpt lat="43.57943" lon="6.16929">
        <ele>431.5</ele>
        <time>2025-02-16T13:19:26.564Z</time>
      </trkpt>
      <trkpt lat="43.57939" lon="6.16936">
        <ele>430.9</ele>
        <time>2025-02-16T13:19:30.281Z</time>
      </trkpt>
      <trkpt lat="43.57934" lon="6.16943">
        <ele>430</ele>
        <time>2025-02-16T13:19:34Z</time>
      </trkpt>
      <trkpt lat="43.5793" lon="6.1695">
        <ele>429.7</ele>
        <time>2025-02-16T13:19:40.999Z</time>
      </trkpt>
      <trkpt lat="43.57926" lon="6.16957">
        <ele>429.5</ele>
        <time>2025-02-16T13:19:48Z</time>
      </trkpt>
      <trkpt lat="43.57923" lon="6.16964">
        <ele>429.4</ele>
        <time>2025-02-16T13:19:53.999Z</time>
      </trkpt>
      <trkpt lat="43.57919" lon="6.16971">
        <ele>429.2</ele>
        <time>2025-02-16T13:20:00Z</time>
      </trkpt>
      <trkpt lat="43.57914" lon="6.16971">
        <ele>428.6</ele>
        <time>2025-02-16T13:20:03.500Z</time>
      </trkpt>
      <trkpt lat="43.57909" lon="6.16971">
        <ele>427.9</ele>
        <time>2025-02-16T13:20:07.000Z</time>
      </trkpt>
      <trkpt lat="43.57903" lon="6.1697">
        <ele>427.2</ele>
        <time>2025-02-16T13:20:10.500Z</time>
      </trkpt>
      <trkpt lat="43.57898" lon="6.1697">
        <ele>426.4</ele>
        <time>2025-02-16T13:20:14Z</time>
      </trkpt>
      <trkpt lat="43.57894" lon="6.16972">
        <ele>425.7</ele>
        <time>2025-02-16T13:20:19.499Z</time>
      </trkpt>
      <trkpt lat="43.57889" lon="6.16974">
        <ele>425.3</ele>
        <time>2025-02-16T13:20:25Z</time>
      </trkpt>
      <trkpt lat="43.57883" lon="6.16977">
        <ele>425.4</ele>
        <time>2025-02-16T13:20:31.499Z</time>
      </trkpt>
      <trkpt lat="43.57877" lon="6.16979">
        <ele>425.3</ele>
        <time>2025-02-16T13:20:38Z</time>
      </trkpt>
      <trkpt lat="43.57871" lon="6.16985">
        <ele>424.7</ele>
        <time>2025-02-16T13:20:44.999Z</time>
      </trkpt>
      <trkpt lat="43.57864" lon="6.1699">
        <ele>423.6</ele>
        <time>2025-02-16T13:20:52Z</time>
      </trkpt>
      <trkpt lat="43.5786" lon="6.16998">
        <ele>422.2</ele>
        <time>2025-02-16T13:20:58.999Z</time>
      </trkpt>
      <trkpt lat="43.57855" lon="6.17006">
        <ele>422.3</ele>
        <time>2025-02-16T13:21:06Z</time>
      </trkpt>
      <trkpt lat="43.57852" lon="6.17015">
        <ele>422.3</ele>
        <time>2025-02-16T13:21:11.499Z</time>
      </trkpt>
      <trkpt lat="43.57849" lon="6.17024">
        <ele>421.9</ele>
        <time>2025-02-16T13:21:17Z</time>
      </trkpt>
      <trkpt lat="43.57844" lon="6.17029">
        <ele>420.8</ele>
        <time>2025-02-16T13:21:22.499Z</time>
      </trkpt>
      <trkpt lat="43.5784" lon="6.17033">
        <ele>419.8</ele>
        <time>2025-02-16T13:21:28Z</time>
      </trkpt>
      <trkpt lat="43.57836" lon="6.17037">
        <ele>418.9</ele>
        <time>2025-02-16T13:21:33.999Z</time>
      </trkpt>
      <trkpt lat="43.57831" lon="6.17041">
        <ele>418.2</ele>
        <time>2025-02-16T13:21:40Z</time>
      </trkpt>
      <trkpt lat="43.57827" lon="6.17046">
        <ele>417.7</ele>
        <time>2025-02-16T13:21:45.999Z</time>
      </trkpt>
      <trkpt lat="43.57822" lon="6.1705">
        <ele>417.2</ele>
        <time>2025-02-16T13:21:52Z</time>
      </trkpt>
      <trkpt lat="43.57817" lon="6.17055">
        <ele>416.6</ele>
        <time>2025-02-16T13:21:57.499Z</time>
      </trkpt>
      <trkpt lat="43.57812" lon="6.17059">
        <ele>416.1</ele>
        <time>2025-02-16T13:22:03Z</time>
      </trkpt>
      <trkpt lat="43.57807" lon="6.17065">
        <ele>415.9</ele>
        <time>2025-02-16T13:22:08.999Z</time>
      </trkpt>
      <trkpt lat="43.57803" lon="6.17071">
        <ele>415.9</ele>
        <time>2025-02-16T13:22:15Z</time>
      </trkpt>
      <trkpt lat="43.57796" lon="6.17071">
        <ele>415.4</ele>
        <time>2025-02-16T13:22:19.500Z</time>
      </trkpt>
      <trkpt lat="43.5779" lon="6.1707">
        <ele>414.9</ele>
        <time>2025-02-16T13:22:24Z</time>
      </trkpt>
      <trkpt lat="43.57786" lon="6.17069">
        <ele>414.4</ele>
        <time>2025-02-16T13:22:29.000Z</time>
      </trkpt>
      <trkpt lat="43.57781" lon="6.17067">
        <ele>413.9</ele>
        <time>2025-02-16T13:22:34Z</time>
      </trkpt>
      <trkpt lat="43.57777" lon="6.17062">
        <ele>412.8</ele>
        <time>2025-02-16T13:22:39.499Z</time>
      </trkpt>
      <trkpt lat="43.57772" lon="6.17056">
        <ele>411.6</ele>
        <time>2025-02-16T13:22:45Z</time>
      </trkpt>
      <trkpt lat="43.57765" lon="6.17053">
        <ele>411.3</ele>
        <time>2025-02-16T13:22:50.499Z</time>
      </trkpt>
      <trkpt lat="43.57758" lon="6.1705">
        <ele>411</ele>
        <time>2025-02-16T13:22:56Z</time>
      </trkpt>
      <trkpt lat="43.57751" lon="6.17049">
        <ele>410.6</ele>
        <time>2025-02-16T13:23:02.000Z</time>
      </trkpt>
      <trkpt lat="43.57744" lon="6.17048">
        <ele>410.4</ele>
        <time>2025-02-16T13:23:08Z</time>
      </trkpt>
      <trkpt lat="43.57739" lon="6.17045">
        <ele>410.4</ele>
        <time>2025-02-16T13:23:14.999Z</time>
      </trkpt>
      <trkpt lat="43.57734" lon="6.17042">
        <ele>410.4</ele>
        <time>2025-02-16T13:23:22Z</time>
      </trkpt>
      <trkpt lat="43.57726" lon="6.17041">
        <ele>410.2</ele>
        <time>2025-02-16T13:23:29.000Z</time>
      </trkpt>
      <trkpt lat="43.57718" lon="6.17039">
        <ele>409.9</ele>
        <time>2025-02-16T13:23:36Z</time>
      </trkpt>
      <trkpt lat="43.57714" lon="6.17035">
        <ele>410</ele>
        <time>2025-02-16T13:23:43.499Z</time>
      </trkpt>
      <trkpt lat="43.5771" lon="6.17031">
        <ele>410.2</ele>
        <time>2025-02-16T13:23:51Z</time>
      </trkpt>
      <trkpt lat="43.57707" lon="6.17032">
        <ele>410</ele>
        <time>2025-02-16T13:24:09Z</time>
      </trkpt>
      <trkpt lat="43.57705" lon="6.17025">
        <ele>410.9</ele>
        <time>2025-02-16T13:24:25Z</time>
      </trkpt>
      <trkpt lat="43.57698" lon="6.17026">
        <ele>410.3</ele>
        <time>2025-02-16T13:24:42Z</time>
      </trkpt>
      <trkpt lat="43.57692" lon="6.17023">
        <ele>410.5</ele>
        <time>2025-02-16T13:25:03Z</time>
      </trkpt>
      <trkpt lat="43.5769" lon="6.17019">
        <ele>410.9</ele>
        <time>2025-02-16T13:25:52Z</time>
      </trkpt>
      <trkpt lat="43.57697" lon="6.17021">
        <ele>411.1</ele>
        <time>2025-02-16T13:26:18Z</time>
      </trkpt>
      <trkpt lat="43.577" lon="6.17024">
        <ele>410.8</ele>
        <time>2025-02-16T13:26:55Z</time>
      </trkpt>
      <trkpt lat="43.57697" lon="6.17025">
        <ele>410.5</ele>
        <time>2025-02-16T13:29:10Z</time>
      </trkpt>
      <trkpt lat="43.57693" lon="6.17022">
        <ele>410.6</ele>
        <time>2025-02-16T13:29:27.499Z</time>
      </trkpt>
      <trkpt lat="43.57688" lon="6.17019">
        <ele>410.6</ele>
        <time>2025-02-16T13:29:45Z</time>
      </trkpt>
      <trkpt lat="43.57684" lon="6.17012">
        <ele>411.1</ele>
        <time>2025-02-16T13:29:52.499Z</time>
      </trkpt>
      <trkpt lat="43.57679" lon="6.17004">
        <ele>411.4</ele>
        <time>2025-02-16T13:30:00Z</time>
      </trkpt>
      <trkpt lat="43.57674" lon="6.16997">
        <ele>411.3</ele>
        <time>2025-02-16T13:30:06.999Z</time>
      </trkpt>
      <trkpt lat="43.5767" lon="6.16989">
        <ele>411.1</ele>
        <time>2025-02-16T13:30:14Z</time>
      </trkpt>
      <trkpt lat="43.57666" lon="6.16981">
        <ele>411.3</ele>
        <time>2025-02-16T13:30:20.499Z</time>
      </trkpt>
      <trkpt lat="43.57662" lon="6.16973">
        <ele>411.5</ele>
        <time>2025-02-16T13:30:27Z</time>
      </trkpt>
      <trkpt lat="43.57656" lon="6.16966">
        <ele>410.5</ele>
        <time>2025-02-16T13:30:34.499Z</time>
      </trkpt>
      <trkpt lat="43.5765" lon="6.1696">
        <ele>409.6</ele>
        <time>2025-02-16T13:30:42Z</time>
      </trkpt>
      <trkpt lat="43.57644" lon="6.16954">
        <ele>408.7</ele>
        <time>2025-02-16T13:30:48.499Z</time>
      </trkpt>
      <trkpt lat="43.57638" lon="6.16948">
        <ele>408</ele>
        <time>2025-02-16T13:30:55Z</time>
      </trkpt>
      <trkpt lat="43.57634" lon="6.16938">
        <ele>407.4</ele>
        <time>2025-02-16T13:31:03.999Z</time>
      </trkpt>
      <trkpt lat="43.5763" lon="6.16928">
        <ele>406.8</ele>
        <time>2025-02-16T13:31:13Z</time>
      </trkpt>
      <trkpt lat="43.57626" lon="6.16921">
        <ele>406.3</ele>
        <time>2025-02-16T13:31:16.249Z</time>
      </trkpt>
      <trkpt lat="43.57623" lon="6.16915">
        <ele>406</ele>
        <time>2025-02-16T13:31:19.499Z</time>
      </trkpt>
      <trkpt lat="43.57619" lon="6.16908">
        <ele>406.1</ele>
        <time>2025-02-16T13:31:22.749Z</time>
      </trkpt>
      <trkpt lat="43.57615" lon="6.16901">
        <ele>406.1</ele>
        <time>2025-02-16T13:31:26Z</time>
      </trkpt>
      <trkpt lat="43.57611" lon="6.16895">
        <ele>405.8</ele>
        <time>2025-02-16T13:31:31.499Z</time>
      </trkpt>
      <trkpt lat="43.57607" lon="6.16889">
        <ele>406.1</ele>
        <time>2025-02-16T13:31:37Z</time>
      </trkpt>
      <trkpt lat="43.57604" lon="6.16881">
        <ele>406.7</ele>
        <time>2025-02-16T13:31:44.499Z</time>
      </trkpt>
      <trkpt lat="43.57601" lon="6.16873">
        <ele>407.4</ele>
        <time>2025-02-16T13:31:52Z</time>
      </trkpt>
      <trkpt lat="43.57603" lon="6.16864">
        <ele>407.7</ele>
        <time>2025-02-16T13:31:58.500Z</time>
      </trkpt>
      <trkpt lat="43.57605" lon="6.16855">
        <ele>408</ele>
        <time>2025-02-16T13:32:05Z</time>
      </trkpt>
      <trkpt lat="43.57606" lon="6.16843">
        <ele>408.4</ele>
        <time>2025-02-16T13:32:11.500Z</time>
      </trkpt>
      <trkpt lat="43.57608" lon="6.16831">
        <ele>408.8</ele>
        <time>2025-02-16T13:32:18Z</time>
      </trkpt>
      <trkpt lat="43.57612" lon="6.16821">
        <ele>409</ele>
        <time>2025-02-16T13:32:23.500Z</time>
      </trkpt>
      <trkpt lat="43.57615" lon="6.16811">
        <ele>410.2</ele>
        <time>2025-02-16T13:32:29Z</time>
      </trkpt>
      <trkpt lat="43.57618" lon="6.16804">
        <ele>410.8</ele>
        <time>2025-02-16T13:32:34.000Z</time>
      </trkpt>
      <trkpt lat="43.57621" lon="6.16798">
        <ele>411.4</ele>
        <time>2025-02-16T13:32:39Z</time>
      </trkpt>
      <trkpt lat="43.57624" lon="6.16791">
        <ele>411.7</ele>
        <time>2025-02-16T13:32:44.000Z</time>
      </trkpt>
      <trkpt lat="43.57626" lon="6.16783">
        <ele>411.9</ele>
        <time>2025-02-16T13:32:49Z</time>
      </trkpt>
      <trkpt lat="43.57626" lon="6.16774">
        <ele>412</ele>
        <time>2025-02-16T13:32:55.000Z</time>
      </trkpt>
      <trkpt lat="43.57626" lon="6.16766">
        <ele>412.1</ele>
        <time>2025-02-16T13:33:01Z</time>
      </trkpt>
      <trkpt lat="43.57628" lon="6.16757">
        <ele>412</ele>
        <time>2025-02-16T13:33:07.000Z</time>
      </trkpt>
      <trkpt lat="43.57631" lon="6.16748">
        <ele>412</ele>
        <time>2025-02-16T13:33:13Z</time>
      </trkpt>
      <trkpt lat="43.57635" lon="6.16742">
        <ele>411.8</ele>
        <time>2025-02-16T13:33:18.000Z</time>
      </trkpt>
      <trkpt lat="43.57638" lon="6.16737">
        <ele>411.5</ele>
        <time>2025-02-16T13:33:23Z</time>
      </trkpt>
      <trkpt lat="43.57643" lon="6.16731">
        <ele>411.9</ele>
        <time>2025-02-16T13:33:28.000Z</time>
      </trkpt>
      <trkpt lat="43.57648" lon="6.16726">
        <ele>412.3</ele>
        <time>2025-02-16T13:33:33Z</time>
      </trkpt>
      <trkpt lat="43.57652" lon="6.16719">
        <ele>412.5</ele>
        <time>2025-02-16T13:33:38.500Z</time>
      </trkpt>
      <trkpt lat="43.57656" lon="6.16712">
        <ele>412.5</ele>
        <time>2025-02-16T13:33:44Z</time>
      </trkpt>
      <trkpt lat="43.5766" lon="6.16706">
        <ele>412.5</ele>
        <time>2025-02-16T13:33:49.500Z</time>
      </trkpt>
      <trkpt lat="43.57664" lon="6.16701">
        <ele>412.3</ele>
        <time>2025-02-16T13:33:55Z</time>
      </trkpt>
      <trkpt lat="43.57668" lon="6.16694">
        <ele>412.1</ele>
        <time>2025-02-16T13:34:01.000Z</time>
      </trkpt>
      <trkpt lat="43.57671" lon="6.16688">
        <ele>412.8</ele>
        <time>2025-02-16T13:34:07Z</time>
      </trkpt>
      <trkpt lat="43.57674" lon="6.16681">
        <ele>413.3</ele>
        <time>2025-02-16T13:34:13.000Z</time>
      </trkpt>
      <trkpt lat="43.57678" lon="6.16674">
        <ele>413.7</ele>
        <time>2025-02-16T13:34:19Z</time>
      </trkpt>
      <trkpt lat="43.5768" lon="6.16666">
        <ele>413.9</ele>
        <time>2025-02-16T13:34:25.000Z</time>
      </trkpt>
      <trkpt lat="43.57682" lon="6.16658">
        <ele>414.1</ele>
        <time>2025-02-16T13:34:31Z</time>
      </trkpt>
      <trkpt lat="43.57686" lon="6.16651">
        <ele>414.2</ele>
        <time>2025-02-16T13:34:36.500Z</time>
      </trkpt>
      <trkpt lat="43.5769" lon="6.16643">
        <ele>414.1</ele>
        <time>2025-02-16T13:34:42Z</time>
      </trkpt>
      <trkpt lat="43.57693" lon="6.16634">
        <ele>414.2</ele>
        <time>2025-02-16T13:34:47.000Z</time>
      </trkpt>
      <trkpt lat="43.57696" lon="6.16625">
        <ele>414.6</ele>
        <time>2025-02-16T13:34:52Z</time>
      </trkpt>
      <trkpt lat="43.57699" lon="6.1662">
        <ele>415.1</ele>
        <time>2025-02-16T13:34:56.500Z</time>
      </trkpt>
      <trkpt lat="43.57703" lon="6.16615">
        <ele>415.5</ele>
        <time>2025-02-16T13:35:01Z</time>
      </trkpt>
      <trkpt lat="43.57706" lon="6.16609">
        <ele>415.9</ele>
        <time>2025-02-16T13:35:06.000Z</time>
      </trkpt>
      <trkpt lat="43.57709" lon="6.16602">
        <ele>416.2</ele>
        <time>2025-02-16T13:35:11Z</time>
      </trkpt>
      <trkpt lat="43.57713" lon="6.16596">
        <ele>416.5</ele>
        <time>2025-02-16T13:35:16.500Z</time>
      </trkpt>
      <trkpt lat="43.57717" lon="6.1659">
        <ele>416.8</ele>
        <time>2025-02-16T13:35:22Z</time>
      </trkpt>
      <trkpt lat="43.57722" lon="6.16585">
        <ele>417</ele>
        <time>2025-02-16T13:35:26.500Z</time>
      </trkpt>
      <trkpt lat="43.57726" lon="6.1658">
        <ele>417.5</ele>
        <time>2025-02-16T13:35:31Z</time>
      </trkpt>
      <trkpt lat="43.57731" lon="6.16576">
        <ele>417.9</ele>
        <time>2025-02-16T13:35:36.000Z</time>
      </trkpt>
      <trkpt lat="43.57735" lon="6.16572">
        <ele>418.3</ele>
        <time>2025-02-16T13:35:41Z</time>
      </trkpt>
      <trkpt lat="43.57739" lon="6.16568">
        <ele>418.4</ele>
        <time>2025-02-16T13:35:45.500Z</time>
      </trkpt>
      <trkpt lat="43.57743" lon="6.16564">
        <ele>418.4</ele>
        <time>2025-02-16T13:35:50Z</time>
      </trkpt>
      <trkpt lat="43.57748" lon="6.16561">
        <ele>418.3</ele>
        <time>2025-02-16T13:35:55.500Z</time>
      </trkpt>
      <trkpt lat="43.57753" lon="6.16557">
        <ele>418.5</ele>
        <time>2025-02-16T13:36:01Z</time>
      </trkpt>
      <trkpt lat="43.57758" lon="6.16549">
        <ele>419.5</ele>
        <time>2025-02-16T13:36:18Z</time>
      </trkpt>
      <trkpt lat="43.57753" lon="6.16542">
        <ele>419.4</ele>
        <time>2025-02-16T13:36:55.259Z</time>
      </trkpt>
      <trkpt lat="43.5776" lon="6.16542">
        <ele>420.2</ele>
        <time>2025-02-16T13:37:29Z</time>
      </trkpt>
      <trkpt lat="43.57763" lon="6.16535">
        <ele>420.9</ele>
        <time>2025-02-16T13:37:51Z</time>
      </trkpt>
      <trkpt lat="43.57763" lon="6.16528">
        <ele>421.4</ele>
        <time>2025-02-16T13:37:57.000Z</time>
      </trkpt>
      <trkpt lat="43.57763" lon="6.1652">
        <ele>421.7</ele>
        <time>2025-02-16T13:38:03Z</time>
      </trkpt>
      <trkpt lat="43.57762" lon="6.16512">
        <ele>422</ele>
        <time>2025-02-16T13:38:08.999Z</time>
      </trkpt>
      <trkpt lat="43.57762" lon="6.16503">
        <ele>422.3</ele>
        <time>2025-02-16T13:38:15Z</time>
      </trkpt>
      <trkpt lat="43.57761" lon="6.16495">
        <ele>422.4</ele>
        <time>2025-02-16T13:38:19.184Z</time>
      </trkpt>
      <trkpt lat="43.57759" lon="6.16488">
        <ele>422.3</ele>
        <time>2025-02-16T13:38:22.591Z</time>
      </trkpt>
      <trkpt lat="43.57757" lon="6.16482">
        <ele>422.3</ele>
        <time>2025-02-16T13:38:26Z</time>
      </trkpt>
      <trkpt lat="43.57754" lon="6.16474">
        <ele>422.1</ele>
        <time>2025-02-16T13:38:29.999Z</time>
      </trkpt>
      <trkpt lat="43.57751" lon="6.16466">
        <ele>422.5</ele>
        <time>2025-02-16T13:38:34Z</time>
      </trkpt>
      <trkpt lat="43.57747" lon="6.16462">
        <ele>422.9</ele>
        <time>2025-02-16T13:38:40.999Z</time>
      </trkpt>
      <trkpt lat="43.57743" lon="6.16459">
        <ele>423.6</ele>
        <time>2025-02-16T13:38:48Z</time>
      </trkpt>
      <trkpt lat="43.57737" lon="6.16463">
        <ele>423.6</ele>
        <time>2025-02-16T13:38:55.499Z</time>
      </trkpt>
      <trkpt lat="43.5773" lon="6.16467">
        <ele>423.5</ele>
        <time>2025-02-16T13:39:03Z</time>
      </trkpt>
      <trkpt lat="43.57725" lon="6.16471">
        <ele>423.1</ele>
        <time>2025-02-16T13:39:08.999Z</time>
      </trkpt>
      <trkpt lat="43.5772" lon="6.16475">
        <ele>423.2</ele>
        <time>2025-02-16T13:39:15Z</time>
      </trkpt>
      <trkpt lat="43.57714" lon="6.1648">
        <ele>423.5</ele>
        <time>2025-02-16T13:39:20.499Z</time>
      </trkpt>
      <trkpt lat="43.57708" lon="6.16485">
        <ele>423.4</ele>
        <time>2025-02-16T13:39:26Z</time>
      </trkpt>
      <trkpt lat="43.57701" lon="6.16491">
        <ele>422.7</ele>
        <time>2025-02-16T13:39:30.999Z</time>
      </trkpt>
      <trkpt lat="43.57693" lon="6.16497">
        <ele>421.5</ele>
        <time>2025-02-16T13:39:36Z</time>
      </trkpt>
      <trkpt lat="43.57694" lon="6.16506">
        <ele>420.8</ele>
        <time>2025-02-16T13:39:42.500Z</time>
      </trkpt>
      <trkpt lat="43.57694" lon="6.16515">
        <ele>420.4</ele>
        <time>2025-02-16T13:39:49Z</time>
      </trkpt>
      <trkpt lat="43.57692" lon="6.16522">
        <ele>420.2</ele>
        <time>2025-02-16T13:39:54.499Z</time>
      </trkpt>
      <trkpt lat="43.5769" lon="6.16529">
        <ele>419.9</ele>
        <time>2025-02-16T13:40:00Z</time>
      </trkpt>
      <trkpt lat="43.57683" lon="6.16536">
        <ele>419.6</ele>
        <time>2025-02-16T13:40:10Z</time>
      </trkpt>
      <trkpt lat="43.57677" lon="6.16539">
        <ele>419.4</ele>
        <time>2025-02-16T13:40:14.999Z</time>
      </trkpt>
      <trkpt lat="43.57671" lon="6.16541">
        <ele>419.1</ele>
        <time>2025-02-16T13:40:20Z</time>
      </trkpt>
      <trkpt lat="43.57668" lon="6.16546">
        <ele>418.7</ele>
        <time>2025-02-16T13:40:25.499Z</time>
      </trkpt>
      <trkpt lat="43.57665" lon="6.1655">
        <ele>418.5</ele>
        <time>2025-02-16T13:40:31Z</time>
      </trkpt>
      <trkpt lat="43.57662" lon="6.16553">
        <ele>418.4</ele>
        <time>2025-02-16T13:40:33.540Z</time>
      </trkpt>
      <trkpt lat="43.57659" lon="6.16561">
        <ele>417.9</ele>
        <time>2025-02-16T13:40:38.269Z</time>
      </trkpt>
      <trkpt lat="43.57656" lon="6.1657">
        <ele>417.4</ele>
        <time>2025-02-16T13:40:43Z</time>
      </trkpt>
      <trkpt lat="43.5765" lon="6.16576">
        <ele>417.2</ele>
        <time>2025-02-16T13:40:47.999Z</time>
      </trkpt>
      <trkpt lat="43.57644" lon="6.16581">
        <ele>417</ele>
        <time>2025-02-16T13:40:53Z</time>
      </trkpt>
      <trkpt lat="43.57639" lon="6.16586">
        <ele>416.9</ele>
        <time>2025-02-16T13:40:58.999Z</time>
      </trkpt>
      <trkpt lat="43.57633" lon="6.1659">
        <ele>417</ele>
        <time>2025-02-16T13:41:05Z</time>
      </trkpt>
      <trkpt lat="43.57627" lon="6.16584">
        <ele>417.4</ele>
        <time>2025-02-16T13:41:12.499Z</time>
      </trkpt>
      <trkpt lat="43.5762" lon="6.16579">
        <ele>417.8</ele>
        <time>2025-02-16T13:41:20Z</time>
      </trkpt>
      <trkpt lat="43.57615" lon="6.1657">
        <ele>418</ele>
        <time>2025-02-16T13:41:25.499Z</time>
      </trkpt>
      <trkpt lat="43.57609" lon="6.16562">
        <ele>418.2</ele>
        <time>2025-02-16T13:41:31Z</time>
      </trkpt>
      <trkpt lat="43.57609" lon="6.16553">
        <ele>418.1</ele>
        <time>2025-02-16T13:41:37.000Z</time>
      </trkpt>
      <trkpt lat="43.57609" lon="6.16544">
        <ele>417.8</ele>
        <time>2025-02-16T13:41:43Z</time>
      </trkpt>
      <trkpt lat="43.57608" lon="6.16533">
        <ele>417.4</ele>
        <time>2025-02-16T13:41:49.999Z</time>
      </trkpt>
      <trkpt lat="43.57608" lon="6.16522">
        <ele>417.2</ele>
        <time>2025-02-16T13:41:57Z</time>
      </trkpt>
      <trkpt lat="43.57605" lon="6.16511">
        <ele>417.2</ele>
        <time>2025-02-16T13:42:02.999Z</time>
      </trkpt>
      <trkpt lat="43.57602" lon="6.165">
        <ele>417</ele>
        <time>2025-02-16T13:42:09Z</time>
      </trkpt>
      <trkpt lat="43.57598" lon="6.16495">
        <ele>417</ele>
        <time>2025-02-16T13:42:13.999Z</time>
      </trkpt>
      <trkpt lat="43.57594" lon="6.16489">
        <ele>416.9</ele>
        <time>2025-02-16T13:42:19Z</time>
      </trkpt>
      <trkpt lat="43.57588" lon="6.16483">
        <ele>416.6</ele>
        <time>2025-02-16T13:42:26.499Z</time>
      </trkpt>
      <trkpt lat="43.57582" lon="6.16478">
        <ele>416.2</ele>
        <time>2025-02-16T13:42:34Z</time>
      </trkpt>
      <trkpt lat="43.57575" lon="6.16473">
        <ele>415.8</ele>
        <time>2025-02-16T13:42:40.999Z</time>
      </trkpt>
      <trkpt lat="43.57569" lon="6.16468">
        <ele>415.4</ele>
        <time>2025-02-16T13:42:48Z</time>
      </trkpt>
      <trkpt lat="43.57562" lon="6.16466">
        <ele>415.1</ele>
        <time>2025-02-16T13:42:54.000Z</time>
      </trkpt>
      <trkpt lat="43.57555" lon="6.16465">
        <ele>414.7</ele>
        <time>2025-02-16T13:43:00Z</time>
      </trkpt>
      <trkpt lat="43.57549" lon="6.16466">
        <ele>414.7</ele>
        <time>2025-02-16T13:43:06.500Z</time>
      </trkpt>
      <trkpt lat="43.57543" lon="6.16467">
        <ele>414.7</ele>
        <time>2025-02-16T13:43:13Z</time>
      </trkpt>
      <trkpt lat="43.57535" lon="6.16467">
        <ele>414.7</ele>
        <time>2025-02-16T13:43:18.500Z</time>
      </trkpt>
      <trkpt lat="43.57527" lon="6.16468">
        <ele>414.6</ele>
        <time>2025-02-16T13:43:24Z</time>
      </trkpt>
      <trkpt lat="43.57519" lon="6.16471">
        <ele>414.3</ele>
        <time>2025-02-16T13:43:28.999Z</time>
      </trkpt>
      <trkpt lat="43.57512" lon="6.16475">
        <ele>414.1</ele>
        <time>2025-02-16T13:43:34Z</time>
      </trkpt>
      <trkpt lat="43.57508" lon="6.16479">
        <ele>414.4</ele>
        <time>2025-02-16T13:43:38.999Z</time>
      </trkpt>
      <trkpt lat="43.57504" lon="6.16484">
        <ele>414.6</ele>
        <time>2025-02-16T13:43:44Z</time>
      </trkpt>
      <trkpt lat="43.57499" lon="6.16487">
        <ele>414.5</ele>
        <time>2025-02-16T13:43:49.499Z</time>
      </trkpt>
      <trkpt lat="43.57495" lon="6.1649">
        <ele>414.7</ele>
        <time>2025-02-16T13:43:55Z</time>
      </trkpt>
      <trkpt lat="43.57487" lon="6.16488">
        <ele>414.2</ele>
        <time>2025-02-16T13:44:03.999Z</time>
      </trkpt>
      <trkpt lat="43.57479" lon="6.16486">
        <ele>413.7</ele>
        <time>2025-02-16T13:44:13Z</time>
      </trkpt>
      <trkpt lat="43.57471" lon="6.16484">
        <ele>413.2</ele>
        <time>2025-02-16T13:44:18.999Z</time>
      </trkpt>
      <trkpt lat="43.57464" lon="6.16482">
        <ele>412.8</ele>
        <time>2025-02-16T13:44:25Z</time>
      </trkpt>
      <trkpt lat="43.57459" lon="6.16482">
        <ele>412.7</ele>
        <time>2025-02-16T13:44:27.750Z</time>
      </trkpt>
      <trkpt lat="43.57454" lon="6.16482">
        <ele>412.6</ele>
        <time>2025-02-16T13:44:30.500Z</time>
      </trkpt>
      <trkpt lat="43.5745" lon="6.16482">
        <ele>412.5</ele>
        <time>2025-02-16T13:44:33.250Z</time>
      </trkpt>
      <trkpt lat="43.57445" lon="6.16482">
        <ele>412.4</ele>
        <time>2025-02-16T13:44:36Z</time>
      </trkpt>
      <trkpt lat="43.5744" lon="6.16482">
        <ele>412.2</ele>
        <time>2025-02-16T13:44:41.500Z</time>
      </trkpt>
      <trkpt lat="43.57435" lon="6.16483">
        <ele>412.1</ele>
        <time>2025-02-16T13:44:47Z</time>
      </trkpt>
      <trkpt lat="43.5743" lon="6.16481">
        <ele>411.3</ele>
        <time>2025-02-16T13:44:53.499Z</time>
      </trkpt>
      <trkpt lat="43.57425" lon="6.16478">
        <ele>410.6</ele>
        <time>2025-02-16T13:45:00Z</time>
      </trkpt>
      <trkpt lat="43.57418" lon="6.16477">
        <ele>410</ele>
        <time>2025-02-16T13:45:07.000Z</time>
      </trkpt>
      <trkpt lat="43.57412" lon="6.16476">
        <ele>409.3</ele>
        <time>2025-02-16T13:45:14Z</time>
      </trkpt>
      <trkpt lat="43.57406" lon="6.16479">
        <ele>409.3</ele>
        <time>2025-02-16T13:45:18.999Z</time>
      </trkpt>
      <trkpt lat="43.57401" lon="6.16482">
        <ele>409.2</ele>
        <time>2025-02-16T13:45:24Z</time>
      </trkpt>
      <trkpt lat="43.57395" lon="6.16478">
        <ele>408.1</ele>
        <time>2025-02-16T13:45:29.429Z</time>
      </trkpt>
      <trkpt lat="43.57391" lon="6.1648">
        <ele>408</ele>
        <time>2025-02-16T13:45:33.214Z</time>
      </trkpt>
      <trkpt lat="43.57386" lon="6.16482">
        <ele>407.8</ele>
        <time>2025-02-16T13:45:37Z</time>
      </trkpt>
      <trkpt lat="43.57381" lon="6.16485">
        <ele>407.5</ele>
        <time>2025-02-16T13:45:43.499Z</time>
      </trkpt>
      <trkpt lat="43.57376" lon="6.16487">
        <ele>407.2</ele>
        <time>2025-02-16T13:45:50Z</time>
      </trkpt>
      <trkpt lat="43.57371" lon="6.16493">
        <ele>407.3</ele>
        <time>2025-02-16T13:45:54.151Z</time>
      </trkpt>
      <trkpt lat="43.57366" lon="6.16496">
        <ele>407</ele>
        <time>2025-02-16T13:45:58.075Z</time>
      </trkpt>
      <trkpt lat="43.5736" lon="6.16499">
        <ele>406.7</ele>
        <time>2025-02-16T13:46:02Z</time>
      </trkpt>
      <trkpt lat="43.57355" lon="6.16503">
        <ele>406.4</ele>
        <time>2025-02-16T13:46:07.499Z</time>
      </trkpt>
      <trkpt lat="43.5735" lon="6.16508">
        <ele>406</ele>
        <time>2025-02-16T13:46:13Z</time>
      </trkpt>
      <trkpt lat="43.57346" lon="6.16515">
        <ele>406.2</ele>
        <time>2025-02-16T13:46:18.999Z</time>
      </trkpt>
      <trkpt lat="43.57342" lon="6.16521">
        <ele>406.4</ele>
        <time>2025-02-16T13:46:25Z</time>
      </trkpt>
      <trkpt lat="43.57338" lon="6.16531">
        <ele>406.8</ele>
        <time>2025-02-16T13:46:30.999Z</time>
      </trkpt>
      <trkpt lat="43.57335" lon="6.1654">
        <ele>406.6</ele>
        <time>2025-02-16T13:46:37Z</time>
      </trkpt>
      <trkpt lat="43.57331" lon="6.16551">
        <ele>406.3</ele>
        <time>2025-02-16T13:46:42.999Z</time>
      </trkpt>
      <trkpt lat="43.57328" lon="6.16561">
        <ele>406</ele>
        <time>2025-02-16T13:46:49Z</time>
      </trkpt>
      <trkpt lat="43.57327" lon="6.16569">
        <ele>406.1</ele>
        <time>2025-02-16T13:46:53.999Z</time>
      </trkpt>
      <trkpt lat="43.57325" lon="6.16576">
        <ele>406.3</ele>
        <time>2025-02-16T13:46:59Z</time>
      </trkpt>
      <trkpt lat="43.57326" lon="6.16583">
        <ele>406.8</ele>
        <time>2025-02-16T13:47:03.500Z</time>
      </trkpt>
      <trkpt lat="43.57326" lon="6.1659">
        <ele>407.2</ele>
        <time>2025-02-16T13:47:08Z</time>
      </trkpt>
      <trkpt lat="43.57327" lon="6.16597">
        <ele>407.9</ele>
        <time>2025-02-16T13:47:13.500Z</time>
      </trkpt>
      <trkpt lat="43.57329" lon="6.16604">
        <ele>408.5</ele>
        <time>2025-02-16T13:47:19Z</time>
      </trkpt>
      <trkpt lat="43.57331" lon="6.16612">
        <ele>409.3</ele>
        <time>2025-02-16T13:47:25.000Z</time>
      </trkpt>
      <trkpt lat="43.57333" lon="6.1662">
        <ele>409.6</ele>
        <time>2025-02-16T13:47:31Z</time>
      </trkpt>
      <trkpt lat="43.57334" lon="6.16626">
        <ele>409.6</ele>
        <time>2025-02-16T13:47:36.500Z</time>
      </trkpt>
      <trkpt lat="43.57335" lon="6.16633">
        <ele>409.6</ele>
        <time>2025-02-16T13:47:42Z</time>
      </trkpt>
      <trkpt lat="43.57335" lon="6.1664">
        <ele>409.3</ele>
        <time>2025-02-16T13:47:47.000Z</time>
      </trkpt>
      <trkpt lat="43.57335" lon="6.16647">
        <ele>409</ele>
        <time>2025-02-16T13:47:52Z</time>
      </trkpt>
      <trkpt lat="43.57335" lon="6.16653">
        <ele>408.8</ele>
        <time>2025-02-16T13:47:57.500Z</time>
      </trkpt>
      <trkpt lat="43.57335" lon="6.16659">
        <ele>408.5</ele>
        <time>2025-02-16T13:48:03Z</time>
      </trkpt>
      <trkpt lat="43.57334" lon="6.16667">
        <ele>408</ele>
        <time>2025-02-16T13:48:08.499Z</time>
      </trkpt>
      <trkpt lat="43.57332" lon="6.16675">
        <ele>407.5</ele>
        <time>2025-02-16T13:48:14Z</time>
      </trkpt>
      <trkpt lat="43.5733" lon="6.16681">
        <ele>407.1</ele>
        <time>2025-02-16T13:48:18.999Z</time>
      </trkpt>
      <trkpt lat="43.57328" lon="6.16687">
        <ele>406.7</ele>
        <time>2025-02-16T13:48:24Z</time>
      </trkpt>
      <trkpt lat="43.57333" lon="6.16696">
        <ele>406.7</ele>
        <time>2025-02-16T13:48:44Z</time>
      </trkpt>
      <trkpt lat="43.57338" lon="6.16701">
        <ele>406</ele>
        <time>2025-02-16T13:48:58.500Z</time>
      </trkpt>
      <trkpt lat="43.57342" lon="6.16706">
        <ele>405.4</ele>
        <time>2025-02-16T13:49:13Z</time>
      </trkpt>
      <trkpt lat="43.57344" lon="6.16698">
        <ele>406.9</ele>
        <time>2025-02-16T13:49:37Z</time>
      </trkpt>
      <trkpt lat="43.57338" lon="6.16698">
        <ele>406.5</ele>
        <time>2025-02-16T13:50:17Z</time>
      </trkpt>
      <trkpt lat="43.57336" lon="6.16697">
        <ele>406.7</ele>
        <time>2025-02-16T13:50:59Z</time>
      </trkpt>
      <trkpt lat="43.57333" lon="6.16694">
        <ele>407</ele>
        <time>2025-02-16T13:51:29Z</time>
      </trkpt>
      <trkpt lat="43.5733" lon="6.16688">
        <ele>406.8</ele>
        <time>2025-02-16T13:51:49Z</time>
      </trkpt>
      <trkpt lat="43.57329" lon="6.16695">
        <ele>406.4</ele>
        <time>2025-02-16T13:51:55.999Z</time>
      </trkpt>
      <trkpt lat="43.57328" lon="6.16703">
        <ele>405.1</ele>
        <time>2025-02-16T13:52:03Z</time>
      </trkpt>
      <trkpt lat="43.57326" lon="6.16711">
        <ele>403.7</ele>
        <time>2025-02-16T13:52:08.499Z</time>
      </trkpt>
      <trkpt lat="43.57324" lon="6.16719">
        <ele>402.5</ele>
        <time>2025-02-16T13:52:14Z</time>
      </trkpt>
      <trkpt lat="43.57323" lon="6.16727">
        <ele>401.4</ele>
        <time>2025-02-16T13:52:18.499Z</time>
      </trkpt>
      <trkpt lat="43.57322" lon="6.16734">
        <ele>400.3</ele>
        <time>2025-02-16T13:52:23Z</time>
      </trkpt>
      <trkpt lat="43.57321" lon="6.16741">
        <ele>399.3</ele>
        <time>2025-02-16T13:52:26.999Z</time>
      </trkpt>
      <trkpt lat="43.5732" lon="6.16747">
        <ele>398.4</ele>
        <time>2025-02-16T13:52:31Z</time>
      </trkpt>
      <trkpt lat="43.57316" lon="6.16751">
        <ele>397.8</ele>
        <time>2025-02-16T13:52:35.999Z</time>
      </trkpt>
      <trkpt lat="43.57312" lon="6.16755">
        <ele>397.3</ele>
        <time>2025-02-16T13:52:41Z</time>
      </trkpt>
      <trkpt lat="43.57309" lon="6.16761">
        <ele>396.5</ele>
        <time>2025-02-16T13:52:48.499Z</time>
      </trkpt>
      <trkpt lat="43.57306" lon="6.16766">
        <ele>395.7</ele>
        <time>2025-02-16T13:52:56Z</time>
      </trkpt>
      <trkpt lat="43.57306" lon="6.16769">
        <ele>395.3</ele>
        <time>2025-02-16T13:53:22Z</time>
      </trkpt>
      <trkpt lat="43.5731" lon="6.16773">
        <ele>394.8</ele>
        <time>2025-02-16T13:53:47Z</time>
      </trkpt>
      <trkpt lat="43.57315" lon="6.16779">
        <ele>394.3</ele>
        <time>2025-02-16T13:53:52.500Z</time>
      </trkpt>
      <trkpt lat="43.5732" lon="6.16784">
        <ele>394</ele>
        <time>2025-02-16T13:53:58Z</time>
      </trkpt>
      <trkpt lat="43.57326" lon="6.1679">
        <ele>393.7</ele>
        <time>2025-02-16T13:54:03.500Z</time>
      </trkpt>
      <trkpt lat="43.57331" lon="6.16796">
        <ele>393.6</ele>
        <time>2025-02-16T13:54:09Z</time>
      </trkpt>
      <trkpt lat="43.57336" lon="6.168">
        <ele>393.6</ele>
        <time>2025-02-16T13:54:13.500Z</time>
      </trkpt>
      <trkpt lat="43.57341" lon="6.16805">
        <ele>393.6</ele>
        <time>2025-02-16T13:54:18Z</time>
      </trkpt>
      <trkpt lat="43.57344" lon="6.16813">
        <ele>393.2</ele>
        <time>2025-02-16T13:54:22.500Z</time>
      </trkpt>
      <trkpt lat="43.57348" lon="6.16821">
        <ele>392.6</ele>
        <time>2025-02-16T13:54:27Z</time>
      </trkpt>
      <trkpt lat="43.5735" lon="6.16828">
        <ele>392.1</ele>
        <time>2025-02-16T13:54:31.500Z</time>
      </trkpt>
      <trkpt lat="43.57352" lon="6.16835">
        <ele>391.5</ele>
        <time>2025-02-16T13:54:36Z</time>
      </trkpt>
      <trkpt lat="43.57357" lon="6.16837">
        <ele>391.5</ele>
        <time>2025-02-16T13:54:41.500Z</time>
      </trkpt>
      <trkpt lat="43.57362" lon="6.16838">
        <ele>391.5</ele>
        <time>2025-02-16T13:54:47Z</time>
      </trkpt>
      <trkpt lat="43.57367" lon="6.16841">
        <ele>391.4</ele>
        <time>2025-02-16T13:54:52.500Z</time>
      </trkpt>
      <trkpt lat="43.57373" lon="6.16843">
        <ele>391.3</ele>
        <time>2025-02-16T13:54:58Z</time>
      </trkpt>
      <trkpt lat="43.57378" lon="6.16849">
        <ele>390.9</ele>
        <time>2025-02-16T13:55:04.000Z</time>
      </trkpt>
      <trkpt lat="43.57383" lon="6.16855">
        <ele>390.5</ele>
        <time>2025-02-16T13:55:10Z</time>
      </trkpt>
      <trkpt lat="43.57387" lon="6.16861">
        <ele>390</ele>
        <time>2025-02-16T13:55:15.500Z</time>
      </trkpt>
      <trkpt lat="43.57391" lon="6.16867">
        <ele>390.7</ele>
        <time>2025-02-16T13:55:21Z</time>
      </trkpt>
      <trkpt lat="43.57394" lon="6.16879">
        <ele>391.4</ele>
        <time>2025-02-16T13:55:26.500Z</time>
      </trkpt>
      <trkpt lat="43.57396" lon="6.16891">
        <ele>392</ele>
        <time>2025-02-16T13:55:32Z</time>
      </trkpt>
      <trkpt lat="43.57398" lon="6.16897">
        <ele>392.2</ele>
        <time>2025-02-16T13:55:37.500Z</time>
      </trkpt>
      <trkpt lat="43.57399" lon="6.16903">
        <ele>392.3</ele>
        <time>2025-02-16T13:55:43Z</time>
      </trkpt>
      <trkpt lat="43.574" lon="6.16911">
        <ele>392.3</ele>
        <time>2025-02-16T13:55:48.000Z</time>
      </trkpt>
      <trkpt lat="43.57402" lon="6.16919">
        <ele>392.2</ele>
        <time>2025-02-16T13:55:53Z</time>
      </trkpt>
      <trkpt lat="43.57404" lon="6.16929">
        <ele>392</ele>
        <time>2025-02-16T13:55:58.000Z</time>
      </trkpt>
      <trkpt lat="43.57407" lon="6.16938">
        <ele>391.9</ele>
        <time>2025-02-16T13:56:03Z</time>
      </trkpt>
      <trkpt lat="43.57399" lon="6.16945">
        <ele>390.5</ele>
        <time>2025-02-16T13:56:13Z</time>
      </trkpt>
      <trkpt lat="43.57391" lon="6.1695">
        <ele>389.3</ele>
        <time>2025-02-16T13:56:22Z</time>
      </trkpt>
      <trkpt lat="43.57389" lon="6.16953">
        <ele>389</ele>
        <time>2025-02-16T13:56:23.525Z</time>
      </trkpt>
      <trkpt lat="43.57384" lon="6.16958">
        <ele>388.3</ele>
        <time>2025-02-16T13:56:26.131Z</time>
      </trkpt>
      <trkpt lat="43.57382" lon="6.16964">
        <ele>388</ele>
        <time>2025-02-16T13:56:28.065Z</time>
      </trkpt>
      <trkpt lat="43.5738" lon="6.1697">
        <ele>387.8</ele>
        <time>2025-02-16T13:56:30Z</time>
      </trkpt>
      <trkpt lat="43.57378" lon="6.16976">
        <ele>387.2</ele>
        <time>2025-02-16T13:56:33.999Z</time>
      </trkpt>
      <trkpt lat="43.57375" lon="6.16981">
        <ele>386.5</ele>
        <time>2025-02-16T13:56:38Z</time>
      </trkpt>
      <trkpt lat="43.57372" lon="6.16993">
        <ele>385.7</ele>
        <time>2025-02-16T13:56:49Z</time>
      </trkpt>
      <trkpt lat="43.57371" lon="6.17001">
        <ele>385.3</ele>
        <time>2025-02-16T13:56:53.499Z</time>
      </trkpt>
      <trkpt lat="43.5737" lon="6.1701">
        <ele>384.6</ele>
        <time>2025-02-16T13:56:58Z</time>
      </trkpt>
      <trkpt lat="43.57368" lon="6.17018">
        <ele>384</ele>
        <time>2025-02-16T13:57:01.999Z</time>
      </trkpt>
      <trkpt lat="43.57366" lon="6.17025">
        <ele>383.4</ele>
        <time>2025-02-16T13:57:06Z</time>
      </trkpt>
      <trkpt lat="43.57361" lon="6.17035">
        <ele>382.7</ele>
        <time>2025-02-16T13:57:14Z</time>
      </trkpt>
      <trkpt lat="43.57357" lon="6.17039">
        <ele>382.5</ele>
        <time>2025-02-16T13:57:17.954Z</time>
      </trkpt>
      <trkpt lat="43.57353" lon="6.17045">
        <ele>382.3</ele>
        <time>2025-02-16T13:57:23Z</time>
      </trkpt>
      <trkpt lat="43.5735" lon="6.1705">
        <ele>382.4</ele>
        <time>2025-02-16T13:57:27.499Z</time>
      </trkpt>
      <trkpt lat="43.57347" lon="6.17054">
        <ele>382.5</ele>
        <time>2025-02-16T13:57:32Z</time>
      </trkpt>
      <trkpt lat="43.57342" lon="6.17062">
        <ele>382.5</ele>
        <time>2025-02-16T13:57:36.499Z</time>
      </trkpt>
      <trkpt lat="43.57338" lon="6.17069">
        <ele>382.4</ele>
        <time>2025-02-16T13:57:41Z</time>
      </trkpt>
      <trkpt lat="43.57334" lon="6.17077">
        <ele>382.2</ele>
        <time>2025-02-16T13:57:44.671Z</time>
      </trkpt>
      <trkpt lat="43.57337" lon="6.17083">
        <ele>381.9</ele>
        <time>2025-02-16T13:57:47.835Z</time>
      </trkpt>
      <trkpt lat="43.5734" lon="6.17089">
        <ele>381.8</ele>
        <time>2025-02-16T13:57:51Z</time>
      </trkpt>
      <trkpt lat="43.57335" lon="6.17095">
        <ele>382.3</ele>
        <time>2025-02-16T13:57:54.667Z</time>
      </trkpt>
      <trkpt lat="43.57339" lon="6.17099">
        <ele>382.1</ele>
        <time>2025-02-16T13:57:57.333Z</time>
      </trkpt>
      <trkpt lat="43.57342" lon="6.17104">
        <ele>381.7</ele>
        <time>2025-02-16T13:58:00Z</time>
      </trkpt>
      <trkpt lat="43.57346" lon="6.17108">
        <ele>381.2</ele>
        <time>2025-02-16T13:58:04.500Z</time>
      </trkpt>
      <trkpt lat="43.5735" lon="6.17112">
        <ele>380.6</ele>
        <time>2025-02-16T13:58:09Z</time>
      </trkpt>
      <trkpt lat="43.57353" lon="6.17118">
        <ele>380</ele>
        <time>2025-02-16T13:58:13.500Z</time>
      </trkpt>
      <trkpt lat="43.57357" lon="6.17125">
        <ele>379.4</ele>
        <time>2025-02-16T13:58:18Z</time>
      </trkpt>
      <trkpt lat="43.57359" lon="6.17132">
        <ele>379.2</ele>
        <time>2025-02-16T13:58:22.500Z</time>
      </trkpt>
      <trkpt lat="43.57361" lon="6.1714">
        <ele>379</ele>
        <time>2025-02-16T13:58:27Z</time>
      </trkpt>
      <trkpt lat="43.57362" lon="6.17151">
        <ele>378.5</ele>
        <time>2025-02-16T13:58:31.500Z</time>
      </trkpt>
      <trkpt lat="43.57363" lon="6.17162">
        <ele>378.1</ele>
        <time>2025-02-16T13:58:36Z</time>
      </trkpt>
      <trkpt lat="43.57363" lon="6.17171">
        <ele>377.7</ele>
        <time>2025-02-16T13:58:41.000Z</time>
      </trkpt>
      <trkpt lat="43.57364" lon="6.1718">
        <ele>377.4</ele>
        <time>2025-02-16T13:58:46Z</time>
      </trkpt>
      <trkpt lat="43.57365" lon="6.17187">
        <ele>377.1</ele>
        <time>2025-02-16T13:58:51.000Z</time>
      </trkpt>
      <trkpt lat="43.57366" lon="6.17195">
        <ele>376.8</ele>
        <time>2025-02-16T13:58:56Z</time>
      </trkpt>
      <trkpt lat="43.57368" lon="6.17204">
        <ele>376.7</ele>
        <time>2025-02-16T13:59:00.500Z</time>
      </trkpt>
      <trkpt lat="43.57371" lon="6.17213">
        <ele>376.4</ele>
        <time>2025-02-16T13:59:05Z</time>
      </trkpt>
      <trkpt lat="43.57372" lon="6.17223">
        <ele>376.2</ele>
        <time>2025-02-16T13:59:09.500Z</time>
      </trkpt>
      <trkpt lat="43.57374" lon="6.17233">
        <ele>375.7</ele>
        <time>2025-02-16T13:59:14Z</time>
      </trkpt>
      <trkpt lat="43.57374" lon="6.17241">
        <ele>375.4</ele>
        <time>2025-02-16T13:59:19.000Z</time>
      </trkpt>
      <trkpt lat="43.57374" lon="6.17249">
        <ele>375.1</ele>
        <time>2025-02-16T13:59:24Z</time>
      </trkpt>
      <trkpt lat="43.57374" lon="6.17259">
        <ele>374.7</ele>
        <time>2025-02-16T13:59:35Z</time>
      </trkpt>
      <trkpt lat="43.57372" lon="6.17268">
        <ele>374.5</ele>
        <time>2025-02-16T13:59:39.999Z</time>
      </trkpt>
      <trkpt lat="43.5737" lon="6.17276">
        <ele>374.1</ele>
        <time>2025-02-16T13:59:45Z</time>
      </trkpt>
      <trkpt lat="43.57368" lon="6.17283">
        <ele>373.8</ele>
        <time>2025-02-16T13:59:49.999Z</time>
      </trkpt>
      <trkpt lat="43.57367" lon="6.17291">
        <ele>373.5</ele>
        <time>2025-02-16T13:59:55Z</time>
      </trkpt>
      <trkpt lat="43.57363" lon="6.17299">
        <ele>373.2</ele>
        <time>2025-02-16T14:00:00.499Z</time>
      </trkpt>
      <trkpt lat="43.57359" lon="6.17307">
        <ele>373.3</ele>
        <time>2025-02-16T14:00:06Z</time>
      </trkpt>
      <trkpt lat="43.57355" lon="6.17311">
        <ele>373.8</ele>
        <time>2025-02-16T14:00:11.499Z</time>
      </trkpt>
      <trkpt lat="43.5735" lon="6.17316">
        <ele>374</ele>
        <time>2025-02-16T14:00:17Z</time>
      </trkpt>
      <trkpt lat="43.57343" lon="6.1732">
        <ele>374.2</ele>
        <time>2025-02-16T14:00:23.499Z</time>
      </trkpt>
      <trkpt lat="43.57336" lon="6.17325">
        <ele>374</ele>
        <time>2025-02-16T14:00:30Z</time>
      </trkpt>
      <trkpt lat="43.57328" lon="6.17329">
        <ele>374.4</ele>
        <time>2025-02-16T14:00:41Z</time>
      </trkpt>
      <trkpt lat="43.57321" lon="6.17334">
        <ele>374.3</ele>
        <time>2025-02-16T14:00:46.499Z</time>
      </trkpt>
      <trkpt lat="43.57313" lon="6.17338">
        <ele>374.6</ele>
        <time>2025-02-16T14:00:52Z</time>
      </trkpt>
      <trkpt lat="43.57307" lon="6.17343">
        <ele>374.5</ele>
        <time>2025-02-16T14:00:57.999Z</time>
      </trkpt>
      <trkpt lat="43.57302" lon="6.17347">
        <ele>374.6</ele>
        <time>2025-02-16T14:01:04Z</time>
      </trkpt>
      <trkpt lat="43.57297" lon="6.17352">
        <ele>374.4</ele>
        <time>2025-02-16T14:01:10.499Z</time>
      </trkpt>
      <trkpt lat="43.57293" lon="6.17357">
        <ele>374.2</ele>
        <time>2025-02-16T14:01:17Z</time>
      </trkpt>
      <trkpt lat="43.57284" lon="6.17361">
        <ele>374.3</ele>
        <time>2025-02-16T14:01:22.999Z</time>
      </trkpt>
      <trkpt lat="43.57276" lon="6.17366">
        <ele>374.3</ele>
        <time>2025-02-16T14:01:29Z</time>
      </trkpt>
      <trkpt lat="43.57268" lon="6.17371">
        <ele>373.4</ele>
        <time>2025-02-16T14:01:35.499Z</time>
      </trkpt>
      <trkpt lat="43.57261" lon="6.17377">
        <ele>372.4</ele>
        <time>2025-02-16T14:01:42Z</time>
      </trkpt>
      <trkpt lat="43.57254" lon="6.17382">
        <ele>371.3</ele>
        <time>2025-02-16T14:01:47.499Z</time>
      </trkpt>
      <trkpt lat="43.57248" lon="6.17388">
        <ele>370</ele>
        <time>2025-02-16T14:01:53Z</time>
      </trkpt>
      <trkpt lat="43.57243" lon="6.17394">
        <ele>369.6</ele>
        <time>2025-02-16T14:02:01Z</time>
      </trkpt>
      <trkpt lat="43.57237" lon="6.17395">
        <ele>369.4</ele>
        <time>2025-02-16T14:02:05.500Z</time>
      </trkpt>
      <trkpt lat="43.57231" lon="6.17397">
        <ele>369.2</ele>
        <time>2025-02-16T14:02:10Z</time>
      </trkpt>
      <trkpt lat="43.57225" lon="6.17398">
        <ele>369.1</ele>
        <time>2025-02-16T14:02:15.500Z</time>
      </trkpt>
      <trkpt lat="43.57219" lon="6.17399">
        <ele>369</ele>
        <time>2025-02-16T14:02:21Z</time>
      </trkpt>
      <trkpt lat="43.57215" lon="6.17401">
        <ele>368.9</ele>
        <time>2025-02-16T14:02:24.500Z</time>
      </trkpt>
      <trkpt lat="43.5721" lon="6.17403">
        <ele>368.8</ele>
        <time>2025-02-16T14:02:28Z</time>
      </trkpt>
      <trkpt lat="43.57205" lon="6.17404">
        <ele>368.7</ele>
        <time>2025-02-16T14:02:32.000Z</time>
      </trkpt>
      <trkpt lat="43.572" lon="6.17406">
        <ele>368.5</ele>
        <time>2025-02-16T14:02:36Z</time>
      </trkpt>
      <trkpt lat="43.57195" lon="6.17408">
        <ele>368.4</ele>
        <time>2025-02-16T14:02:39.500Z</time>
      </trkpt>
      <trkpt lat="43.57191" lon="6.17409">
        <ele>368.2</ele>
        <time>2025-02-16T14:02:43Z</time>
      </trkpt>
      <trkpt lat="43.57186" lon="6.1741">
        <ele>368.2</ele>
        <time>2025-02-16T14:02:47.000Z</time>
      </trkpt>
      <trkpt lat="43.5718" lon="6.17411">
        <ele>368.1</ele>
        <time>2025-02-16T14:02:51Z</time>
      </trkpt>
      <trkpt lat="43.57175" lon="6.17411">
        <ele>368.1</ele>
        <time>2025-02-16T14:02:55.000Z</time>
      </trkpt>
      <trkpt lat="43.57169" lon="6.17412">
        <ele>368</ele>
        <time>2025-02-16T14:02:59Z</time>
      </trkpt>
      <trkpt lat="43.57161" lon="6.17416">
        <ele>368</ele>
        <time>2025-02-16T14:03:07Z</time>
      </trkpt>
      <trkpt lat="43.57156" lon="6.17416">
        <ele>368</ele>
        <time>2025-02-16T14:03:11.000Z</time>
      </trkpt>
      <trkpt lat="43.57151" lon="6.17417">
        <ele>368</ele>
        <time>2025-02-16T14:03:15Z</time>
      </trkpt>
      <trkpt lat="43.57146" lon="6.17419">
        <ele>368</ele>
        <time>2025-02-16T14:03:18.999Z</time>
      </trkpt>
      <trkpt lat="43.57141" lon="6.17421">
        <ele>368</ele>
        <time>2025-02-16T14:03:23Z</time>
      </trkpt>
      <trkpt lat="43.57135" lon="6.17423">
        <ele>368</ele>
        <time>2025-02-16T14:03:27.000Z</time>
      </trkpt>
      <trkpt lat="43.5713" lon="6.17424">
        <ele>368</ele>
        <time>2025-02-16T14:03:31Z</time>
      </trkpt>
      <trkpt lat="43.57125" lon="6.17425">
        <ele>368</ele>
        <time>2025-02-16T14:03:35.000Z</time>
      </trkpt>
      <trkpt lat="43.5712" lon="6.17427">
        <ele>368</ele>
        <time>2025-02-16T14:03:39Z</time>
      </trkpt>
      <trkpt lat="43.57115" lon="6.17428">
        <ele>368</ele>
        <time>2025-02-16T14:03:43.000Z</time>
      </trkpt>
      <trkpt lat="43.57111" lon="6.1743">
        <ele>368</ele>
        <time>2025-02-16T14:03:47Z</time>
      </trkpt>
      <trkpt lat="43.57106" lon="6.17432">
        <ele>368</ele>
        <time>2025-02-16T14:03:50.999Z</time>
      </trkpt>
      <trkpt lat="43.57101" lon="6.17434">
        <ele>368</ele>
        <time>2025-02-16T14:03:55Z</time>
      </trkpt>
      <trkpt lat="43.57096" lon="6.17436">
        <ele>368</ele>
        <time>2025-02-16T14:03:59.000Z</time>
      </trkpt>
      <trkpt lat="43.57091" lon="6.17437">
        <ele>368</ele>
        <time>2025-02-16T14:04:03Z</time>
      </trkpt>
      <trkpt lat="43.57086" lon="6.17438">
        <ele>368</ele>
        <time>2025-02-16T14:04:07.000Z</time>
      </trkpt>
      <trkpt lat="43.5708" lon="6.1744">
        <ele>367.9</ele>
        <time>2025-02-16T14:04:11Z</time>
      </trkpt>
      <trkpt lat="43.57075" lon="6.17441">
        <ele>367.7</ele>
        <time>2025-02-16T14:04:15.000Z</time>
      </trkpt>
      <trkpt lat="43.5707" lon="6.17442">
        <ele>367.5</ele>
        <time>2025-02-16T14:04:19Z</time>
      </trkpt>
      <trkpt lat="43.57065" lon="6.17443">
        <ele>367.4</ele>
        <time>2025-02-16T14:04:23.000Z</time>
      </trkpt>
      <trkpt lat="43.5706" lon="6.17444">
        <ele>367.2</ele>
        <time>2025-02-16T14:04:27Z</time>
      </trkpt>
      <trkpt lat="43.57056" lon="6.17446">
        <ele>367</ele>
        <time>2025-02-16T14:04:30.500Z</time>
      </trkpt>
      <trkpt lat="43.57051" lon="6.17447">
        <ele>367</ele>
        <time>2025-02-16T14:04:34Z</time>
      </trkpt>
      <trkpt lat="43.57046" lon="6.17449">
        <ele>367</ele>
        <time>2025-02-16T14:04:38.000Z</time>
      </trkpt>
      <trkpt lat="43.5704" lon="6.1745">
        <ele>367</ele>
        <time>2025-02-16T14:04:42Z</time>
      </trkpt>
      <trkpt lat="43.57032" lon="6.17453">
        <ele>367</ele>
        <time>2025-02-16T14:04:49Z</time>
      </trkpt>
      <trkpt lat="43.57027" lon="6.17454">
        <ele>367</ele>
        <time>2025-02-16T14:04:53.000Z</time>
      </trkpt>
      <trkpt lat="43.57022" lon="6.17455">
        <ele>367</ele>
        <time>2025-02-16T14:04:57Z</time>
      </trkpt>
      <trkpt lat="43.57017" lon="6.17456">
        <ele>367</ele>
        <time>2025-02-16T14:05:01.000Z</time>
      </trkpt>
      <trkpt lat="43.57012" lon="6.17458">
        <ele>367</ele>
        <time>2025-02-16T14:05:05Z</time>
      </trkpt>
      <trkpt lat="43.57007" lon="6.17459">
        <ele>367</ele>
        <time>2025-02-16T14:05:09.000Z</time>
      </trkpt>
      <trkpt lat="43.57002" lon="6.17461">
        <ele>367</ele>
        <time>2025-02-16T14:05:13Z</time>
      </trkpt>
      <trkpt lat="43.56998" lon="6.17463">
        <ele>367</ele>
        <time>2025-02-16T14:05:16.999Z</time>
      </trkpt>
      <trkpt lat="43.56993" lon="6.17465">
        <ele>367</ele>
        <time>2025-02-16T14:05:21Z</time>
      </trkpt>
      <trkpt lat="43.56987" lon="6.17467">
        <ele>367</ele>
        <time>2025-02-16T14:05:25.499Z</time>
      </trkpt>
      <trkpt lat="43.56982" lon="6.17469">
        <ele>367</ele>
        <time>2025-02-16T14:05:30Z</time>
      </trkpt>
      <trkpt lat="43.56976" lon="6.17471">
        <ele>367</ele>
        <time>2025-02-16T14:05:34.500Z</time>
      </trkpt>
      <trkpt lat="43.56971" lon="6.17473">
        <ele>367</ele>
        <time>2025-02-16T14:05:39Z</time>
      </trkpt>
      <trkpt lat="43.56964" lon="6.17476">
        <ele>367</ele>
        <time>2025-02-16T14:05:45.499Z</time>
      </trkpt>
      <trkpt lat="43.56957" lon="6.17478">
        <ele>367</ele>
        <time>2025-02-16T14:05:52Z</time>
      </trkpt>
      <trkpt lat="43.56953" lon="6.17479">
        <ele>367</ele>
        <time>2025-02-16T14:05:55.500Z</time>
      </trkpt>
      <trkpt lat="43.56948" lon="6.17479">
        <ele>367</ele>
        <time>2025-02-16T14:05:59.000Z</time>
      </trkpt>
      <trkpt lat="43.56944" lon="6.1748">
        <ele>367</ele>
        <time>2025-02-16T14:06:02.500Z</time>
      </trkpt>
      <trkpt lat="43.56939" lon="6.1748">
        <ele>366.9</ele>
        <time>2025-02-16T14:06:06Z</time>
      </trkpt>
      <trkpt lat="43.56932" lon="6.17482">
        <ele>366.7</ele>
        <time>2025-02-16T14:06:12.499Z</time>
      </trkpt>
      <trkpt lat="43.56925" lon="6.17484">
        <ele>366.6</ele>
        <time>2025-02-16T14:06:19Z</time>
      </trkpt>
      <trkpt lat="43.56918" lon="6.17488">
        <ele>366.6</ele>
        <time>2025-02-16T14:06:45.999Z</time>
      </trkpt>
      <trkpt lat="43.56911" lon="6.17492">
        <ele>366.8</ele>
        <time>2025-02-16T14:07:13Z</time>
      </trkpt>
      <trkpt lat="43.56907" lon="6.17493">
        <ele>366.8</ele>
        <time>2025-02-16T14:07:41Z</time>
      </trkpt>
      <trkpt lat="43.56904" lon="6.17493">
        <ele>366.9</ele>
        <time>2025-02-16T14:07:57Z</time>
      </trkpt>
      <trkpt lat="43.56898" lon="6.17494">
        <ele>366.9</ele>
        <time>2025-02-16T14:08:19.999Z</time>
      </trkpt>
      <trkpt lat="43.56893" lon="6.17495">
        <ele>367</ele>
        <time>2025-02-16T14:08:43Z</time>
      </trkpt>
      <trkpt lat="43.56887" lon="6.17495">
        <ele>367.2</ele>
        <time>2025-02-16T14:08:48.500Z</time>
      </trkpt>
      <trkpt lat="43.56881" lon="6.17495">
        <ele>367.9</ele>
        <time>2025-02-16T14:08:54Z</time>
      </trkpt>
      <trkpt lat="43.56878" lon="6.17501">
        <ele>368.1</ele>
        <time>2025-02-16T14:09:02.499Z</time>
      </trkpt>
      <trkpt lat="43.56876" lon="6.17506">
        <ele>368.4</ele>
        <time>2025-02-16T14:09:11Z</time>
      </trkpt>
      <trkpt lat="43.56876" lon="6.17515">
        <ele>368.4</ele>
        <time>2025-02-16T14:09:17.999Z</time>
      </trkpt>
      <trkpt lat="43.56875" lon="6.17524">
        <ele>368.5</ele>
        <time>2025-02-16T14:09:25Z</time>
      </trkpt>
      <trkpt lat="43.56875" lon="6.17534">
        <ele>368.3</ele>
        <time>2025-02-16T14:09:30.999Z</time>
      </trkpt>
      <trkpt lat="43.56874" lon="6.17544">
        <ele>368.1</ele>
        <time>2025-02-16T14:09:37Z</time>
      </trkpt>
      <trkpt lat="43.56872" lon="6.17553">
        <ele>368.1</ele>
        <time>2025-02-16T14:09:43.999Z</time>
      </trkpt>
      <trkpt lat="43.56871" lon="6.17562">
        <ele>368.1</ele>
        <time>2025-02-16T14:09:51Z</time>
      </trkpt>
      <trkpt lat="43.56868" lon="6.17572">
        <ele>368.1</ele>
        <time>2025-02-16T14:09:56.999Z</time>
      </trkpt>
      <trkpt lat="43.56866" lon="6.17583">
        <ele>368.1</ele>
        <time>2025-02-16T14:10:03Z</time>
      </trkpt>
      <trkpt lat="43.56864" lon="6.17592">
        <ele>368</ele>
        <time>2025-02-16T14:10:09.499Z</time>
      </trkpt>
      <trkpt lat="43.56861" lon="6.17602">
        <ele>367.7</ele>
        <time>2025-02-16T14:10:16Z</time>
      </trkpt>
      <trkpt lat="43.56859" lon="6.17611">
        <ele>367.4</ele>
        <time>2025-02-16T14:10:22.499Z</time>
      </trkpt>
      <trkpt lat="43.56856" lon="6.17619">
        <ele>367</ele>
        <time>2025-02-16T14:10:29Z</time>
      </trkpt>
      <trkpt lat="43.56852" lon="6.17629">
        <ele>366.8</ele>
        <time>2025-02-16T14:10:37.499Z</time>
      </trkpt>
      <trkpt lat="43.56848" lon="6.17639">
        <ele>366.8</ele>
        <time>2025-02-16T14:10:46Z</time>
      </trkpt>
      <trkpt lat="43.56844" lon="6.17644">
        <ele>367.5</ele>
        <time>2025-02-16T14:10:54.499Z</time>
      </trkpt>
      <trkpt lat="43.56841" lon="6.1765">
        <ele>368.4</ele>
        <time>2025-02-16T14:11:03Z</time>
      </trkpt>
      <trkpt lat="43.5684" lon="6.17654">
        <ele>368.3</ele>
        <time>2025-02-16T14:11:33Z</time>
      </trkpt>
      <trkpt lat="43.56843" lon="6.17662">
        <ele>367.7</ele>
        <time>2025-02-16T14:11:39.000Z</time>
      </trkpt>
      <trkpt lat="43.56845" lon="6.17669">
        <ele>366.9</ele>
        <time>2025-02-16T14:11:45Z</time>
      </trkpt>
      <trkpt lat="43.56847" lon="6.17679">
        <ele>365.9</ele>
        <time>2025-02-16T14:11:51.500Z</time>
      </trkpt>
      <trkpt lat="43.56849" lon="6.17689">
        <ele>365</ele>
        <time>2025-02-16T14:11:58Z</time>
      </trkpt>
      <trkpt lat="43.5685" lon="6.17699">
        <ele>364.2</ele>
        <time>2025-02-16T14:12:05.000Z</time>
      </trkpt>
      <trkpt lat="43.56852" lon="6.17709">
        <ele>364</ele>
        <time>2025-02-16T14:12:12Z</time>
      </trkpt>
      <trkpt lat="43.56854" lon="6.17714">
        <ele>364</ele>
        <time>2025-02-16T14:12:43Z</time>
      </trkpt>
      <trkpt lat="43.56857" lon="6.17719">
        <ele>364.4</ele>
        <time>2025-02-16T14:13:01Z</time>
      </trkpt>
      <trkpt lat="43.56865" lon="6.17724">
        <ele>364.8</ele>
        <time>2025-02-16T14:13:25Z</time>
      </trkpt>
      <trkpt lat="43.56866" lon="6.17718">
        <ele>364.3</ele>
        <time>2025-02-16T14:13:46Z</time>
      </trkpt>
      <trkpt lat="43.56866" lon="6.17708">
        <ele>363.5</ele>
        <time>2025-02-16T14:14:10Z</time>
      </trkpt>
      <trkpt lat="43.56867" lon="6.17715">
        <ele>364</ele>
        <time>2025-02-16T14:14:36Z</time>
      </trkpt>
      <trkpt lat="43.56869" lon="6.17725">
        <ele>364.7</ele>
        <time>2025-02-16T14:14:43.500Z</time>
      </trkpt>
      <trkpt lat="43.5687" lon="6.17736">
        <ele>365.2</ele>
        <time>2025-02-16T14:14:51Z</time>
      </trkpt>
      <trkpt lat="43.56874" lon="6.17745">
        <ele>365.3</ele>
        <time>2025-02-16T14:14:57.000Z</time>
      </trkpt>
      <trkpt lat="43.56878" lon="6.17753">
        <ele>365.1</ele>
        <time>2025-02-16T14:15:03Z</time>
      </trkpt>
      <trkpt lat="43.56879" lon="6.17761">
        <ele>364.8</ele>
        <time>2025-02-16T14:15:09.500Z</time>
      </trkpt>
      <trkpt lat="43.5688" lon="6.17768">
        <ele>364.6</ele>
        <time>2025-02-16T14:15:16Z</time>
      </trkpt>
      <trkpt lat="43.56874" lon="6.17771">
        <ele>364.3</ele>
        <time>2025-02-16T14:15:23.999Z</time>
      </trkpt>
      <trkpt lat="43.56868" lon="6.17775">
        <ele>363.8</ele>
        <time>2025-02-16T14:15:32Z</time>
      </trkpt>
      <trkpt lat="43.56863" lon="6.17768">
        <ele>364.4</ele>
        <time>2025-02-16T14:15:38.499Z</time>
      </trkpt>
      <trkpt lat="43.56857" lon="6.17762">
        <ele>364.9</ele>
        <time>2025-02-16T14:15:45Z</time>
      </trkpt>
      <trkpt lat="43.56851" lon="6.17755">
        <ele>364.9</ele>
        <time>2025-02-16T14:15:52.499Z</time>
      </trkpt>
      <trkpt lat="43.56844" lon="6.17749">
        <ele>364.5</ele>
        <time>2025-02-16T14:16:00Z</time>
      </trkpt>
      <trkpt lat="43.5684" lon="6.17743">
        <ele>363.7</ele>
        <time>2025-02-16T14:16:03.506Z</time>
      </trkpt>
      <trkpt lat="43.56837" lon="6.17737">
        <ele>363</ele>
        <time>2025-02-16T14:16:07.013Z</time>
      </trkpt>
      <trkpt lat="43.56841" lon="6.17728">
        <ele>363</ele>
        <time>2025-02-16T14:16:12.006Z</time>
      </trkpt>
      <trkpt lat="43.56845" lon="6.17718">
        <ele>363.6</ele>
        <time>2025-02-16T14:16:17Z</time>
      </trkpt>
      <trkpt lat="43.56841" lon="6.17724">
        <ele>362.9</ele>
        <time>2025-02-16T14:16:23.499Z</time>
      </trkpt>
      <trkpt lat="43.56836" lon="6.1773">
        <ele>362.6</ele>
        <time>2025-02-16T14:16:29.999Z</time>
      </trkpt>
      <trkpt lat="43.56832" lon="6.17737">
        <ele>362.8</ele>
        <time>2025-02-16T14:16:36.499Z</time>
      </trkpt>
      <trkpt lat="43.56828" lon="6.17743">
        <ele>363.6</ele>
        <time>2025-02-16T14:16:43Z</time>
      </trkpt>
      <trkpt lat="43.56824" lon="6.17754">
        <ele>363.7</ele>
        <time>2025-02-16T14:17:13Z</time>
      </trkpt>
      <trkpt lat="43.56828" lon="6.17751">
        <ele>363.5</ele>
        <time>2025-02-16T14:17:16.712Z</time>
      </trkpt>
      <trkpt lat="43.56832" lon="6.17748">
        <ele>363.1</ele>
        <time>2025-02-16T14:17:20.425Z</time>
      </trkpt>
      <trkpt lat="43.56837" lon="6.17749">
        <ele>363.5</ele>
        <time>2025-02-16T14:17:24.712Z</time>
      </trkpt>
      <trkpt lat="43.56842" lon="6.1775">
        <ele>364.3</ele>
        <time>2025-02-16T14:17:29Z</time>
      </trkpt>
      <trkpt lat="43.56849" lon="6.17756">
        <ele>364.6</ele>
        <time>2025-02-16T14:17:35.500Z</time>
      </trkpt>
      <trkpt lat="43.56855" lon="6.17762">
        <ele>364.6</ele>
        <time>2025-02-16T14:17:42Z</time>
      </trkpt>
      <trkpt lat="43.56858" lon="6.17769">
        <ele>364.1</ele>
        <time>2025-02-16T14:17:46.500Z</time>
      </trkpt>
      <trkpt lat="43.56861" lon="6.17776">
        <ele>363.3</ele>
        <time>2025-02-16T14:17:51Z</time>
      </trkpt>
      <trkpt lat="43.56864" lon="6.17783">
        <ele>363.3</ele>
        <time>2025-02-16T14:17:56.000Z</time>
      </trkpt>
      <trkpt lat="43.56867" lon="6.1779">
        <ele>363.6</ele>
        <time>2025-02-16T14:18:01Z</time>
      </trkpt>
      <trkpt lat="43.5687" lon="6.17798">
        <ele>364.1</ele>
        <time>2025-02-16T14:18:06.000Z</time>
      </trkpt>
      <trkpt lat="43.56873" lon="6.17806">
        <ele>364.6</ele>
        <time>2025-02-16T14:18:11Z</time>
      </trkpt>
      <trkpt lat="43.56876" lon="6.17813">
        <ele>364.5</ele>
        <time>2025-02-16T14:18:15.500Z</time>
      </trkpt>
      <trkpt lat="43.56879" lon="6.17821">
        <ele>364.3</ele>
        <time>2025-02-16T14:18:20Z</time>
      </trkpt>
      <trkpt lat="43.56883" lon="6.17827">
        <ele>364.1</ele>
        <time>2025-02-16T14:18:25.000Z</time>
      </trkpt>
      <trkpt lat="43.56886" lon="6.17834">
        <ele>363.8</ele>
        <time>2025-02-16T14:18:30Z</time>
      </trkpt>
      <trkpt lat="43.56891" lon="6.1784">
        <ele>363.9</ele>
        <time>2025-02-16T14:19:05Z</time>
      </trkpt>
      <trkpt lat="43.56895" lon="6.17844">
        <ele>364</ele>
        <time>2025-02-16T14:19:10.500Z</time>
      </trkpt>
      <trkpt lat="43.56898" lon="6.17849">
        <ele>364.1</ele>
        <time>2025-02-16T14:19:16Z</time>
      </trkpt>
      <trkpt lat="43.569" lon="6.17857">
        <ele>364.3</ele>
        <time>2025-02-16T14:19:25.000Z</time>
      </trkpt>
      <trkpt lat="43.56903" lon="6.17865">
        <ele>364.5</ele>
        <time>2025-02-16T14:19:34Z</time>
      </trkpt>
      <trkpt lat="43.56903" lon="6.17874">
        <ele>364.5</ele>
        <time>2025-02-16T14:19:41.500Z</time>
      </trkpt>
      <trkpt lat="43.56903" lon="6.17884">
        <ele>364.6</ele>
        <time>2025-02-16T14:19:49Z</time>
      </trkpt>
      <trkpt lat="43.56904" lon="6.17891">
        <ele>364.5</ele>
        <time>2025-02-16T14:19:53.000Z</time>
      </trkpt>
      <trkpt lat="43.56904" lon="6.17897">
        <ele>364.4</ele>
        <time>2025-02-16T14:19:57.000Z</time>
      </trkpt>
      <trkpt lat="43.56905" lon="6.17904">
        <ele>364.2</ele>
        <time>2025-02-16T14:20:01.000Z</time>
      </trkpt>
      <trkpt lat="43.56905" lon="6.17911">
        <ele>364</ele>
        <time>2025-02-16T14:20:05Z</time>
      </trkpt>
      <trkpt lat="43.56906" lon="6.17917">
        <ele>363.8</ele>
        <time>2025-02-16T14:20:09.000Z</time>
      </trkpt>
      <trkpt lat="43.56907" lon="6.17924">
        <ele>363.6</ele>
        <time>2025-02-16T14:20:13.000Z</time>
      </trkpt>
      <trkpt lat="43.56908" lon="6.1793">
        <ele>363.4</ele>
        <time>2025-02-16T14:20:17.000Z</time>
      </trkpt>
      <trkpt lat="43.56909" lon="6.17937">
        <ele>363.1</ele>
        <time>2025-02-16T14:20:21Z</time>
      </trkpt>
      <trkpt lat="43.56908" lon="6.17943">
        <ele>362.7</ele>
        <time>2025-02-16T14:20:24.499Z</time>
      </trkpt>
      <trkpt lat="43.56907" lon="6.17949">
        <ele>362.5</ele>
        <time>2025-02-16T14:20:27.999Z</time>
      </trkpt>
      <trkpt lat="43.56906" lon="6.17955">
        <ele>362.3</ele>
        <time>2025-02-16T14:20:31.499Z</time>
      </trkpt>
      <trkpt lat="43.56905" lon="6.17962">
        <ele>362</ele>
        <time>2025-02-16T14:20:35Z</time>
      </trkpt>
      <trkpt lat="43.56902" lon="6.17972">
        <ele>361.5</ele>
        <time>2025-02-16T14:20:41.999Z</time>
      </trkpt>
      <trkpt lat="43.569" lon="6.17982">
        <ele>361.6</ele>
        <time>2025-02-16T14:20:49Z</time>
      </trkpt>
      <trkpt lat="43.56897" lon="6.1799">
        <ele>361.8</ele>
        <time>2025-02-16T14:20:51.999Z</time>
      </trkpt>
      <trkpt lat="43.56895" lon="6.17997">
        <ele>362.1</ele>
        <time>2025-02-16T14:20:54.999Z</time>
      </trkpt>
      <trkpt lat="43.56892" lon="6.18005">
        <ele>362.1</ele>
        <time>2025-02-16T14:20:57.999Z</time>
      </trkpt>
      <trkpt lat="43.56889" lon="6.18013">
        <ele>362</ele>
        <time>2025-02-16T14:21:01Z</time>
      </trkpt>
      <trkpt lat="43.56886" lon="6.18021">
        <ele>361.8</ele>
        <time>2025-02-16T14:21:07.999Z</time>
      </trkpt>
      <trkpt lat="43.56882" lon="6.1803">
        <ele>361.5</ele>
        <time>2025-02-16T14:21:15Z</time>
      </trkpt>
      <trkpt lat="43.56883" lon="6.1804">
        <ele>361.7</ele>
        <time>2025-02-16T14:21:23.000Z</time>
      </trkpt>
      <trkpt lat="43.56885" lon="6.18049">
        <ele>361.8</ele>
        <time>2025-02-16T14:21:31Z</time>
      </trkpt>
      <trkpt lat="43.56886" lon="6.1806">
        <ele>361.9</ele>
        <time>2025-02-16T14:22:01Z</time>
      </trkpt>
      <trkpt lat="43.56888" lon="6.18069">
        <ele>362</ele>
        <time>2025-02-16T14:22:10.000Z</time>
      </trkpt>
      <trkpt lat="43.5689" lon="6.18077">
        <ele>362.1</ele>
        <time>2025-02-16T14:22:19Z</time>
      </trkpt>
      <trkpt lat="43.56889" lon="6.18086">
        <ele>362.2</ele>
        <time>2025-02-16T14:22:28.499Z</time>
      </trkpt>
      <trkpt lat="43.56888" lon="6.18096">
        <ele>362.8</ele>
        <time>2025-02-16T14:22:38Z</time>
      </trkpt>
      <trkpt lat="43.56884" lon="6.18101">
        <ele>362.7</ele>
        <time>2025-02-16T14:22:42.249Z</time>
      </trkpt>
      <trkpt lat="43.56881" lon="6.18107">
        <ele>362.4</ele>
        <time>2025-02-16T14:22:46.499Z</time>
      </trkpt>
      <trkpt lat="43.56878" lon="6.18112">
        <ele>362.1</ele>
        <time>2025-02-16T14:22:50.749Z</time>
      </trkpt>
      <trkpt lat="43.56874" lon="6.18118">
        <ele>362.2</ele>
        <time>2025-02-16T14:22:55Z</time>
      </trkpt>
      <trkpt lat="43.56868" lon="6.18127">
        <ele>362.4</ele>
        <time>2025-02-16T14:23:02.499Z</time>
      </trkpt>
      <trkpt lat="43.56862" lon="6.18136">
        <ele>362.7</ele>
        <time>2025-02-16T14:23:10Z</time>
      </trkpt>
      <trkpt lat="43.56858" lon="6.18145">
        <ele>363.3</ele>
        <time>2025-02-16T14:23:18.499Z</time>
      </trkpt>
      <trkpt lat="43.56853" lon="6.18154">
        <ele>363.7</ele>
        <time>2025-02-16T14:23:27Z</time>
      </trkpt>
      <trkpt lat="43.56849" lon="6.18152">
        <ele>363.7</ele>
        <time>2025-02-16T14:23:33.999Z</time>
      </trkpt>
      <trkpt lat="43.56844" lon="6.1815">
        <ele>363.8</ele>
        <time>2025-02-16T14:23:41Z</time>
      </trkpt>
      <trkpt lat="43.56841" lon="6.18142">
        <ele>363.7</ele>
        <time>2025-02-16T14:23:45.999Z</time>
      </trkpt>
      <trkpt lat="43.56838" lon="6.18133">
        <ele>363.2</ele>
        <time>2025-02-16T14:23:51Z</time>
      </trkpt>
      <trkpt lat="43.56836" lon="6.18125">
        <ele>362.3</ele>
        <time>2025-02-16T14:23:55.999Z</time>
      </trkpt>
      <trkpt lat="43.56835" lon="6.18116">
        <ele>361.5</ele>
        <time>2025-02-16T14:24:01Z</time>
      </trkpt>
      <trkpt lat="43.56834" lon="6.18108">
        <ele>361</ele>
        <time>2025-02-16T14:24:05.999Z</time>
      </trkpt>
      <trkpt lat="43.56833" lon="6.18099">
        <ele>361</ele>
        <time>2025-02-16T14:24:11Z</time>
      </trkpt>
      <trkpt lat="43.56831" lon="6.18091">
        <ele>361.1</ele>
        <time>2025-02-16T14:24:15.499Z</time>
      </trkpt>
      <trkpt lat="43.5683" lon="6.18083">
        <ele>361.3</ele>
        <time>2025-02-16T14:24:20Z</time>
      </trkpt>
      <trkpt lat="43.56828" lon="6.18076">
        <ele>362.2</ele>
        <time>2025-02-16T14:24:26.499Z</time>
      </trkpt>
      <trkpt lat="43.56826" lon="6.18068">
        <ele>363.1</ele>
        <time>2025-02-16T14:24:33Z</time>
      </trkpt>
      <trkpt lat="43.56821" lon="6.18062">
        <ele>364.2</ele>
        <time>2025-02-16T14:24:40.499Z</time>
      </trkpt>
      <trkpt lat="43.56816" lon="6.18055">
        <ele>365.3</ele>
        <time>2025-02-16T14:24:48Z</time>
      </trkpt>
      <trkpt lat="43.5681" lon="6.18052">
        <ele>366.2</ele>
        <time>2025-02-16T14:24:57.499Z</time>
      </trkpt>
      <trkpt lat="43.56804" lon="6.1805">
        <ele>367.2</ele>
        <time>2025-02-16T14:25:07Z</time>
      </trkpt>
      <trkpt lat="43.56799" lon="6.18045">
        <ele>368.3</ele>
        <time>2025-02-16T14:25:15.999Z</time>
      </trkpt>
      <trkpt lat="43.56794" lon="6.18041">
        <ele>369.5</ele>
        <time>2025-02-16T14:25:25Z</time>
      </trkpt>
      <trkpt lat="43.56794" lon="6.18029">
        <ele>372.1</ele>
        <time>2025-02-16T14:25:39.590Z</time>
      </trkpt>
      <trkpt lat="43.56795" lon="6.18026">
        <ele>372.3</ele>
        <time>2025-02-16T14:25:43Z</time>
      </trkpt>
      <trkpt lat="43.56794" lon="6.18019">
        <ele>373</ele>
        <time>2025-02-16T14:25:50.499Z</time>
      </trkpt>
      <trkpt lat="43.56793" lon="6.18012">
        <ele>373.8</ele>
        <time>2025-02-16T14:25:58Z</time>
      </trkpt>
      <trkpt lat="43.56789" lon="6.18005">
        <ele>374.8</ele>
        <time>2025-02-16T14:26:05.499Z</time>
      </trkpt>
      <trkpt lat="43.56785" lon="6.17997">
        <ele>375.6</ele>
        <time>2025-02-16T14:26:13Z</time>
      </trkpt>
      <trkpt lat="43.5678" lon="6.1799">
        <ele>376.2</ele>
        <time>2025-02-16T14:26:20.499Z</time>
      </trkpt>
      <trkpt lat="43.56774" lon="6.17983">
        <ele>376.8</ele>
        <time>2025-02-16T14:26:28Z</time>
      </trkpt>
      <trkpt lat="43.56772" lon="6.17981">
        <ele>377</ele>
        <time>2025-02-16T14:26:46Z</time>
      </trkpt>
      <trkpt lat="43.56771" lon="6.17977">
        <ele>377.2</ele>
        <time>2025-02-16T14:26:49.086Z</time>
      </trkpt>
      <trkpt lat="43.56772" lon="6.17973">
        <ele>377.4</ele>
        <time>2025-02-16T14:26:52.560Z</time>
      </trkpt>
      <trkpt lat="43.56769" lon="6.17965">
        <ele>378.2</ele>
        <time>2025-02-16T14:27:00Z</time>
      </trkpt>
      <trkpt lat="43.56765" lon="6.17959">
        <ele>378.9</ele>
        <time>2025-02-16T14:27:24.499Z</time>
      </trkpt>
      <trkpt lat="43.56762" lon="6.17952">
        <ele>379.6</ele>
        <time>2025-02-16T14:27:49Z</time>
      </trkpt>
      <trkpt lat="43.56762" lon="6.17951">
        <ele>379.7</ele>
        <time>2025-02-16T14:29:23Z</time>
      </trkpt>
      <trkpt lat="43.56761" lon="6.17946">
        <ele>380.1</ele>
        <time>2025-02-16T14:30:18Z</time>
      </trkpt>
      <trkpt lat="43.56758" lon="6.17939">
        <ele>380.6</ele>
        <time>2025-02-16T14:30:42Z</time>
      </trkpt>
      <trkpt lat="43.56756" lon="6.17938">
        <ele>380.8</ele>
        <time>2025-02-16T14:31:03Z</time>
      </trkpt>
      <trkpt lat="43.56749" lon="6.17939">
        <ele>381.2</ele>
        <time>2025-02-16T14:31:11.715Z</time>
      </trkpt>
      <trkpt lat="43.56743" lon="6.17933">
        <ele>381.5</ele>
        <time>2025-02-16T14:31:21Z</time>
      </trkpt>
      <trkpt lat="43.56746" lon="6.17926">
        <ele>381.8</ele>
        <time>2025-02-16T14:31:26.050Z</time>
      </trkpt>
      <trkpt lat="43.5675" lon="6.17918">
        <ele>382</ele>
        <time>2025-02-16T14:31:32Z</time>
      </trkpt>
      <trkpt lat="43.56752" lon="6.1791">
        <ele>382.4</ele>
        <time>2025-02-16T14:31:36.901Z</time>
      </trkpt>
      <trkpt lat="43.56756" lon="6.17905">
        <ele>382.3</ele>
        <time>2025-02-16T14:31:40.838Z</time>
      </trkpt>
      <trkpt lat="43.56763" lon="6.17905">
        <ele>381.8</ele>
        <time>2025-02-16T14:31:46Z</time>
      </trkpt>
      <trkpt lat="43.56766" lon="6.17901">
        <ele>381.7</ele>
        <time>2025-02-16T14:32:00Z</time>
      </trkpt>
      <trkpt lat="43.56773" lon="6.17903">
        <ele>380.9</ele>
        <time>2025-02-16T14:32:20Z</time>
      </trkpt>
      <trkpt lat="43.56777" lon="6.17907">
        <ele>380.4</ele>
        <time>2025-02-16T14:32:23.750Z</time>
      </trkpt>
      <trkpt lat="43.56781" lon="6.17911">
        <ele>379.7</ele>
        <time>2025-02-16T14:32:27.500Z</time>
      </trkpt>
      <trkpt lat="43.56785" lon="6.17914">
        <ele>379</ele>
        <time>2025-02-16T14:32:31.250Z</time>
      </trkpt>
      <trkpt lat="43.56789" lon="6.17918">
        <ele>378.3</ele>
        <time>2025-02-16T14:32:35Z</time>
      </trkpt>
      <trkpt lat="43.56783" lon="6.17912">
        <ele>379.4</ele>
        <time>2025-02-16T14:32:46.499Z</time>
      </trkpt>
      <trkpt lat="43.56777" lon="6.17906">
        <ele>380.5</ele>
        <time>2025-02-16T14:32:58Z</time>
      </trkpt>
      <trkpt lat="43.56775" lon="6.17903">
        <ele>380.7</ele>
        <time>2025-02-16T14:34:09Z</time>
      </trkpt>
      <trkpt lat="43.5677" lon="6.179">
        <ele>381.4</ele>
        <time>2025-02-16T14:34:25.125Z</time>
      </trkpt>
      <trkpt lat="43.56769" lon="6.17898">
        <ele>381.6</ele>
        <time>2025-02-16T14:34:30Z</time>
      </trkpt>
      <trkpt lat="43.56764" lon="6.17895">
        <ele>382.2</ele>
        <time>2025-02-16T14:34:50Z</time>
      </trkpt>
      <trkpt lat="43.5676" lon="6.17889">
        <ele>383</ele>
        <time>2025-02-16T14:35:03Z</time>
      </trkpt>
      <trkpt lat="43.56758" lon="6.17882">
        <ele>383</ele>
        <time>2025-02-16T14:35:21Z</time>
      </trkpt>
      <trkpt lat="43.56755" lon="6.17876">
        <ele>383.4</ele>
        <time>2025-02-16T14:35:28.999Z</time>
      </trkpt>
      <trkpt lat="43.56752" lon="6.1787">
        <ele>383.8</ele>
        <time>2025-02-16T14:35:37Z</time>
      </trkpt>
      <trkpt lat="43.56751" lon="6.1786">
        <ele>383.8</ele>
        <time>2025-02-16T14:35:55Z</time>
      </trkpt>
      <trkpt lat="43.5675" lon="6.17851">
        <ele>383.3</ele>
        <time>2025-02-16T14:36:08Z</time>
      </trkpt>
      <trkpt lat="43.56754" lon="6.17842">
        <ele>381.8</ele>
        <time>2025-02-16T14:36:25Z</time>
      </trkpt>
      <trkpt lat="43.5675" lon="6.17846">
        <ele>382.9</ele>
        <time>2025-02-16T14:36:32.999Z</time>
      </trkpt>
      <trkpt lat="43.56747" lon="6.17851">
        <ele>383.3</ele>
        <time>2025-02-16T14:36:41Z</time>
      </trkpt>
      <trkpt lat="43.56743" lon="6.17853">
        <ele>383.5</ele>
        <time>2025-02-16T14:36:44.112Z</time>
      </trkpt>
      <trkpt lat="43.5674" lon="6.17857">
        <ele>383.8</ele>
        <time>2025-02-16T14:36:48.000Z</time>
      </trkpt>
      <trkpt lat="43.56737" lon="6.17863">
        <ele>384</ele>
        <time>2025-02-16T14:36:52Z</time>
      </trkpt>
      <trkpt lat="43.56734" lon="6.17873">
        <ele>383.8</ele>
        <time>2025-02-16T14:36:59.548Z</time>
      </trkpt>
      <trkpt lat="43.56734" lon="6.1788">
        <ele>383.6</ele>
        <time>2025-02-16T14:37:05Z</time>
      </trkpt>
      <trkpt lat="43.56733" lon="6.17888">
        <ele>383.4</ele>
        <time>2025-02-16T14:37:09.999Z</time>
      </trkpt>
      <trkpt lat="43.56731" lon="6.17895">
        <ele>383.2</ele>
        <time>2025-02-16T14:37:15Z</time>
      </trkpt>
      <trkpt lat="43.56728" lon="6.179">
        <ele>383</ele>
        <time>2025-02-16T14:37:25Z</time>
      </trkpt>
      <trkpt lat="43.56725" lon="6.179">
        <ele>383</ele>
        <time>2025-02-16T14:37:28.664Z</time>
      </trkpt>
      <trkpt lat="43.56719" lon="6.17896">
        <ele>382.2</ele>
        <time>2025-02-16T14:37:36Z</time>
      </trkpt>
      <trkpt lat="43.56719" lon="6.17892">
        <ele>382.2</ele>
        <time>2025-02-16T14:37:39.131Z</time>
      </trkpt>
      <trkpt lat="43.56716" lon="6.1789">
        <ele>381.5</ele>
        <time>2025-02-16T14:37:42.473Z</time>
      </trkpt>
      <trkpt lat="43.56712" lon="6.17887">
        <ele>380.4</ele>
        <time>2025-02-16T14:37:47.460Z</time>
      </trkpt>
      <trkpt lat="43.56711" lon="6.17892">
        <ele>380.2</ele>
        <time>2025-02-16T14:37:51.143Z</time>
      </trkpt>
      <trkpt lat="43.56714" lon="6.17897">
        <ele>380.9</ele>
        <time>2025-02-16T14:37:55.849Z</time>
      </trkpt>
      <trkpt lat="43.56719" lon="6.17897">
        <ele>382.1</ele>
        <time>2025-02-16T14:38:01Z</time>
      </trkpt>
      <trkpt lat="43.56724" lon="6.179">
        <ele>383</ele>
        <time>2025-02-16T14:38:06.000Z</time>
      </trkpt>
      <trkpt lat="43.56729" lon="6.17903">
        <ele>383</ele>
        <time>2025-02-16T14:38:11Z</time>
      </trkpt>
      <trkpt lat="43.56726" lon="6.17909">
        <ele>382.9</ele>
        <time>2025-02-16T14:38:16.499Z</time>
      </trkpt>
      <trkpt lat="43.56723" lon="6.17915">
        <ele>383</ele>
        <time>2025-02-16T14:38:22Z</time>
      </trkpt>
      <trkpt lat="43.56721" lon="6.17922">
        <ele>382.4</ele>
        <time>2025-02-16T14:38:26.999Z</time>
      </trkpt>
      <trkpt lat="43.56719" lon="6.17929">
        <ele>381.4</ele>
        <time>2025-02-16T14:38:32Z</time>
      </trkpt>
      <trkpt lat="43.56715" lon="6.17937">
        <ele>380</ele>
        <time>2025-02-16T14:38:43Z</time>
      </trkpt>
      <trkpt lat="43.56709" lon="6.17933">
        <ele>379</ele>
        <time>2025-02-16T14:38:48.830Z</time>
      </trkpt>
      <trkpt lat="43.56703" lon="6.17929">
        <ele>377.8</ele>
        <time>2025-02-16T14:38:54.661Z</time>
      </trkpt>
      <trkpt lat="43.567" lon="6.17922">
        <ele>377.3</ele>
        <time>2025-02-16T14:38:59.330Z</time>
      </trkpt>
      <trkpt lat="43.56698" lon="6.17916">
        <ele>376.8</ele>
        <time>2025-02-16T14:39:04Z</time>
      </trkpt>
      <trkpt lat="43.56696" lon="6.17906">
        <ele>376.3</ele>
        <time>2025-02-16T14:39:11.499Z</time>
      </trkpt>
      <trkpt lat="43.56694" lon="6.17896">
        <ele>376</ele>
        <time>2025-02-16T14:39:19Z</time>
      </trkpt>
      <trkpt lat="43.56688" lon="6.17894">
        <ele>375.4</ele>
        <time>2025-02-16T14:39:24.999Z</time>
      </trkpt>
      <trkpt lat="43.56681" lon="6.17891">
        <ele>375</ele>
        <time>2025-02-16T14:39:31Z</time>
      </trkpt>
      <trkpt lat="43.56677" lon="6.17884">
        <ele>374.9</ele>
        <time>2025-02-16T14:39:41Z</time>
      </trkpt>
      <trkpt lat="43.56677" lon="6.17878">
        <ele>375</ele>
        <time>2025-02-16T14:40:27Z</time>
      </trkpt>
      <trkpt lat="43.56676" lon="6.17871">
        <ele>375.1</ele>
        <time>2025-02-16T14:40:31.499Z</time>
      </trkpt>
      <trkpt lat="43.56676" lon="6.17864">
        <ele>375.2</ele>
        <time>2025-02-16T14:40:36Z</time>
      </trkpt>
      <trkpt lat="43.56675" lon="6.17856">
        <ele>375.7</ele>
        <time>2025-02-16T14:40:40.999Z</time>
      </trkpt>
      <trkpt lat="43.56675" lon="6.17849">
        <ele>376.4</ele>
        <time>2025-02-16T14:40:46Z</time>
      </trkpt>
      <trkpt lat="43.56674" lon="6.1784">
        <ele>377.1</ele>
        <time>2025-02-16T14:40:52.999Z</time>
      </trkpt>
      <trkpt lat="43.56673" lon="6.17832">
        <ele>377.8</ele>
        <time>2025-02-16T14:41:00Z</time>
      </trkpt>
      <trkpt lat="43.56675" lon="6.17823">
        <ele>378.1</ele>
        <time>2025-02-16T14:41:07.500Z</time>
      </trkpt>
      <trkpt lat="43.56676" lon="6.17815">
        <ele>378.3</ele>
        <time>2025-02-16T14:41:15Z</time>
      </trkpt>
      <trkpt lat="43.56681" lon="6.17812">
        <ele>378.3</ele>
        <time>2025-02-16T14:41:34.500Z</time>
      </trkpt>
      <trkpt lat="43.56685" lon="6.1781">
        <ele>378.2</ele>
        <time>2025-02-16T14:41:54Z</time>
      </trkpt>
      <trkpt lat="43.56693" lon="6.17812">
        <ele>377.8</ele>
        <time>2025-02-16T14:42:17Z</time>
        <extensions>
          <visugpx:TrkExtension xmlns:visugpx="https://www.visugpx.com/editgpx/">
            <visugpx:node>1</visugpx:node>
            </visugpx:TrkExtension>
        </extensions>
      </trkpt>
    </trkseg>
  </trk>
</gpx>